[[{"header":{"parameterUnit":"m.s-1","parameterCategory":1,"la1":30.6,"la2":29.2853,"lo1":-89.7004,"lo2":-87.6739,"dy":0.0162,"dx":0.0183,"nx":112,"ny":82,"refTime":"2023-11-12T06:00:00:Z","depth":0,"parameterNumber":2,"parameterNumberName":"U-component_of_WINDS"},"data":[0.0,0.0,0.0,0.0,0.0,0.0,0.0,0.0,0.0,0.0,0.0,0.0,0.0,0.0,0.0,0.0,0.0,0.0,0.0,0.0,0.0,0.0,0.0,0.0,0.0,0.0,0.0,0.0,0.0,0.0,0.0,0.0,0.0,0.0,0.0,0.0,0.0,0.0,0.0,0.0,0.0,0.0,0.0,0.0,0.0,0.0,0.0,0.0,0.0,0.0,0.0,0.0,0.0,0.0,0.0,0.0,0.0,0.0,0.0,0.0,0.0,0.0,0.0,0.0,0.0,0.0,0.0,0.0,0.0,0.0,0.0,0.0,0.0,0.0,0.0,0.0,0.0,0.0,0.0,0.0,0.0,0.0,0.0,0.0,0.0,0.0,0.0,0.0,0.0,0.0,0.0,3.6145,3.611,3.5883,3.5433,3.4523,3.3543,3.2556,0.0,0.0,0.0,0.0,0.0,0.0,0.0,0.0,0.0,0.0,0.0,0.0,0.0,0.0,0.0,0.0,0.0,0.0,0.0,0.0,0.0,0.0,0.0,0.0,0.0,0.0,0.0,0.0,0.0,0.0,0.0,0.0,0.0,0.0,0.0,0.0,0.0,0.0,0.0,0.0,0.0,0.0,0.0,0.0,0.0,0.0,0.0,0.0,0.0,0.0,0.0,0.0,0.0,0.0,0.0,0.0,0.0,0.0,0.0,0.0,0.0,0.0,0.0,0.0,0.0,0.0,0.0,0.0,0.0,0.0,0.0,0.0,0.0,0.0,0.0,0.0,0.0,0.0,0.0,0.0,0.0,0.0,0.0,0.0,0.0,0.0,0.0,0.0,0.0,0.0,0.0,0.0,0.0,0.0,0.0,0.0,0.0,0.0,0.0,0.0,0.0,0.0,0.0,0.0,3.596,3.6767,3.6554,3.619,3.5825,3.491,3.3925,3.2978,0.0,0.0,0.0,0.0,0.0,0.0,0.0,0.0,0.0,0.0,0.0,0.0,0.0,0.0,0.0,0.0,0.0,0.0,0.0,0.0,0.0,0.0,0.0,0.0,0.0,0.0,0.0,0.0,0.0,0.0,0.0,0.0,0.0,0.0,0.0,0.0,0.0,0.0,0.0,0.0,0.0,0.0,0.0,0.0,0.0,0.0,0.0,0.0,0.0,0.0,0.0,0.0,0.0,0.0,0.0,0.0,0.0,0.0,0.0,0.0,0.0,0.0,0.0,0.0,0.0,0.0,0.0,0.0,0.0,0.0,0.0,0.0,0.0,0.0,0.0,0.0,0.0,0.0,0.0,0.0,0.0,0.0,0.0,0.0,0.0,0.0,0.0,0.0,0.0,0.0,0.0,0.0,0.0,0.0,0.0,0.0,0.0,0.0,0.0,0.0,0.0,0.0,0.0,3.6267,3.6731,3.7723,3.7151,3.6731,3.677,3.5584,3.4546,3.3864,3.2554,0.0,0.0,0.0,0.0,0.0,0.0,0.0,0.0,0.0,0.0,0.0,0.0,0.0,0.0,0.0,0.0,0.0,0.0,0.0,0.0,0.0,0.0,0.0,0.0,0.0,0.0,0.0,0.0,0.0,0.0,0.0,0.0,0.0,0.0,0.0,0.0,0.0,0.0,0.0,0.0,0.0,0.0,0.0,0.0,0.0,0.0,0.0,0.0,0.0,0.0,0.0,0.0,0.0,0.0,0.0,0.0,0.0,0.0,0.0,0.0,0.0,0.0,0.0,0.0,0.0,0.0,0.0,0.0,0.0,0.0,0.0,0.0,0.0,0.0,0.0,0.0,0.0,0.0,0.0,0.0,0.0,0.0,0.0,0.0,0.0,0.0,0.0,0.0,0.0,0.0,0.0,0.0,0.0,0.0,0.0,0.0,0.0,0.0,0.0,0.0,0.0,0.0,3.7373,3.7691,3.8541,3.7857,3.7436,3.7645,3.6332,3.5272,3.4789,3.3377,0.0,0.0,0.0,0.0,0.0,0.0,0.0,0.0,0.0,0.0,0.0,0.0,0.0,0.0,0.0,0.0,0.0,0.0,0.0,0.0,0.0,0.0,0.0,0.0,0.0,0.0,0.0,0.0,0.0,0.0,0.0,0.0,0.0,0.0,0.0,0.0,0.0,0.0,0.0,0.0,0.0,0.0,0.0,0.0,0.0,0.0,0.0,0.0,0.0,0.0,0.0,0.0,0.0,0.0,0.0,0.0,0.0,0.0,0.0,0.0,0.0,0.0,0.0,0.0,0.0,0.0,0.0,0.0,0.0,0.0,0.0,0.0,0.0,0.0,0.0,0.0,0.0,0.0,0.0,0.0,0.0,0.0,0.0,0.0,0.0,0.0,0.0,0.0,0.0,0.0,0.0,0.0,0.0,0.0,0.0,0.0,0.0,0.0,0.0,0.0,0.0,0.0,3.8042,3.8557,3.8935,3.8613,3.8336,3.8155,3.702,3.6044,3.5459,3.3776,0.0,0.0,0.0,0.0,0.0,0.0,0.0,0.0,0.0,0.0,0.0,0.0,0.0,0.0,0.0,0.0,0.0,0.0,0.0,0.0,0.0,0.0,0.0,0.0,0.0,0.0,0.0,0.0,0.0,0.0,0.0,0.0,0.0,0.0,0.0,0.0,0.0,0.0,0.0,0.0,0.0,0.0,0.0,0.0,0.0,0.0,0.0,0.0,0.0,0.0,0.0,0.0,0.0,0.0,0.0,0.0,0.0,0.0,0.0,0.0,0.0,0.0,0.0,0.0,0.0,0.0,0.0,0.0,0.0,0.0,0.0,0.0,0.0,0.0,0.0,0.0,0.0,0.0,0.0,0.0,0.0,0.0,0.0,0.0,0.0,0.0,0.0,0.0,0.0,0.0,0.0,0.0,0.0,0.0,0.0,0.0,0.0,0.0,0.0,0.0,0.0,0.0,3.8543,3.895,0.0,3.8721,3.833,3.8318,3.7524,3.6624,3.5634,0.0,0.0,0.0,0.0,0.0,0.0,0.0,0.0,0.0,0.0,0.0,0.0,0.0,0.0,0.0,0.0,0.0,0.0,0.0,0.0,0.0,0.0,0.0,0.0,0.0,0.0,0.0,0.0,0.0,0.0,0.0,0.0,0.0,0.0,0.0,0.0,0.0,0.0,0.0,0.0,0.0,0.0,0.0,0.0,0.0,0.0,0.0,0.0,0.0,0.0,0.0,0.0,0.0,0.0,0.0,0.0,0.0,0.0,0.0,0.0,0.0,0.0,0.0,0.0,0.0,0.0,0.0,0.0,0.0,0.0,0.0,0.0,0.0,0.0,0.0,0.0,0.0,0.0,0.0,0.0,0.0,0.0,0.0,0.0,0.0,0.0,0.0,0.0,0.0,0.0,0.0,0.0,0.0,0.0,0.0,0.0,0.0,0.0,0.0,0.0,0.0,0.0,3.8733,3.9026,3.9308,0.0,3.8994,3.8612,3.8727,3.7965,3.7074,3.6207,0.0,0.0,0.0,0.0,0.0,0.0,0.0,0.0,0.0,0.0,0.0,0.0,0.0,0.0,0.0,0.0,0.0,0.0,0.0,0.0,0.0,0.0,0.0,0.0,0.0,0.0,0.0,0.0,0.0,0.0,0.0,0.0,0.0,0.0,0.0,0.0,0.0,0.0,0.0,0.0,0.0,0.0,0.0,0.0,0.0,0.0,0.0,0.0,0.0,0.0,0.0,0.0,0.0,0.0,0.0,0.0,0.0,0.0,0.0,0.0,0.0,0.0,0.0,0.0,0.0,0.0,0.0,0.0,0.0,0.0,0.0,0.0,0.0,0.0,0.0,0.0,0.0,0.0,0.0,0.0,0.0,0.0,0.0,0.0,0.0,0.0,0.0,0.0,0.0,0.0,0.0,0.0,0.0,0.0,0.0,0.0,0.0,0.0,0.0,0.0,0.0,0.0,3.9437,3.9507,3.963,3.9985,3.9655,3.9421,3.9403,3.832,3.7521,0.0,0.0,0.0,0.0,0.0,0.0,0.0,0.0,0.0,0.0,0.0,0.0,0.0,0.0,0.0,0.0,0.0,0.0,0.0,0.0,0.0,0.0,0.0,0.0,0.0,0.0,0.0,0.0,0.0,0.0,0.0,0.0,0.0,0.0,0.0,0.0,0.0,0.0,0.0,0.0,0.0,0.0,0.0,0.0,0.0,0.0,0.0,0.0,0.0,0.0,0.0,0.0,0.0,0.0,0.0,0.0,0.0,0.0,0.0,0.0,0.0,0.0,0.0,0.0,0.0,0.0,0.0,0.0,0.0,0.0,0.0,0.0,0.0,0.0,0.0,0.0,0.0,0.0,0.0,0.0,0.0,0.0,0.0,0.0,0.0,0.0,0.0,0.0,0.0,0.0,0.0,0.0,0.0,0.0,0.0,0.0,0.0,0.0,0.0,0.0,0.0,0.0,0.0,4.0108,4.0419,4.0648,4.09,4.0793,4.0569,4.0144,3.9253,3.8434,3.7774,0.0,0.0,0.0,0.0,0.0,0.0,0.0,0.0,0.0,0.0,0.0,0.0,0.0,0.0,0.0,0.0,0.0,0.0,0.0,0.0,0.0,0.0,0.0,0.0,0.0,0.0,0.0,0.0,0.0,0.0,0.0,0.0,0.0,0.0,0.0,0.0,0.0,0.0,0.0,0.0,0.0,0.0,0.0,0.0,0.0,0.0,0.0,0.0,0.0,0.0,0.0,0.0,0.0,0.0,0.0,0.0,0.0,0.0,0.0,0.0,0.0,0.0,0.0,0.0,0.0,0.0,0.0,0.0,0.0,0.0,0.0,0.0,0.0,0.0,0.0,0.0,0.0,0.0,0.0,0.0,0.0,0.0,0.0,0.0,0.0,0.0,0.0,0.0,0.0,0.0,0.0,0.0,0.0,0.0,0.0,0.0,0.0,0.0,0.0,0.0,0.0,0.0,4.0408,4.0843,4.1092,4.1067,4.0982,4.0752,4.0315,3.9779,3.9034,3.8083,0.0,0.0,0.0,0.0,0.0,0.0,0.0,0.0,0.0,0.0,0.0,0.0,0.0,0.0,0.0,0.0,0.0,0.0,0.0,0.0,0.0,0.0,0.0,0.0,0.0,0.0,0.0,0.0,0.0,0.0,0.0,0.0,0.0,0.0,0.0,0.0,0.0,0.0,0.0,0.0,0.0,0.0,0.0,0.0,0.0,0.0,0.0,0.0,0.0,0.0,0.0,0.0,0.0,0.0,0.0,0.0,0.0,0.0,0.0,0.0,0.0,0.0,0.0,0.0,0.0,0.0,0.0,0.0,0.0,0.0,0.0,0.0,0.0,0.0,0.0,0.0,0.0,0.0,0.0,0.0,0.0,0.0,0.0,0.0,0.0,0.0,0.0,0.0,0.0,0.0,0.0,0.0,0.0,0.0,0.0,0.0,0.0,0.0,0.0,0.0,0.0,0.0,4.0579,4.0999,4.1226,4.093,4.0676,4.0479,4.0329,4.0014,3.9419,3.8422,0.0,0.0,0.0,0.0,0.0,0.0,0.0,0.0,0.0,0.0,0.0,0.0,0.0,0.0,0.0,0.0,0.0,0.0,0.0,0.0,0.0,0.0,0.0,0.0,0.0,0.0,0.0,0.0,0.0,0.0,0.0,0.0,0.0,0.0,0.0,0.0,0.0,0.0,0.0,0.0,0.0,0.0,0.0,0.0,0.0,0.0,0.0,0.0,0.0,0.0,0.0,0.0,0.0,0.0,0.0,0.0,0.0,0.0,0.0,0.0,3.9169,0.0,0.0,0.0,0.0,0.0,0.0,0.0,0.0,0.0,0.0,0.0,0.0,0.0,0.0,0.0,0.0,0.0,0.0,0.0,0.0,0.0,0.0,0.0,0.0,0.0,0.0,0.0,0.0,0.0,0.0,0.0,0.0,0.0,0.0,0.0,0.0,0.0,0.0,0.0,0.0,0.0,4.1844,4.1733,4.1833,4.2432,4.198,4.1707,4.1829,4.0741,3.995,3.9705,0.0,0.0,0.0,0.0,0.0,0.0,0.0,0.0,0.0,0.0,0.0,0.0,0.0,0.0,0.0,0.0,0.0,0.0,0.0,0.0,0.0,0.0,0.0,0.0,0.0,0.0,0.0,0.0,0.0,0.0,0.0,0.0,0.0,0.0,0.0,0.0,0.0,0.0,0.0,0.0,0.0,0.0,0.0,0.0,0.0,0.0,0.0,0.0,0.0,0.0,0.0,0.0,0.0,0.0,0.0,0.0,0.0,0.0,0.0,0.0,0.0,4.0371,0.0,0.0,0.0,0.0,0.0,0.0,0.0,0.0,0.0,0.0,0.0,0.0,0.0,0.0,0.0,0.0,0.0,0.0,0.0,0.0,0.0,0.0,0.0,0.0,0.0,0.0,0.0,0.0,0.0,0.0,0.0,0.0,0.0,0.0,0.0,0.0,0.0,0.0,0.0,0.0,4.2148,4.2494,4.2827,4.307,4.2783,4.2596,4.2586,4.1496,4.0654,4.0266,3.8824,0.0,0.0,0.0,0.0,0.0,0.0,0.0,0.0,0.0,0.0,0.0,0.0,0.0,0.0,0.0,0.0,0.0,0.0,0.0,0.0,0.0,0.0,0.0,0.0,0.0,0.0,0.0,0.0,0.0,0.0,0.0,0.0,0.0,0.0,0.0,0.0,0.0,0.0,0.0,0.0,0.0,0.0,0.0,0.0,0.0,0.0,0.0,0.0,0.0,0.0,0.0,0.0,0.0,0.0,4.4823,4.5295,4.5268,4.524,4.5145,4.3905,4.2922,4.2168,0.0,0.0,0.0,0.0,0.0,0.0,0.0,0.0,0.0,0.0,0.0,0.0,0.0,0.0,0.0,0.0,0.0,0.0,0.0,0.0,0.0,0.0,0.0,0.0,0.0,4.1001,4.0539,0.0,0.0,0.0,0.0,0.0,0.0,0.0,0.0,0.0,0.0,0.0,0.0,4.2403,4.3176,4.3654,4.3329,4.3155,4.3044,4.2929,4.2149,4.1311,4.055,3.9717,3.8511,0.0,0.0,0.0,0.0,0.0,0.0,0.0,0.0,0.0,0.0,0.0,0.0,0.0,0.0,0.0,0.0,0.0,0.0,0.0,0.0,0.0,0.0,0.0,0.0,0.0,0.0,0.0,0.0,0.0,0.0,0.0,0.0,3.4675,3.6182,0.0,0.0,0.0,0.0,0.0,0.0,0.0,0.0,0.0,0.0,0.0,0.0,0.0,0.0,4.5967,4.6044,4.6323,4.68,4.6786,4.684,4.688,4.68,4.6622,4.6443,4.6142,0.0,4.4408,4.3759,0.0,0.0,0.0,0.0,0.0,0.0,0.0,0.0,0.0,0.0,0.0,0.0,0.0,0.0,0.0,0.0,0.0,0.0,0.0,0.0,0.0,0.0,4.2425,4.2931,4.262,4.2168,0.0,4.1564,4.1124,4.0895,0.0,0.0,0.0,0.0,0.0,0.0,0.0,0.0,4.3667,4.3444,4.3386,4.3681,4.3031,4.2716,4.3054,4.2273,4.1505,4.0869,4.0239,3.9554,3.878,3.7186,0.0,0.0,0.0,0.0,0.0,0.0,0.0,0.0,0.0,0.0,0.0,0.0,0.0,0.0,0.0,0.0,0.0,0.0,0.0,0.0,0.0,0.0,0.0,0.0,0.0,0.0,0.0,0.0,0.0,3.5223,3.6202,3.7697,3.8299,3.8984,0.0,0.0,0.0,0.0,0.0,0.0,0.0,0.0,0.0,4.5719,4.6134,4.6748,4.7509,4.7509,4.7977,4.8946,4.8874,4.9021,4.9351,4.918,4.9021,4.8942,4.8879,4.8588,4.8017,4.6026,4.5173,4.5082,0.0,0.0,0.0,0.0,0.0,4.2989,4.2989,0.0,0.0,0.0,0.0,0.0,0.0,0.0,0.0,0.0,0.0,0.0,0.0,0.0,0.0,4.439,4.4302,4.4033,4.4061,4.3832,4.3268,0.0,4.2389,4.2832,4.2624,0.0,0.0,0.0,0.0,0.0,4.3856,4.4169,4.4386,4.4434,4.3952,4.3685,4.3867,4.2802,4.2025,4.175,4.1037,4.018,3.9246,3.8431,3.7672,0.0,0.0,0.0,0.0,0.0,0.0,0.0,0.0,0.0,0.0,0.0,0.0,0.0,0.0,0.0,0.0,0.0,0.0,0.0,0.0,0.0,0.0,0.0,0.0,0.0,0.0,0.0,0.0,3.7054,3.7901,3.9254,4.0122,4.0886,0.0,0.0,0.0,0.0,0.0,0.0,4.5329,4.6563,4.7251,4.7286,4.8042,4.8669,4.9108,4.9082,4.9535,5.0482,5.0528,5.0754,5.1228,5.1246,5.1245,5.1161,5.1111,5.0977,5.0576,4.8154,4.7085,4.6973,4.6773,4.6327,4.575,4.575,4.5326,4.4724,4.4724,4.4522,4.4289,4.4289,0.0,4.4041,4.435,0.0,0.0,0.0,0.0,4.4333,4.4822,0.0,4.4591,4.5334,4.5483,4.5455,4.5463,4.5569,4.5107,0.0,4.3432,4.3834,4.3709,0.0,0.0,0.0,0.0,4.4612,4.4358,4.4916,4.5236,4.5042,4.4799,4.4655,4.4655,4.3427,4.2576,4.2463,4.1605,4.0657,3.9604,3.9276,3.8686,3.7801,0.0,0.0,0.0,0.0,0.0,0.0,0.0,0.0,0.0,0.0,0.0,0.0,0.0,0.0,0.0,0.0,0.0,0.0,0.0,0.0,0.0,0.0,0.0,0.0,0.0,0.0,0.0,0.0,0.0,4.0699,4.1459,0.0,0.0,0.0,0.0,4.5039,4.5672,4.6355,4.7039,4.7796,4.8582,4.9334,5.0051,5.0726,5.1335,5.1144,5.1017,5.0973,5.1447,5.1714,5.1781,5.2467,5.2697,5.2489,5.2294,5.1737,5.0905,4.9876,4.9226,4.8779,4.81,4.7589,4.7273,4.7273,4.7257,4.7224,4.7224,4.7089,4.6905,4.6905,4.6648,4.6282,4.5992,4.576,0.0,0.0,4.5977,4.5839,4.6343,4.6291,4.5991,4.5656,4.5869,4.6087,4.5913,4.6299,4.6256,0.0,4.4155,4.3892,4.3892,0.0,4.4955,4.4702,4.5491,4.6013,4.5717,4.5502,4.5385,4.5385,4.5189,4.5091,4.5091,4.4017,4.3098,4.2509,4.1676,4.0917,4.028,3.9211,3.8598,3.8545,3.7372,0.0,0.0,0.0,0.0,0.0,0.0,0.0,0.0,0.0,0.0,0.0,0.0,0.0,0.0,0.0,0.0,0.0,0.0,0.0,0.0,0.0,0.0,0.0,0.0,0.0,0.0,0.0,0.0,4.1922,4.3177,0.0,0.0,4.5384,4.6369,4.7142,4.7865,4.8587,4.9353,5.0089,5.0509,5.0597,5.1294,5.191,5.2388,5.2808,5.3209,5.3643,5.3701,5.3746,5.3728,5.3723,5.371,5.3636,5.3432,5.317,5.2838,5.2529,5.1179,4.9363,4.9082,4.8915,4.8794,4.8672,4.855,4.8426,4.8285,4.8106,4.7927,4.7786,4.7549,4.7292,4.7063,4.6806,4.6754,4.7071,4.7071,4.7097,4.7675,4.7661,4.7503,4.7619,4.7533,4.7374,4.7096,4.7085,4.6881,4.6051,4.5913,4.5843,4.5681,4.5747,4.5721,4.5457,4.5553,4.5635,4.5536,4.5495,4.5436,4.5436,4.5081,4.485,4.485,4.4107,4.3444,4.2881,4.2515,4.1906,4.0922,4.0494,3.9907,3.9139,3.834,3.7718,0.0,0.0,0.0,0.0,0.0,0.0,0.0,0.0,0.0,0.0,0.0,0.0,0.0,0.0,0.0,0.0,0.0,0.0,0.0,0.0,0.0,0.0,0.0,0.0,0.0,0.0,4.2373,4.3376,4.4811,4.5821,4.6095,4.7121,4.8103,4.8852,4.9542,5.0227,5.0973,5.1701,5.213,5.2135,5.2859,5.3379,5.3656,5.4053,5.4482,5.491,5.4944,5.4914,5.4872,5.4853,5.4837,5.4818,5.4638,5.4372,5.4065,5.3955,5.2609,5.0635,5.0782,5.0746,5.0598,5.0455,5.0324,5.0174,4.9923,4.9675,4.945,4.9256,4.9099,4.8922,4.8644,4.8464,4.8356,4.8367,4.8269,4.8219,4.8643,4.8529,4.8334,4.8401,4.8342,4.8248,4.8,4.7892,4.7803,4.7634,4.7108,4.6639,4.6397,4.6297,4.6166,4.5893,4.5784,4.5692,4.559,4.5561,4.5519,4.5519,4.5233,4.4996,4.4996,4.4385,4.3829,4.3456,4.3168,4.2562,4.1582,4.1344,4.0764,3.9759,3.9296,3.8758,3.8178,0.0,0.0,0.0,0.0,0.0,0.0,0.0,0.0,0.0,0.0,0.0,0.0,0.0,0.0,0.0,0.0,0.0,0.0,0.0,0.0,0.0,0.0,0.0,4.0607,4.3145,4.4988,4.5091,4.6354,4.7534,4.8255,4.8719,4.9312,5.0121,5.0556,5.1112,5.1865,5.2585,5.3287,5.4006,5.4742,5.5126,5.5141,5.4977,5.4793,5.4622,5.5127,5.5284,5.5103,5.5824,5.6151,5.6132,5.5912,5.53,5.4462,5.4188,5.3567,5.2765,5.314,5.3008,5.2597,5.2597,5.2576,5.2496,5.2088,5.18,5.155,5.134,5.1276,5.1192,5.0722,5.0571,5.0484,5.0034,4.9598,4.9246,4.9253,4.8912,4.8481,4.791,4.8262,4.8682,4.8499,4.8742,4.9074,4.9426,4.7714,4.6192,4.5922,4.6198,4.636,4.5999,4.6206,0.0,4.606,4.5822,4.5635,4.5635,4.5635,4.5635,4.5608,4.4838,4.4309,4.4283,4.3468,4.2762,4.2213,4.1638,4.1013,4.0412,4.0053,3.9594,3.909,0.0,0.0,0.0,0.0,0.0,0.0,0.0,0.0,0.0,0.0,0.0,0.0,0.0,0.0,0.0,0.0,0.0,0.0,0.0,0.0,0.0,0.0,4.3274,4.3504,4.4081,4.5105,4.6678,4.7619,4.8417,4.9175,4.9851,5.0742,5.2034,5.2234,5.2852,5.414,5.4374,5.4521,5.4595,5.531,5.5794,5.6021,5.6531,5.6922,5.719,5.7346,5.7384,5.7323,5.7397,5.7297,5.7089,5.6912,5.6583,5.621,5.6114,5.5836,5.5251,5.3478,5.2717,5.2576,5.2272,5.1944,5.1654,5.1529,5.1445,5.1318,5.0915,5.0786,5.07,5.0223,4.9982,4.9926,5.0073,5.0232,5.0366,5.026,5.0486,5.0618,5.0094,4.9753,4.9566,4.9502,4.9253,4.897,4.8598,4.8052,4.7614,4.7535,4.7645,4.754,4.7001,0.0,0.0,4.6943,4.6696,4.6531,4.6531,4.6391,4.6095,4.5647,4.5355,4.4801,4.3725,4.3411,4.2941,4.2161,4.1955,4.1441,4.0488,3.9583,3.9039,0.0,0.0,0.0,0.0,0.0,0.0,0.0,0.0,0.0,0.0,0.0,0.0,0.0,0.0,0.0,0.0,0.0,0.0,0.0,0.0,0.0,0.0,4.3127,4.4721,4.6113,4.6163,4.6529,4.7822,4.8817,4.9824,5.0861,5.1295,5.2096,5.3583,5.3556,5.3965,5.5129,5.5103,5.5274,5.5756,5.6186,5.6645,5.7144,5.7591,5.7884,5.8083,5.8083,5.7978,5.779,5.7664,5.7494,0.0,5.7109,5.6936,5.6718,5.6718,5.6511,0.0,0.0,0.0,0.0,0.0,5.3218,5.289,5.2759,5.2639,5.2484,5.2105,5.1902,5.1744,5.1386,5.1109,5.0913,5.09,5.0996,5.1062,5.0871,5.0915,5.0946,5.051,5.0065,4.9726,4.9765,4.9443,4.9036,4.8814,0.0,0.0,4.8449,4.8076,4.7699,4.734,4.7202,4.7118,0.0,4.6784,4.6503,4.6503,4.6276,4.5922,4.5611,4.5585,0.0,0.0,0.0,4.3497,4.2513,4.2231,0.0,0.0,0.0,4.0184,4.0184,0.0,0.0,0.0,3.8495,3.8178,0.0,0.0,0.0,0.0,0.0,0.0,0.0,0.0,0.0,0.0,0.0,0.0,0.0,0.0,0.0,0.0,4.4336,4.5459,4.8054,4.8606,4.8789,4.8821,5.0042,5.1378,5.2799,5.2806,5.3331,5.4712,5.451,5.4631,5.546,0.0,0.0,0.0,0.0,5.7552,5.8296,5.8296,5.8225,5.8081,5.8081,5.7827,5.7399,5.7399,5.7301,5.7083,5.7083,5.692,5.6645,5.6645,5.6378,5.5951,5.5988,5.5911,5.5686,5.5414,5.5185,0.0,0.0,0.0,0.0,5.3921,5.3682,5.3417,5.318,5.2856,5.2482,5.2013,5.1719,5.1526,5.1164,5.0753,5.0392,5.0078,4.9786,4.955,4.9639,4.9361,4.919,4.9447,4.9269,4.8952,4.8635,4.7963,4.7415,4.736,4.7136,4.6994,4.6938,4.6486,4.6145,4.6145,0.0,0.0,4.5613,4.5588,4.5383,4.4789,4.4658,4.4145,4.315,4.2457,4.2126,4.2126,4.2022,4.1997,4.1997,4.1513,4.1309,4.1284,3.9775,3.9083,0.0,0.0,0.0,0.0,0.0,0.0,0.0,0.0,0.0,0.0,0.0,0.0,0.0,0.0,0.0,4.3789,4.5845,4.7531,4.782,4.9389,5.0634,5.0892,5.1415,5.208,5.299,5.3414,5.401,5.4884,5.4892,5.5391,5.667,5.6728,0.0,5.7945,5.7978,5.8255,5.8838,5.887,5.8917,5.9022,0.0,0.0,5.8655,5.8655,5.8521,5.8264,5.8264,5.8015,5.7625,5.7625,5.7324,5.6754,5.5865,5.5414,5.5193,5.4939,5.4676,5.4418,5.4159,5.404,5.3921,5.3471,5.3301,5.3155,5.2689,5.2218,0.0,5.169,5.1683,5.1566,5.101,5.119,5.1367,5.0822,5.0298,4.9936,4.9904,4.948,4.9049,4.8897,4.8808,4.8577,4.7997,4.8192,4.8234,4.7687,4.7571,4.7454,4.7166,4.7019,4.696,4.696,4.6902,4.6718,4.6254,4.6232,4.5885,4.5065,4.4355,4.3885,4.3658,4.27,4.2173,4.2173,4.169,4.1436,4.1436,4.1363,4.1312,4.1287,4.0975,4.0799,0.0,0.0,0.0,0.0,0.0,0.0,0.0,0.0,0.0,0.0,0.0,4.121,0.0,0.0,4.4345,4.5565,4.6991,4.8249,4.9084,5.0445,5.1418,5.1564,5.2064,5.2842,5.3926,5.429,5.4887,5.5955,5.5954,5.6384,5.7429,5.7392,5.7667,5.8395,5.8289,5.8539,5.9144,5.9067,5.9053,5.9152,5.9152,5.9017,5.8792,5.8792,5.8655,5.8427,5.8312,5.8127,5.7871,5.7613,5.7251,5.6831,5.6182,5.5833,5.5722,5.5603,5.5387,5.5092,5.4679,5.4532,5.4458,5.3913,5.3638,5.3491,5.3085,5.2675,5.2287,5.2,5.1834,5.1634,5.1202,5.1098,5.11,5.0956,5.0529,5.0238,5.039,5.0036,4.9711,4.9564,4.9268,4.8942,4.8617,4.8677,4.8496,4.7604,4.7442,4.7383,4.7235,4.7083,4.6993,4.6993,4.6845,4.6654,4.637,4.6095,4.5758,4.5333,4.4605,4.4217,4.4217,4.3547,4.3215,4.3215,4.2469,4.2112,4.2112,4.1839,4.1839,4.2112,4.2091,4.1733,0.0,0.0,0.0,0.0,0.0,0.0,0.0,0.0,3.9746,4.018,4.1337,4.257,4.3695,4.4145,4.5083,4.7292,4.7868,4.8672,5.0383,5.1343,5.1894,5.1988,5.2697,5.3637,5.4815,5.5136,5.577,5.6894,5.698,5.7247,5.7953,5.7816,5.8012,5.8658,5.8515,5.8695,5.9241,5.9223,5.9174,5.9128,5.9256,5.9184,5.8923,5.8885,5.877,5.8584,5.8279,5.8138,5.8114,5.7559,5.7221,5.7002,5.6764,5.6671,5.656,5.6341,5.6077,5.578,5.528,5.5078,5.4926,5.4329,5.3993,5.3792,5.3567,5.328,5.2934,5.2588,5.2234,5.1904,5.1655,5.1153,5.081,5.0931,5.0663,5.0474,5.0661,5.0439,5.0225,5.0225,4.9742,4.9259,4.9224,4.8984,4.8493,4.7577,4.7449,4.7419,4.7359,4.7069,4.6868,4.6868,4.6527,4.6271,4.621,4.5809,4.5529,4.547,4.489,4.459,4.459,4.4256,4.409,4.409,4.3407,4.3069,4.3069,4.2627,4.2651,4.3069,4.3069,4.247,3.6803,3.6923,3.7041,3.7209,3.7376,3.7844,0.0,0.0,4.0001,4.1966,4.2931,4.3598,4.421,4.5397,4.6519,4.7323,4.8535,4.963,5.033,5.1583,5.2582,5.3071,5.3909,5.4568,5.4731,5.569,5.6399,5.6561,5.7156,5.7731,5.8226,5.8247,5.846,5.8934,5.8921,5.8953,5.9017,5.9612,5.9795,5.9642,6.0247,6.036,6.0123,5.9861,5.9717,5.9724,5.9238,5.9042,5.8993,5.8472,5.8246,5.8196,5.7867,5.7586,5.723,5.6104,5.5506,5.5229,5.4955,5.4671,5.4304,5.3762,5.3553,5.3538,5.3581,5.318,5.2825,5.3304,5.3049,5.2536,5.2276,5.1929,5.158,5.1341,5.0809,5.0416,5.0439,4.9954,4.9529,4.9529,4.9198,4.8861,4.8584,4.8491,4.841,4.8283,4.8257,4.8165,4.7856,4.7392,4.7085,4.7085,4.6602,4.618,4.5878,4.5798,4.5627,4.5324,4.4831,4.4511,4.4511,4.4038,4.3762,4.3762,4.3659,4.3605,4.3605,4.3531,4.3531,4.3605,4.3605,4.3536,3.7039,3.7484,3.8018,3.843,3.8863,3.9448,4.0446,4.0887,4.147,4.2841,4.3581,4.4267,4.5338,4.6372,4.7388,0.0,4.9373,5.0395,5.1317,5.2318,5.3162,5.3656,5.4447,5.5089,5.551,5.5977,5.6582,5.727,5.7592,5.8062,5.868,5.869,5.8796,5.8972,5.9252,5.9384,5.9384,5.9914,6.0146,6.0052,6.0337,6.0321,6.0057,5.9968,5.975,5.9456,5.929,5.9043,5.8743,5.8486,5.8182,5.7849,5.7721,5.7385,5.6986,5.6603,5.629,5.6035,5.5562,5.519,5.4871,5.4498,5.4255,5.4013,5.3693,5.3444,5.322,5.3104,5.2758,5.241,5.2091,5.1769,5.1441,5.1283,5.1058,5.0834,5.0807,5.0607,5.0328,5.0115,4.9828,4.9545,4.9393,4.9236,4.9077,4.9077,4.8523,4.8063,4.7908,4.7676,4.7488,4.7296,4.6797,4.6351,4.6013,4.5686,4.5453,4.53,4.5079,4.4956,4.4956,4.4554,4.4365,4.4365,4.3843,4.3583,4.3583,4.3322,4.3322,4.3583,4.3373,4.3451,3.763,3.8196,3.8857,3.9564,4.0172,4.0753,4.1399,4.2071,4.2739,4.3462,4.4239,4.5128,4.6143,4.7026,4.7987,4.905,4.9845,5.0765,5.2028,5.2793,5.3405,5.3934,5.4773,5.5567,5.6231,5.6306,5.6755,5.7798,5.8086,5.8384,5.8882,5.8882,5.8933,5.9088,5.9414,5.967,5.986,6.0289,6.0485,6.0485,6.0602,6.0551,6.0362,6.0288,6.0017,5.9649,5.9574,5.9322,5.894,5.8756,5.8447,5.803,5.7873,5.7613,5.7241,5.7295,5.6951,5.6385,5.5847,5.5496,5.5226,5.487,5.4509,5.4204,5.3838,5.3638,5.3408,5.3053,5.2758,5.2434,5.2109,5.1755,5.1503,5.1469,5.1329,5.1157,5.1137,5.0962,5.0741,5.0518,5.02,4.9944,4.9944,4.9751,4.959,4.959,4.8887,4.8385,4.8385,4.814,4.7827,4.73,4.6897,4.655,4.6207,4.5839,4.5484,4.5244,4.5244,4.5171,4.5025,4.4779,4.4656,4.4656,4.403,4.3684,4.3569,4.324,4.3203,4.3416,4.3194,4.3291,3.9607,3.9818,4.0047,4.0772,4.0969,4.1165,4.1835,4.2541,4.3279,4.403,4.5324,4.629,4.6141,4.7232,4.8352,4.8918,4.9645,5.0584,5.2009,5.2675,5.3246,5.3914,5.5066,5.5975,0.0,5.672,5.717,5.7862,5.8556,5.886,5.8633,5.8633,5.8836,5.9278,5.9286,5.9602,6.0289,6.075,6.0973,6.0973,6.1358,6.1545,6.152,6.1272,6.099,6.0732,6.0472,6.0342,6.029,5.9709,5.9469,5.9389,5.885,5.8632,5.858,5.8,5.693,5.5794,5.5525,5.5226,5.4925,5.4315,5.3895,5.3669,5.3998,5.3671,5.328,5.3495,5.3325,5.2991,5.2685,5.2346,5.2068,5.2063,5.1565,5.1094,5.1088,5.0582,5.0129,5.0129,4.9847,4.9622,4.9622,4.9622,4.959,4.959,4.9565,4.954,4.954,4.8825,4.7926,4.7002,4.6897,4.677,4.6397,4.6397,4.5995,4.514,4.5116,4.4876,4.434,4.4316,4.4316,4.4316,4.4292,4.4113,4.3778,4.3778,4.3623,4.3302,4.3302,4.3302,3.9713,4.021,4.0805,4.1493,4.1657,4.1984,4.3211,4.3577,4.4021,4.5228,4.5766,4.6284,4.719,4.8114,4.8954,4.9613,5.0714,5.1757,5.2611,5.3286,5.3833,5.4218,5.507,0.0,0.0,0.0,0.0,5.8137,5.8423,5.8504,5.8413,5.8801,5.9135,5.9317,6.0035,6.0529,6.075,6.1201,6.139,6.1421,6.1337,6.1334,6.1334,6.1052,6.0794,6.0534,6.0429,6.0167,5.9796,5.9583,5.9288,5.8936,5.8776,5.8445,5.8059,5.7641,5.707,5.6497,5.6442,5.6077,5.5567,5.5166,5.4791,5.447,5.4193,5.3803,5.3438,5.3295,5.3014,5.2707,5.2368,5.2183,5.1996,5.1528,5.1277,5.0962,5.0518,5.0257,5.0008,4.9815,4.9687,4.959,4.959,4.959,4.9525,4.9299,4.9267,4.9267,4.9267,4.8818,4.8288,4.7678,4.7304,4.6956,4.6633,4.6287,4.5934,4.5638,4.5614,4.5541,4.5373,4.5373,4.5278,4.5024,4.5024,4.484,4.4465,4.4465,4.4424,4.4296,4.4071,4.3974,4.0304,4.08,4.1395,4.2033,4.2391,4.2863,4.3809,4.4349,4.4903,4.5797,4.6102,4.6568,4.7781,4.8558,4.9238,4.9969,5.124,5.2308,5.2932,5.3459,5.3939,5.4359,5.5206,5.5859,0.0,0.0,0.0,5.8289,5.8297,5.8274,5.8182,5.8766,5.9223,5.938,6.0366,6.0982,6.1201,6.1395,6.1436,6.1334,6.1129,6.1052,6.1052,6.0871,6.0638,6.0377,6.0298,5.9955,5.9503,5.9395,5.9099,5.8694,5.8555,5.8225,5.7753,5.7332,5.6964,5.6709,5.6595,5.625,5.5758,5.5437,5.5026,5.4582,5.4074,5.3682,5.3319,5.2861,5.2584,5.2342,5.2027,5.1841,5.1622,5.1214,5.0931,5.0614,5.0193,5.0033,4.9847,4.9622,4.959,4.959,4.959,4.9493,4.9364,4.9137,4.8877,4.8714,4.8714,4.8543,4.8248,4.7861,4.7513,4.7221,4.6992,4.668,4.6383,4.619,4.6166,4.6062,4.5741,4.5741,4.5548,4.5169,4.5169,4.5007,4.4617,4.4617,4.4552,4.4431,4.4225,4.4061,4.1417,4.1644,4.1823,4.2505,4.3185,4.3703,4.38,4.4852,4.5824,4.5856,4.6407,4.7136,0.0,0.0,4.9238,5.0034,5.1191,5.2196,5.2892,5.3248,5.3681,0.0,0.0,0.0,0.0,0.0,0.0,5.8274,0.0,5.8182,5.7934,5.857,5.914,5.9641,6.0278,6.0933,6.1557,6.1308,6.1052,6.0794,6.0794,6.0794,6.0794,6.0794,6.0638,6.0351,6.0092,5.98,5.9476,5.918,5.8909,5.8637,5.8335,5.8031,5.7669,5.7107,5.668,5.6365,5.6048,5.5729,5.5408,5.5085,5.4582,5.4044,5.3682,5.3319,5.2922,5.2276,5.209,5.1996,5.1659,5.134,5.1088,5.1057,5.055,5.0097,5.0097,4.9815,4.959,4.959,4.959,4.959,4.9558,4.9299,4.9105,4.904,4.8453,4.7993,4.7993,4.7993,4.7861,4.753,4.7497,4.7497,4.7497,4.7497,4.7281,4.6776,4.6719,4.634,4.5514,4.5458,4.5264,4.485,4.485,4.4687,4.4383,4.4383,4.4196,4.3877,4.3844,4.3702,4.1547,4.197,4.2505,4.3249,4.3573,4.3962,4.5046,4.5532,4.5953,4.6521,4.678,4.7298,0.0,0.0,0.0,5.0714,5.1933,0.0,5.2685,5.3528,0.0,5.4178,0.0,5.6211,5.6211,5.7475,0.0,0.0,5.7988,5.8091,5.8332,5.9027,5.9721,6.0334,6.0794,6.1127,6.1308,6.1026,6.0871,6.0794,6.0794,6.0794,6.0794,6.0586,6.0381,6.0065,5.9773,5.9449,5.918,5.8909,5.8609,5.8307,5.8031,5.7585,5.7078,5.668,5.6365,5.6019,5.5437,5.5203,5.5085,5.4788,5.4431,5.3984,5.3379,5.2983,5.2646,5.2214,5.1934,5.1627,5.1309,5.1151,5.0962,5.0455,5.02,5.0008,4.9783,4.9654,4.959,4.959,4.959,4.9525,4.9267,4.917,4.891,4.8355,4.8125,4.7993,4.7993,4.7795,4.7597,4.7497,4.7497,4.7497,4.7497,4.7497,4.7449,4.7305,4.7073,4.6803,4.6618,4.6295,4.5996,4.5629,4.5629,4.5461,4.5114,4.5114,4.5057,4.499,4.4686,4.4516,4.2035,4.2311,4.278,4.3508,4.3945,4.4464,4.5565,4.605,4.6407,4.6812,4.691,4.7313,4.8753,4.9012,0.0,0.0,0.0,0.0,5.2585,5.3309,5.3904,0.0,5.5335,0.0,5.6211,5.7384,5.7988,0.0,5.7825,5.8013,5.8294,5.9009,5.9675,6.0233,6.0763,6.1026,6.1026,6.0871,6.0794,6.0794,6.0664,6.0612,6.0612,6.0355,6.0065,5.9773,0.0,5.9288,5.8909,5.8746,5.8417,5.7974,5.7697,5.7304,5.6851,5.6394,5.6048,5.57,5.5173,5.4819,5.4582,5.4431,5.4071,5.3561,5.3044,5.2646,5.2337,5.197,5.1627,5.134,5.1151,5.0867,5.055,5.0193,5.0001,4.9815,4.9622,4.959,4.959,4.959,4.9461,4.9332,4.9137,4.8845,4.8486,4.8059,4.7861,4.7762,4.7762,4.763,4.7497,4.7497,4.7497,4.7497,4.7497,4.7497,4.7431,4.7298,4.7098,4.6831,4.653,4.6294,4.6025,4.5686,4.5686,4.5585,4.5404,4.521,4.5142,4.5142,4.4732,4.4491,4.2586,4.2586,4.2813,4.3638,4.4334,4.4982,4.5759,4.6439,4.691,4.691,4.691,4.7313,4.8753,4.9012,4.9465,5.0959,0.0,5.1829,5.2521,5.2867,5.3344,5.4008,5.5335,5.6211,5.6211,5.7216,5.7778,5.7543,5.7778,5.8003,5.8175,5.8894,5.9475,5.9927,6.0486,6.0794,6.0794,6.0794,6.0768,6.0742,6.0508,6.0377,6.0324,6.0065,5.9773,5.9503,0.0,0.0,5.8721,5.8637,5.8307,5.7753,5.7388,5.7078,5.6766,5.6135,5.57,5.5379,5.4997,5.4522,5.4044,5.4044,5.3592,5.3041,5.2646,5.2337,5.2027,5.1627,5.134,5.1088,5.0994,5.0518,5.0097,5.004,4.9815,4.959,4.959,4.959,4.959,4.959,4.9407,4.9172,4.9139,4.8625,4.8212,4.8145,4.7913,4.7714,4.7714,4.7593,4.7497,4.7497,4.7497,4.7497,4.7497,4.7464,4.7298,4.7022,4.6898,4.6563,4.5923,4.5856,4.5686,4.5404,4.5404,4.5347,4.5313,4.4971,4.4766,4.4732,4.4376,4.4031,4.2586,4.2586,4.291,4.4269,4.469,4.5128,4.6424,4.6812,0.0,0.0,4.691,4.7313,4.8753,4.9012,4.9465,5.0959,5.1418,5.1829,5.2521,5.2867,5.3344,0.0,5.5335,5.6211,0.0,0.0,0.0,0.0,0.0,0.0,5.8646,5.933,5.9983,6.0609,6.0732,6.0794,6.0794,6.0794,6.069,6.0481,6.0429,6.0272,6.0039,5.9747,5.9556,5.9503,0.0,0.0,5.8694,5.8417,5.8086,5.7753,5.7191,5.6766,5.6394,5.5816,5.5379,5.4997,5.4463,5.4014,5.3682,5.3682,5.341,5.301,5.2368,5.2152,5.1965,5.1372,5.1151,5.0962,5.0423,5.0193,5.0033,4.9751,4.9622,4.959,4.959,4.959,4.959,4.959,4.9699,4.9636,4.9314,4.9282,4.9237,4.8932,4.8864,4.883,4.883,4.805,4.7497,4.7497,4.7497,4.7497,4.7497,4.7232,4.7065,4.6998,4.6429,4.6025,4.5923,4.5619,4.5449,4.5404,4.5404,4.5244,4.4903,4.4834,4.4663,4.4376,4.3997,4.3789,4.2586,4.2586,4.2942,4.4431,4.4804,4.5176,4.6586,0.0,0.0,4.691,4.691,4.7234,4.8267,4.8753,4.9368,5.0455,5.0966,5.1551,5.2457,5.2652,5.3038,5.3998,5.5335,5.6144,0.0,0.0,0.0,0.0,0.0,0.0,5.8787,5.9773,6.0455,6.0794,6.0794,6.0794,6.0794,6.0664,6.0534,6.0403,6.0088,5.9849,5.9747,5.9422,5.9288,5.9288,5.8991,0.0,5.8417,5.8114,5.7725,5.7276,5.6823,5.6451,5.6106,5.5467,5.5026,5.4728,5.4254,5.3773,5.3288,5.3136,5.2861,5.2523,5.2214,5.1872,5.1497,5.1183,5.0836,5.0487,5.0168,4.9944,4.9783,4.9622,4.9816,5.0117,5.0419,5.0469,5.0436,5.0214,5.0132,4.9939,4.9511,4.9393,4.929,4.9119,4.9119,4.9119,4.9119,4.8628,4.8219,4.7954,4.7666,4.7431,4.7232,4.7065,4.6831,4.6463,4.6092,4.5822,4.5652,4.5483,4.5278,4.5074,4.5074,4.4903,4.4526,4.4319,4.4147,4.3997,4.3615,4.3337,4.2586,4.2586,4.2926,4.4237,4.469,4.5128,4.6391,4.678,0.0,4.691,4.691,4.7136,4.7864,4.8558,4.9238,0.0,5.0526,5.1302,5.2445,5.2447,5.273,0.0,5.5335,0.0,5.5821,0.0,0.0,0.0,0.0,0.0,5.9218,6.0209,6.0794,6.0794,6.0794,6.0794,6.0794,6.0534,6.0377,6.0298,5.977,5.9476,5.9395,5.9207,5.9072,5.8991,5.8803,0.0,0.0,5.7809,5.7389,5.6851,5.648,5.6135,5.5816,5.5311,5.4922,5.4651,5.4369,5.388,5.3324,5.2988,5.2492,5.209,5.2027,5.1669,5.127,5.1206,5.0832,5.0452,5.0388,5.0161,4.9967,4.9967,5.0293,5.072,5.1197,5.1239,5.1072,5.0779,5.0441,5.0132,4.9835,4.959,4.9421,4.9421,4.9421,4.9421,4.9421,4.9359,4.9084,4.8574,4.8012,4.76,4.7331,4.7187,4.6826,4.6249,4.6147,4.593,4.5564,4.5496,4.5222,4.48,4.4732,4.4526,4.4169,4.3858,4.3685,4.358,4.3232,4.2918,4.2586,4.2586,4.278,4.3605,4.4302,4.4982,4.5726,0.0,4.691,4.691,4.691,4.7136,4.7864,4.8558,4.9238,4.9969,5.0526,5.1302,5.2445,5.2447,5.273,5.3966,0.0,0.0,5.5821,0.0,0.0,0.0,0.0,0.0,0.0,6.0732,6.0794,6.0794,6.0794,6.0794,6.0794,6.0534,6.0302,6.0012,5.9663,5.9369,5.9126,5.9099,5.8964,5.8748,0.0,0.0,0.0,5.7472,5.7162,5.6851,5.625,5.5816,5.5551,5.5458,5.5257,5.4944,5.4874,5.4593,5.4213,5.3805,5.2965,5.2027,5.1721,5.1767,5.1826,5.1479,5.1514,5.156,5.1254,5.1155,5.1122,5.1122,5.1205,5.1222,5.1306,5.1014,5.0721,5.0712,5.0533,5.0395,5.0336,5.046,5.0551,5.0551,5.0551,5.0551,5.0551,5.0154,4.9678,4.9246,4.8735,4.8392,4.8357,4.7736,4.7353,4.7284,4.6969,4.6575,4.6081,4.5747,4.5334,4.48,4.4491,4.4169,4.3732,4.3719,4.3546,4.3254,4.2826,4.2651,4.2505,4.2586,4.278,4.3508,4.4237,4.4998,4.5662,0.0,4.691,4.691,4.691,4.7007,4.7281,4.8235,4.9109,4.94,5.0348,5.1437,5.2465,5.2536,5.3033,5.4535,5.5588,0.0,0.0,0.0,0.0,0.0,0.0,0.0,0.0,6.0794,6.0794,6.0794,6.0794,6.0716,6.056,6.0302,6.0012,5.972,5.9395,5.9207,5.9099,5.9099,5.8936,5.8694,0.0,0.0,0.0,5.7276,5.688,5.6537,5.5932,5.5721,5.57,5.5348,5.5193,5.515,5.4957,5.4532,5.4022,5.3836,5.32,5.2482,5.2354,5.2246,5.2128,5.1743,5.1568,5.1472,5.1339,5.1306,5.1373,5.1699,5.1774,5.1875,5.2201,5.1979,5.1672,5.1398,5.1097,5.0815,5.0605,5.0657,5.0696,5.0696,5.0696,5.0696,5.0696,5.0503,5.0218,4.983,4.8999,4.8327,4.7876,4.7563,4.7318,4.7108,4.6967,4.6723,4.6236,4.6073,4.5701,4.4984,4.4575,4.4197,4.3824,4.3272,4.2966,4.2826,4.2441,4.2124,4.2502,4.2697,4.2794,4.3329,4.4026,4.4723,0.0,0.0,4.665,4.6845,4.691,4.691,4.691,4.8058,4.9012,4.9012,5.039,5.1759,5.2517,5.2809,5.3476,5.4915,0.0,0.0,0.0,0.0,0.0,0.0,0.0,0.0,0.0,6.0794,6.0794,6.0794,6.0716,6.0586,6.0403,6.0039,5.9747,5.9503,5.9234,5.9099,5.9099,5.9018,5.8828,5.8527,0.0,0.0,0.0,5.6965,5.6566,5.6221,5.578,5.5674,5.5733,5.5572,5.5488,5.5429,5.5305,5.4847,5.4299,5.4202,5.3779,5.3287,5.3188,5.2789,5.233,5.2098,5.1925,5.1774,5.1774,5.1774,5.1875,5.2251,5.2352,5.2418,5.2692,5.2481,5.2074,5.1691,5.1306,5.0989,5.0731,5.0696,5.0696,5.0696,5.0696,5.0696,5.0696,5.059,5.0377,4.9961,4.9156,4.8451,4.7923,4.7782,4.7605,4.7357,4.7215,4.6968,4.6524,4.631,4.5828,4.51,4.4683,4.4294,4.3937,4.3154,4.2761,4.2599,4.2082,4.1594,4.2658,4.2899,4.2899,4.2899,4.3453,4.4138,4.4707,4.5338,4.6018,4.6748,4.691,4.691,4.691,4.8058,4.9012,4.9012,5.0792,5.2275,5.2561,5.3224,5.4018,0.0,0.0,0.0,0.0,0.0,0.0,0.0,0.0,0.0,0.0,6.0794,6.0794,6.0794,6.0534,6.0403,6.0403,5.9796,5.9503,5.9503,5.9234,5.9099,5.9072,5.8857,5.8527,0.0,0.0,0.0,0.0,5.6537,5.625,5.6017,5.5933,5.5677,5.5511,5.644,5.6342,5.5811,5.6016,5.5875,5.5538,5.5172,5.4813,5.4418,5.4106,5.3351,5.259,5.259,5.275,5.287,5.287,5.287,5.287,5.2895,5.2895,5.2801,5.2481,5.2099,5.1691,5.1282,5.0919,5.0696,5.0696,5.0696,5.0696,5.0696,5.0696,5.0696,5.0696,5.0353,4.9961,4.9544,4.9209,4.898,4.898,4.8631,4.8377,4.8377,4.8013,4.7568,4.6997,4.6287,4.5666,4.51,4.4763,4.4402,4.4004,4.353,4.3114,4.2663,4.1861,4.1081,4.2106,4.2629,4.3036,4.3036,4.3592,4.4264,4.4805,4.5488,4.617,4.6765,4.691,4.7039,4.7572,4.8397,4.9174,4.9659,5.1135,5.2275,0.0,0.0,0.0,5.5664,0.0,0.0,0.0,0.0,0.0,0.0,0.0,0.0,0.0,6.0794,6.0794,6.0794,6.0534,6.0298,6.0118,5.969,5.9395,5.9234,5.9126,5.8991,5.88,5.8748,0.0,0.0,0.0,0.0,0.0,5.6336,5.6187,5.6231,5.58,5.5927,5.6327,5.6201,5.6068,5.599,5.5815,5.5538,5.5199,5.4805,5.4443,5.4072,5.3759,5.3453,5.3165,5.2892,5.2847,5.2895,5.2895,5.2895,5.2895,5.2895,5.2895,5.2826,5.2481,5.2099,5.1656,5.1282,5.0919,5.0696,5.0696,5.0696,5.0696,5.0696,5.0696,5.059,5.0341,5.0175,4.9854,4.9232,4.9052,4.8871,4.8618,4.8473,4.8268,4.8013,4.7868,4.7471,4.6742,4.6485,4.6161,4.5728,4.5018,4.461,4.4463,4.348,4.2604,4.1928,4.1074,4.0525,4.1873,4.2646,4.3204,4.3204,4.3565,0.0,4.4837,4.5375,4.5911,4.6717,4.691,4.7136,4.7864,4.8558,4.9238,4.9969,5.1466,0.0,0.0,0.0,0.0,5.6034,0.0,0.0,0.0,0.0,0.0,0.0,0.0,0.0,0.0,0.0,6.0742,6.0638,6.0377,6.0118,5.9827,5.9503,5.9261,5.9099,5.8991,5.8855,5.8694,5.8445,0.0,0.0,0.0,0.0,0.0,5.6562,5.6433,5.6549,5.6313,5.6407,5.6745,5.6293,5.6132,5.6066,5.5703,5.5398,5.5032,5.4645,5.4174,5.3725,5.3375,5.3273,5.3238,5.2964,5.2895,5.2895,5.2895,5.2895,5.2895,5.2895,5.2792,5.2619,5.2273,5.1866,5.1446,5.1095,5.0837,5.0696,5.0696,5.0696,5.0696,5.0696,5.0554,5.0377,5.0139,4.9854,4.952,4.9052,4.8871,4.8618,4.8196,4.8159,4.805,4.7831,4.7538,4.7112,4.6633,4.6299,4.6039,4.5779,4.5088,4.4661,4.4513,4.3229,4.2186,4.1348,4.0661,4.0185,0.0,4.2777,4.3353,4.3386,4.3419,4.369,4.4788,4.5033,0.0,4.6652,4.6942,4.7184,4.7961,4.8623,4.9335,5.0131,5.1804,0.0,0.0,5.3753,0.0,0.0,0.0,0.0,0.0,0.0,0.0,0.0,0.0,0.0,0.0,0.0,6.0638,6.0377,6.0118,5.98,5.9503,5.9234,5.9099,5.9099,5.8857,5.8694,5.8666,5.8117,0.0,0.0,0.0,0.0,0.0,5.707,5.6903,5.6943,5.7187,5.7064,5.6763,5.6693,5.6394,5.6033,5.567,5.5365,5.5032,5.4611,5.403,5.3375,5.2998,5.2895,5.2895,5.2895,5.2895,5.2895,5.2895,5.2895,5.2895,5.2895,5.2654,5.2308,5.189,5.1481,5.1095,5.0767,5.0696,5.0696,5.0696,5.0696,5.0696,5.066,5.0341,5.0068,5.0033,4.9412,4.9003,4.8944,4.8618,4.8196,4.7831,4.7794,4.7794,4.7721,4.7002,4.6559,4.6522,4.5816,4.5405,4.5368,4.4955,4.4541,4.4088,4.2895,4.1844,4.1008,4.0565,3.9938,4.1385,0.0,4.2841,4.3421,4.3553,4.386,0.0,4.5211,4.5555,4.6669,4.7346,4.7961,4.8656,4.9335,5.026,5.1491,0.0,0.0,5.3393,0.0,0.0,0.0,0.0,0.0,0.0,0.0,0.0,0.0,0.0,0.0,0.0,0.0,6.0351,6.0092,5.98,5.9583,5.9503,5.9234,5.9099,5.9099,5.8857,5.8555,5.8307,5.8446,0.0,0.0,0.0,0.0,5.7664,5.7124,5.7032,5.7187,5.7009,5.6832,5.6661,5.634,5.6033,5.567,5.5332,5.5165,5.4998,5.4335,5.3623,5.3033,5.2929,5.2895,5.2895,5.2895,5.2895,5.2895,5.2895,5.2895,5.2895,5.2895,5.2654,5.2308,5.189,5.1481,5.1095,5.0767,5.0696,5.0696,5.0696,5.0696,5.059,5.0306,5.0139,4.989,4.934,4.9088,4.8871,4.8582,4.8159,4.7904,4.7794,4.7794,4.7538,4.6928,4.6707,4.6336,4.5704,4.5518,4.5256,4.4955,4.4541,4.3995,4.3272,4.2631,4.1895,4.105,4.0301,3.9645,4.1143,4.1924,4.2686,4.3414,4.3845,4.4317,4.5126,4.5554,4.6012,4.6751,4.7475,4.8202,4.8882,4.9594,5.0515,0.0,5.2486,0.0,0.0,0.0,0.0,0.0,0.0,0.0,0.0,0.0,0.0,0.0,0.0,0.0,0.0,0.0,6.0193,5.98,5.9885,5.975,5.9315,5.948,5.9466,5.9329,5.9381,5.9193,5.8884,5.8953,0.0,0.0,0.0,0.0,5.8166,5.7586,5.7487,5.7697,5.7322,5.6998,5.6649,5.6263,5.5901,5.5538,5.5232,5.4898,5.4503,5.4132,5.3487,5.2895,5.2895,5.2895,5.2895,5.2895,5.2895,5.2895,5.2895,5.2895,5.2861,5.2723,5.2412,5.2005,5.1621,5.1236,5.0919,5.0731,5.0696,5.0696,5.0696,5.0554,5.0353,5.0139,4.9818,4.9448,4.9052,4.8835,4.8582,4.8159,4.7941,4.7648,4.7281,4.7075,4.678,4.6336,4.6151,4.5779,4.5143,4.4955,4.4579,4.3995,4.3767,4.3348,4.2736,4.2301,4.1731,4.1081,4.0251,3.9593,4.103,4.1858,4.2553,4.3381,4.4158,4.481,4.5225,4.5848,4.6535,4.6978,4.7637,4.8364,4.9044,4.9835,0.0,0.0,0.0,0.0,0.0,0.0,0.0,0.0,0.0,0.0,0.0,0.0,0.0,0.0,0.0,0.0,0.0,0.0,0.0,5.9529,6.0108,6.0063,5.9249,5.988,6.0043,5.9737,5.999,5.997,5.9682,5.9452,5.9159,0.0,0.0,0.0,5.8664,5.8079,5.7948,5.8103,5.7752,5.7206,5.6584,5.623,5.5868,5.5472,5.5132,5.457,5.3997,5.3929,5.3452,5.2895,5.2895,5.2895,5.2895,5.2895,5.2895,5.2895,5.2895,5.2895,5.2826,5.2481,5.2099,5.1691,5.1282,5.0919,5.0696,5.0696,5.0696,5.066,5.0625,5.0341,5.0068,4.9961,4.9412,4.8944,4.8835,4.8509,4.8159,4.7758,4.7648,4.7318,4.6559,4.6151,4.5853,4.5742,4.548,4.5106,4.4654,4.4239,4.3691,4.2927,4.2889,4.2697,4.2293,4.1966,4.1555,4.0984,4.0192,3.9573,4.103,4.1494,4.1891,4.3282,4.4158,4.481,4.5225,4.5848,4.665,4.7642,4.8364,4.9076,4.9807,5.0855,5.1901,0.0,0.0,0.0,0.0,0.0,0.0,0.0,0.0,0.0,0.0,0.0,0.0,0.0,0.0,0.0,0.0,0.0,0.0,5.9503,5.9918,6.0082,5.9937,6.0345,6.0504,6.0448,5.9997,5.974,5.9712,5.9682,5.9439,0.0,0.0,5.9197,5.8659,5.8281,5.7988,5.7752,5.7399,5.6817,5.6197,5.6132,5.5703,5.5132,5.4712,5.4309,5.3963,5.3682,5.3273,5.2895,5.2895,5.2895,5.2895,5.2895,5.2895,5.2895,5.2895,5.2895,5.2826,5.2481,5.2099,5.1691,5.1282,5.0919,5.0696,5.0696,5.0696,5.059,5.0246,5.0139,4.989,4.9268,4.9052,4.8763,4.805,4.7941,4.7758,4.7355,4.6965,4.6596,4.6114,4.5742,4.5218,4.4504,4.473,4.4541,4.3805,4.3386,4.2966,4.2485,4.2485,4.2293,4.1889,4.185,4.1401,4.0584,3.9775,3.916,4.1058,4.1394,4.1858,4.3727,4.466,4.5149,4.5258,4.6388,4.7478,4.7917,4.885,4.9784,5.0351,0.0,5.2311,5.3544,0.0,0.0,0.0,0.0,0.0,0.0,0.0,0.0,0.0,0.0,0.0,0.0,0.0,0.0,0.0,0.0,0.0,0.0,6.0351,6.0721,6.0909,6.1223,6.1227,6.0873,6.0764,6.0559,6.0234,6.0255,5.9978,5.9489,0.0,5.9298,5.8672,5.8325,5.8007,5.7656,5.7109,5.659,5.6066,5.567,5.5365,5.5032,5.4645,5.4275,5.3929,5.3614,5.3238,5.2895,5.2895,5.2895,5.2895,5.2895,5.2895,5.2895,5.2895,5.2757,5.255,5.2169,5.1761,5.1376,5.0989,5.0802,5.0696,5.0696,5.0519,5.0341,5.0139,4.9747,4.9376,4.9052,4.8618,4.8196,4.7831,4.7612,4.7318,4.6928,4.6522,4.6114,4.5704,4.5106,4.4579,4.4201,4.3995,4.3653,4.3272,4.2889,4.2505,4.2062,4.2082,4.1753,4.1094,4.1094,4.0763,4.0163,3.9338,3.8861,4.1105,4.1527,4.2142,4.4146,4.5063,4.5515,4.5553,4.6926,4.8222,4.8223,4.9188,5.0227,0.0,5.1713,0.0,5.4317,0.0,0.0,0.0,0.0,0.0,0.0,0.0,0.0,0.0,0.0,0.0,0.0,0.0,0.0,0.0,0.0,0.0,0.0,6.0661,6.1178,6.1575,6.185,6.1733,6.1233,6.1409,6.1195,6.0681,6.0621,6.0255,5.9699,5.9544,5.9111,5.8546,5.823,5.788,5.7528,5.6942,5.6394,5.5901,5.5332,5.5099,5.5032,5.4544,5.4208,5.3929,5.3512,5.3136,5.2895,5.2895,5.2895,5.2895,5.2895,5.2895,5.2895,5.2895,5.2654,5.2308,5.189,5.1481,5.113,5.0767,5.0696,5.066,5.059,5.0282,5.0033,4.9854,4.9376,4.8944,4.8763,4.8196,4.7721,4.7538,4.7245,4.6854,4.6374,4.6039,4.563,4.5031,4.4315,4.3881,4.3784,4.3195,4.2812,4.2697,4.2428,4.2023,4.1502,4.1502,4.1094,4.0353,4.0353,4.0216,3.9883,3.8973,3.8538,4.1238,4.1891,4.2741,4.4096,4.4954,4.5647,4.6209,4.7302,4.8352,4.8821,0.0,0.0,0.0,5.2617,5.3671,0.0,0.0,0.0,0.0,0.0,0.0,0.0,0.0,0.0,0.0,0.0,0.0,0.0,0.0,0.0,0.0,0.0,0.0,0.0,0.0,6.0951,6.1575,6.1616,6.1614,6.1555,6.1344,6.1043,6.0681,6.0377,6.004,5.9668,5.9017,5.8578,5.8198,5.788,5.7528,5.7206,5.6844,5.6263,5.5571,5.5232,5.5099,5.4998,5.4301,5.403,5.3895,5.3145,5.2929,5.2895,5.2895,5.2895,5.2895,5.2895,5.2895,5.2895,5.2895,5.2654,5.2308,5.189,5.1481,5.113,5.0767,5.0696,5.059,5.0211,5.0104,4.989,4.9196,4.9016,4.8763,4.7977,4.7831,4.7538,4.678,4.667,4.6336,4.5555,4.548,4.4993,4.3843,4.331,4.2927,4.2562,4.2485,4.2254,4.1889,4.185,4.1463,4.0627,4.0588,4.0392,3.9941,3.9941,3.9941,3.9883,3.8684,3.8137,4.1266,4.2289,4.3502,4.4755,4.5582,4.6209,4.678,4.7831,4.8875,4.9548,5.0448,0.0,0.0,0.0,0.0,0.0,0.0,0.0,0.0,0.0,0.0,0.0,0.0,0.0,0.0,0.0,0.0,0.0,0.0,0.0,0.0,0.0,0.0,0.0,0.0,6.093,6.1586,6.1585,6.1405,6.1044,6.0923,6.0712,6.0377,6.004,5.9702,5.9361,5.8892,5.8515,5.8166,5.7848,5.7496,5.7141,5.6557,5.5901,5.5265,5.5132,5.5099,5.4998,5.4267,5.3997,5.3895,5.3136,5.2895,5.2895,5.2895,5.2895,5.2895,5.2895,5.2895,5.2861,5.2654,5.2308,5.1925,5.1516,5.113,5.0873,5.0731,5.0519,5.0282,5.0139,4.9711,4.934,4.9052,4.8582,4.8123,4.7831,4.7369,4.6854,4.6299,4.6002,4.563,4.5106,4.4579,4.3995,4.3272,4.2621,4.2197,4.2043,4.2043,4.185,4.1385,4.1094,4.0705,4.0137,4.0137,3.9941,3.9548,3.9548,3.926,3.8706,3.7995,3.753,4.1346,4.2653,4.4197,4.5186,4.6077,4.6912,4.7603,4.8421,4.9252,5.0135,5.1424,5.2637,5.348,0.0,0.0,0.0,0.0,0.0,0.0,0.0,0.0,0.0,0.0,0.0,0.0,0.0,0.0,0.0,0.0,0.0,0.0,0.0,0.0,0.0,0.0,6.0789,6.1584,6.1524,6.1224,6.0681,6.059,6.0377,6.004,5.9794,5.9482,5.9017,5.8672,5.8357,5.8007,5.7688,5.727,5.6785,5.6197,5.5604,5.5099,5.5099,5.5099,5.4998,5.4267,5.3997,5.3895,5.3136,5.2895,5.2895,5.2895,5.2895,5.2895,5.2895,5.2826,5.2654,5.2308,5.203,5.1716,5.1306,5.0919,5.066,5.0554,5.0282,5.0033,4.9783,4.934,4.8908,4.8654,4.8159,4.7721,4.7465,4.6817,4.6262,4.5853,4.548,4.4993,4.4466,4.3805,4.3195,4.2659,4.1966,4.154,4.1424,4.1269,4.1113,4.0919,4.0509,4.0118,3.9706,3.9706,3.9509,3.9075,3.9075,3.8695,3.7998,3.7458,3.698,4.1479,4.3032,4.481,4.5208,4.6372,4.7677,4.876,4.9012,4.936,5.0574,5.2193,5.3554,5.4019,0.0,0.0,0.0,0.0,0.0,0.0,0.0,0.0,0.0,0.0,0.0,0.0,0.0,0.0,0.0,0.0,0.0,0.0,0.0,0.0,0.0,0.0,0.0,6.1584,6.1314,6.1043,6.0681,6.0347,6.001,5.9699,5.9699,5.9329,5.8672,5.8357,5.8007,5.7656,5.7335,5.6752,5.6066,5.5736,5.5398,5.5099,5.5099,5.5099,5.4998,5.4267,5.3997,5.3895,5.3136,5.2895,5.2895,5.2895,5.2895,5.2895,5.2895,5.2654,5.2308,5.189,5.1786,5.1691,5.1282,5.0919,5.059,5.0175,5.0104,4.989,4.9124,4.898,4.8727,4.7941,4.7794,4.7538,4.6707,4.6262,4.5853,4.5443,4.5031,4.4466,4.3691,4.3233,4.2659,4.185,4.1346,4.0919,4.0509,4.0137,4.0059,4.047,4.0098,3.9706,3.9312,3.9312,3.9075,3.86,3.86,3.838,3.7959,3.7169,3.6559,4.1479,4.3396,4.5438,4.5339,4.6749,4.83,4.8857,4.9678,5.0729,0.0,5.3425,5.4243,5.4725,0.0,0.0,0.0,0.0,0.0,0.0,0.0,0.0,0.0,0.0,0.0,0.0,0.0,0.0,0.0,0.0,0.0,0.0,0.0,0.0,0.0,0.0,0.0,6.0616,6.0752,6.0681,6.0347,6.001,5.9823,5.9699,5.9482,5.9111,5.8672,5.8357,5.8007,5.7656,5.7077,5.6557,5.6066,5.5736,5.5398,5.5099,5.5099,5.5099,5.4998,5.4267,5.3997,5.3895,5.3136,5.2895,5.2895,5.2895,5.2895,5.2861,5.2619,5.2481,5.2213,5.1551,5.1376,5.1306,5.0943,5.0767,5.059,5.0175,4.989,4.9544,4.9088,4.8546,4.8086,4.7831,4.7332,4.678,4.6262,4.5853,4.533,4.4654,4.3957,4.3424,4.3195,4.2544,4.1927,4.1346,4.0899,4.0509,4.0098,3.9706,3.9548,3.9647,3.9548,3.9272,3.8798,3.8521,3.8322,3.8163,3.7615,3.7138,3.6725,3.6195,3.5765,4.1844,4.3701,4.5675,4.57,4.7288,4.9124,5.019,0.0,0.0,0.0,5.4274,5.4885,5.5645,0.0,0.0,0.0,0.0,0.0,0.0,0.0,0.0,0.0,0.0,0.0,0.0,0.0,0.0,0.0,0.0,0.0,0.0,0.0,0.0,0.0,0.0,0.0,5.9623,6.0081,6.0095,5.9639,5.9681,5.9575,5.9298,5.908,5.8829,5.8483,5.8007,5.7688,5.7431,5.6752,5.6328,5.6066,5.5571,5.5299,5.5099,5.5099,5.4998,5.4772,5.42,5.3895,5.3691,5.3101,5.2895,5.2895,5.2895,5.2895,5.2826,5.2515,5.2273,5.2005,5.1352,5.1095,5.0954,5.0731,5.059,5.0353,4.9961,4.9568,4.9137,4.8618,4.8123,4.7685,4.7392,4.678,4.6225,4.5816,4.5143,4.4428,4.3805,4.3157,4.2697,4.2544,4.1927,4.1346,4.0899,4.0353,3.9922,3.9666,3.9114,3.8798,3.8798,3.8798,3.864,3.8362,3.7964,3.7765,3.7765,3.7094,3.6585,3.6177,3.5634,3.5131,4.246,4.4022,4.5631,4.6258,4.7952,5.001,5.2128,5.2649,5.3047,5.4232,0.0,5.5509,0.0,0.0,0.0,0.0,0.0,0.0,0.0,0.0,0.0,0.0,0.0,0.0,0.0,0.0,0.0,0.0,0.0,0.0,0.0,0.0,0.0,0.0,0.0,0.0,5.8695,5.9269,5.9314,0.0,5.93,5.927,5.8704,5.8704,5.8483,5.8103,5.7463,5.7174,5.7077,5.6394,5.6099,5.6,5.5365,5.5099,5.5099,5.5099,5.4839,5.4443,5.4106,5.3759,5.3444,5.3033,5.2895,5.2895,5.2895,5.2895,5.2792,5.2446,5.2064,5.1656,5.1271,5.0884,5.0625,5.0625,5.0377,4.9997,4.9544,4.9173,4.8727,4.7941,4.7758,4.7465,4.667,4.6225,4.5779,4.5293,4.4277,4.3386,4.3004,4.2582,4.2177,4.1773,4.1308,4.088,4.0431,3.9726,3.9272,3.9193,3.8441,3.7964,3.7964,3.7964,3.7964,3.7964,3.7565,3.7308,3.7312,3.6843,3.6415,3.6008,3.5236,3.4696,4.309,4.4418,4.5779,4.688,4.8991,5.1111,5.2333,5.3033,5.3761,5.4738,5.5484,0.0,0.0,0.0,0.0,0.0,0.0,0.0,0.0,0.0,0.0,0.0,0.0,0.0,0.0,0.0,0.0,0.0,0.0,0.0,0.0,0.0,0.0,5.7985,5.8256,5.8262,5.8032,5.8401,5.8676,0.0,5.8661,5.8631,5.8704,5.8704,5.8357,5.7784,5.7367,5.7044,5.6779,5.6295,5.5934,5.567,5.5265,5.5099,5.5099,5.5099,5.4839,5.4443,5.4106,5.3759,5.3444,5.3033,5.2895,5.2895,5.2895,5.2723,5.2446,5.2064,5.1621,5.1271,5.0908,5.0495,5.0211,5.0211,5.0139,4.9926,4.9268,4.8799,4.84,4.7904,4.7318,4.6707,4.6225,4.5816,4.5181,4.4125,4.35,4.2966,4.2562,4.2197,4.1773,4.1308,4.086,4.0353,3.9608,3.9391,3.8996,3.8322,3.8123,3.7845,3.7565,3.7525,3.7525,3.7525,3.7085,3.6705,3.6469,3.5748,3.5154,3.4774,3.428,3.4036,4.3702,4.4753,4.5848,4.769,4.9862,5.1714,5.2421,5.3111,5.3934,5.5338,5.5847,0.0,0.0,0.0,0.0,0.0,0.0,0.0,0.0,0.0,0.0,0.0,0.0,0.0,0.0,0.0,0.0,0.0,0.0,0.0,0.0,5.8031,5.7725,5.7585,5.7595,5.7455,5.7139,5.7449,5.7808,5.8128,5.8104,5.8119,5.823,5.823,5.7944,5.7431,5.727,5.7039,5.6682,5.6263,5.5901,5.5571,5.5232,5.5099,5.5065,5.4872,5.4604,5.4208,5.3895,5.3546,5.317,5.2964,5.2895,5.2861,5.2723,5.255,5.2273,5.1691,5.1376,5.113,5.0802,5.0412,5.0068,4.9854,4.9675,4.9484,4.9088,4.8546,4.7977,4.7612,4.6854,4.6188,4.5779,4.5068,4.4239,4.3424,4.2812,4.2351,4.2159,4.1559,4.1055,4.0821,4.0275,3.9765,3.9351,3.8917,3.8481,3.8044,3.7605,3.7285,3.7085,3.6885,3.6885,3.7045,3.6644,3.623,3.5872,3.5077,3.445,3.4115,3.3496,3.3213,4.4381,4.5448,4.6518,4.85,5.0577,5.217,5.2529,5.3093,5.4063,5.5844,0.0,0.0,0.0,0.0,0.0,0.0,0.0,0.0,0.0,0.0,0.0,0.0,0.0,0.0,0.0,0.0,0.0,0.0,0.0,0.0,5.8169,5.7892,5.7613,5.7303,5.705,5.6737,5.6394,5.6617,5.6975,5.7378,5.771,5.7823,5.7688,5.7624,5.7463,5.7206,5.7141,5.6942,5.6584,5.6164,5.5835,5.5472,5.5199,5.5099,5.5065,5.4645,5.4275,5.3963,5.3614,5.3238,5.2895,5.2895,5.2861,5.2757,5.2481,5.2283,5.204,5.1387,5.1141,5.1025,5.0696,5.0282,4.989,4.9509,4.9101,4.8799,4.8799,4.8196,4.7575,4.7149,4.6374,4.563,4.5181,4.4201,4.3348,4.2851,4.2236,4.1734,4.1579,4.0938,4.047,4.0314,3.9687,3.9233,3.9114,3.8402,3.7924,3.7805,3.7085,3.6661,3.6621,3.6218,3.6103,3.6396,3.6075,3.5646,3.5174,3.4447,3.392,3.359,3.2889,3.2588,4.5114,4.7292,4.9001,4.9004,5.0932,5.28,5.2625,0.0,5.4634,0.0,0.0,0.0,0.0,0.0,0.0,0.0,0.0,0.0,0.0,0.0,0.0,0.0,0.0,0.0,0.0,0.0,0.0,0.0,0.0,0.0,5.7864,5.7528,5.736,5.7303,5.705,5.6737,5.6394,5.622,5.6551,5.7407,5.791,5.7988,5.7688,5.7399,5.7238,5.7174,5.6909,5.6524,5.6164,5.5802,5.5472,5.5165,5.5132,5.5099,5.5065,5.4645,5.4275,5.3963,5.3614,5.3238,5.2895,5.2895,5.2688,5.2481,5.2412,5.19,5.1317,5.1211,5.0989,5.0696,5.0282,4.989,4.9473,4.916,4.8486,4.7941,4.7941,4.7612,4.7171,4.6743,4.5742,4.473,4.3974,4.3424,4.2812,4.2082,4.1889,4.154,4.0783,4.0588,4.0236,3.9529,3.9333,3.8977,3.8243,3.8084,3.7685,3.6925,3.6782,3.654,3.6178,3.5716,3.5362,3.5145,3.5065,3.4698,3.3934,3.353,3.3149,3.2747,3.2659,3.2588,4.5017,4.7521,4.9509,4.9102,5.0902,5.2737,5.2637,5.3436,5.4611,0.0,0.0,0.0,0.0,0.0,0.0,0.0,0.0,0.0,0.0,0.0,0.0,0.0,0.0,0.0,0.0,0.0,0.0,0.0,0.0,5.8057,5.7809,5.7472,5.7219,5.7078,5.6794,5.648,5.6164,5.5874,5.6055,5.6773,5.7555,5.7752,5.7399,5.727,5.7206,5.7174,5.6844,5.6459,5.6066,5.5736,5.5398,5.5099,5.5099,5.4939,5.4738,5.4343,5.403,5.3682,5.3307,5.3033,5.2861,5.2688,5.2515,5.2317,5.1866,5.1457,5.1141,5.0954,5.0636,5.0317,5.0139,4.964,4.9124,4.8763,4.8196,4.7685,4.7222,4.6965,4.6596,4.5779,4.4993,4.4201,4.3386,4.2927,4.2467,4.1889,4.1366,4.0938,4.0548,4.0118,3.9687,3.9351,3.8877,3.8441,3.8044,3.7565,3.7085,3.6742,3.6241,3.5878,3.5716,3.511,3.4605,3.4199,3.4439,3.4196,3.3397,3.3054,3.2659,3.2261,3.2031,3.1916,4.5158,4.7501,4.9456,4.9084,5.0697,5.2373,5.2565,0.0,5.4229,0.0,0.0,0.0,0.0,0.0,0.0,0.0,0.0,0.0,0.0,0.0,0.0,0.0,0.0,0.0,0.0,0.0,0.0,0.0,0.0,5.8029,5.7697,5.7444,5.7162,5.6908,5.6595,5.6279,5.6019,5.5921,5.6005,5.6314,5.7271,5.7528,5.7206,5.7206,5.7141,5.7044,5.6687,5.6328,5.5967,5.5604,5.5332,5.5099,5.4998,5.4772,5.4443,5.403,5.3691,5.3444,5.3033,5.2861,5.2723,5.2481,5.2248,5.197,5.1387,5.1141,5.0989,5.066,5.0341,5.0068,4.9854,4.9412,4.8871,4.8364,4.7941,4.7428,4.6633,4.6374,4.5965,4.4843,4.4315,4.3805,4.3004,4.2505,4.2062,4.154,4.0899,4.0431,4.0236,3.9647,3.9233,3.8996,3.8402,3.7924,3.7685,3.7045,3.6621,3.6379,3.5757,3.5302,3.5137,3.4468,3.3876,3.3361,3.356,3.3418,3.2855,3.2485,3.2152,3.184,3.1433,3.1241,4.6159,4.7792,4.9245,4.9048,5.0343,5.1797,0.0,0.0,0.0,0.0,0.0,0.0,0.0,0.0,0.0,0.0,0.0,0.0,0.0,0.0,0.0,0.0,0.0,0.0,0.0,0.0,0.0,0.0,0.0,5.7946,5.736,5.7303,5.7162,5.6908,5.6595,5.6279,5.6019,5.6527,5.6657,5.6314,5.7271,5.7528,5.7206,5.7206,5.7012,5.6714,5.6295,5.5934,5.5604,5.5265,5.5132,5.5065,5.4679,5.4511,5.441,5.3759,5.3512,5.3444,5.3033,5.2688,5.2446,5.2412,5.1866,5.1247,5.1211,5.0989,5.0625,5.0246,5.0104,4.9926,4.9232,4.9039,4.8799,4.8013,4.7538,4.7002,4.6188,4.5742,4.5218,4.439,4.3919,4.3386,4.2562,4.212,4.1521,4.0705,4.0548,4.0236,3.9469,3.9351,3.8996,3.8163,3.8044,3.7685,3.6862,3.6742,3.6362,3.5514,3.5433,3.508,3.4408,3.3878,3.3312,3.2647,3.2257,3.199,3.1958,3.1624,3.1449,3.1433,3.101,3.0817,4.6258,4.7825,4.9245,4.9048,5.0311,5.1765,5.2437,5.2844,5.3481,0.0,0.0,0.0,0.0,0.0,0.0,0.0,0.0,0.0,0.0,0.0,0.0,0.0,0.0,0.0,0.0,0.0,0.0,0.0,0.0,0.0,5.7331,5.7303,5.7078,5.6566,5.6451,5.6193,5.5671,5.6252,5.644,5.6314,5.705,5.7303,5.7174,5.7006,5.6655,5.6295,5.5934,5.5703,5.5571,5.5232,5.4939,5.4679,5.4578,5.4241,5.3827,5.358,5.3341,5.3067,5.2688,5.2515,5.2317,5.1796,5.1422,5.1141,5.0919,5.0601,5.0282,5.0139,4.9747,4.934,4.9052,4.8618,4.8013,4.7245,4.6522,4.5891,4.5368,4.5106,4.4767,4.3974,4.35,4.2966,4.2159,4.1657,4.1152,4.0588,4.004,3.9608,3.9351,3.8838,3.8362,3.8044,3.7485,3.7045,3.6742,3.6201,3.5716,3.5433,3.4673,3.4129,3.3878,3.3,3.2292,3.1786,3.1386,3.1198,3.1198,3.1073,3.0856,3.057,3.0415,3.0338,4.652,4.7722,4.8881,4.8965,4.9957,5.1145,5.2053,0.0,5.3039,0.0,0.0,0.0,0.0,0.0,0.0,0.0,0.0,0.0,0.0,0.0,0.0,0.0,0.0,0.0,0.0,0.0,0.0,0.0,0.0,0.0,5.7331,5.7303,5.7021,5.6423,5.6193,5.5874,5.5349,5.5982,5.6255,5.6159,5.6859,5.7206,5.7174,5.6844,5.6459,5.6099,5.5736,5.5538,5.5432,5.5199,5.4872,5.4511,5.4376,5.3997,5.3478,5.3341,5.3136,5.2861,5.2515,5.2308,5.2099,5.1422,5.113,5.0989,5.0767,5.0412,5.0068,4.9961,4.946,4.8944,4.8835,4.8196,4.7428,4.6743,4.6002,4.5293,4.488,4.4692,4.4352,4.3539,4.3081,4.2582,4.1927,4.1308,4.0744,4.0353,3.9745,3.9193,3.8917,3.8362,3.7884,3.7605,3.7045,3.6563,3.6282,3.5716,3.5221,3.4804,3.4049,3.3443,3.3057,3.2158,3.1504,3.1144,3.0771,3.0508,3.0353,3.0508,3.0415,3.009,2.9935,2.9819,0.0,0.0,0.0,4.885,4.9268,4.9898,5.1286,0.0,5.2207,0.0,0.0,0.0,0.0,0.0,0.0,0.0,0.0,0.0,0.0,0.0,0.0,0.0,0.0,0.0,0.0,0.0,0.0,0.0,0.0,5.764,5.7331,5.7275,5.6993,5.6423,5.5816,5.5349,5.4997,5.5861,5.6159,5.5936,5.6763,5.7174,5.7174,5.6844,5.6459,5.6066,5.5736,5.5398,5.5099,5.5099,5.4839,5.4443,5.4106,5.3759,5.3444,5.3033,5.2895,5.2826,5.2515,5.2134,5.1716,5.1341,5.0954,5.0696,5.0696,5.0412,4.9997,4.958,4.9245,4.8871,4.8473,4.7794,4.7075,4.667,4.5965,4.5256,4.488,4.4466,4.3957,4.3119,4.2659,4.2254,4.185,4.1055,4.0353,3.9941,3.9548,3.8956,3.8123,3.7964,3.7645,3.6782,3.6701,3.6339,3.5474,3.5376,3.4861,3.3693,3.3564,3.3057,3.1951,3.1496,3.1105,3.0755,3.0299,2.9873,2.9484,2.9912,3.009,3.0052,2.9679,2.9251,4.7005,0.0,0.0,0.0,0.0,0.0,5.1401,5.1434,5.1627,0.0,0.0,0.0,0.0,0.0,0.0,0.0,0.0,0.0,0.0,0.0,0.0,0.0,0.0,0.0,0.0,0.0,0.0,0.0,5.7216,5.7145,5.7274,5.6879,5.6566,5.6394,5.5816,5.5349,5.4997,5.5861,5.6159,5.5936,5.6763,5.7044,5.6844,5.6426,5.6066,5.5703,5.5398,5.5199,5.5065,5.4805,5.4443,5.4106,5.3759,5.341,5.3067,5.2929,5.2757,5.2481,5.2099,5.1691,5.1306,5.0954,5.0767,5.0625,5.0353,4.9997,4.958,4.9245,4.8871,4.84,4.7721,4.7149,4.6596,4.5891,4.533,4.4843,4.4428,4.3843,4.3195,4.2697,4.2236,4.1734,4.0977,4.0392,3.9941,3.9548,3.8838,3.8282,3.8044,3.7445,3.6982,3.6742,3.612,3.5676,3.5433,3.4617,3.3976,3.3637,3.2833,3.211,3.1473,3.1121,3.0601,2.9888,2.9718,2.9484,2.908,2.9484,2.9523,2.9236,2.9119,2.9003,0.0,0.0,0.0,0.0,0.0,0.0,5.1017,5.1105,5.1216,0.0,0.0,0.0,0.0,0.0,0.0,0.0,0.0,0.0,0.0,0.0,0.0,0.0,0.0,0.0,0.0,0.0,0.0,5.6809,5.6541,5.6561,5.6897,5.6593,5.6394,5.6394,5.5816,5.5291,5.4847,5.5579,5.5881,5.5691,5.6455,5.6795,5.6682,5.6295,5.5934,5.5571,5.5265,5.4998,5.4805,5.4443,5.4174,5.3963,5.3648,5.3238,5.2895,5.2757,5.2585,5.2317,5.1761,5.1411,5.1141,5.0802,5.059,5.0412,5.0175,4.9711,4.9245,4.9052,4.8582,4.7941,4.7171,4.678,4.6411,4.5592,4.5106,4.4654,4.405,4.331,4.2697,4.2447,4.1927,4.1308,4.0627,4.004,3.9509,3.9075,3.8441,3.7884,3.7485,3.7005,3.6661,3.646,3.5797,3.5285,3.4973,3.4113,3.3387,3.2937,3.226,3.166,3.1113,3.0717,3.0183,2.9523,2.9329,2.9134,2.8886,2.9134,2.9134,2.8886,2.8886,2.8886,0.0,0.0,0.0,0.0,0.0,0.0,5.0448,5.0723,5.09,5.0963,0.0,0.0,0.0,0.0,0.0,0.0,0.0,0.0,0.0,0.0,0.0,0.0,0.0,0.0,0.0,5.6262,5.6361,5.6187,5.5926,5.5923,5.6374,5.6335,5.6337,5.6394,5.5816,5.5231,5.4607,5.5187,5.5459,5.5437,5.6007,5.6412,5.6616,5.6263,5.5901,5.5505,5.5232,5.4872,5.4477,5.414,5.3997,5.3895,5.358,5.3204,5.2861,5.2515,5.2377,5.2213,5.1457,5.1176,5.1095,5.0731,5.0412,5.0068,4.9997,4.952,4.898,4.8871,4.8305,4.7575,4.678,4.6522,4.6262,4.5518,4.5031,4.4504,4.3729,4.2945,4.237,4.2254,4.1598,4.0919,4.0509,3.9805,3.9114,3.86,3.8203,3.7645,3.6822,3.6661,3.65,3.6057,3.5561,3.4989,3.4272,3.3716,3.2969,3.1951,3.1809,3.1456,3.0755,3.026,2.9819,2.9446,2.9095,2.8886,2.8886,2.8886,2.8886,2.8886,2.8886,2.8886,0.0,0.0,0.0,0.0,0.0,0.0,5.0576,5.0354,5.0279,0.0,0.0,0.0,0.0,0.0,0.0,0.0,0.0,0.0,0.0,0.0,0.0,0.0,0.0,0.0,0.0,5.465,5.4905,5.545,5.5477,5.5761,5.6374,5.5933,5.5908,5.6394,5.5816,5.5231,5.4607,5.5187,5.5459,5.5437,5.6007,5.6283,5.623,5.6132,5.5769,5.5199,5.5132,5.4872,5.4477,5.414,5.3827,5.3546,5.317,5.2964,5.2861,5.2515,5.2203,5.1855,5.1352,5.1025,5.0731,5.0317,5.0139,4.9997,4.9376,4.9088,4.8871,4.8196,4.7685,4.7208,4.6707,4.6114,4.5518,4.5031,4.4617,4.4109,4.3272,4.2736,4.2177,4.1502,4.0938,4.047,4.0098,3.9627,3.9035,3.8243,3.7765,3.7325,3.6782,3.642,3.6057,3.5595,3.4922,3.4305,3.3797,3.2801,3.2141,3.1935,3.1339,3.0763,3.026,2.9834,2.9446,2.9003,2.8925,2.8886,2.8886,2.8886,2.8886,2.8886,2.8886,2.8886,0.0,0.0,0.0,4.995,0.0,0.0,0.0,5.0168,5.0006,5.0374,5.0742,0.0,0.0,0.0,0.0,0.0,0.0,0.0,0.0,0.0,0.0,0.0,0.0,0.0,0.0,5.3786,5.3878,5.4326,5.4852,5.5232,5.5445,5.5473,5.5623,5.5966,5.5647,5.5231,5.4607,5.4911,5.502,5.4948,5.5573,5.5788,5.5673,5.5939,5.5736,5.5099,5.5099,5.4772,5.4241,5.4064,5.3691,5.317,5.2998,5.2792,5.2619,5.2238,5.1831,5.1446,5.1095,5.0707,5.0377,5.0175,4.9854,4.9484,4.9088,4.8727,4.8268,4.7685,4.7186,4.6817,4.6411,4.5853,4.5293,4.488,4.4504,4.3898,4.2927,4.2524,4.2062,4.1016,4.049,4.0098,3.9666,3.9075,3.8441,3.7805,3.7325,3.6885,3.646,3.6016,3.5608,3.5164,3.4418,3.3731,3.3134,3.2362,3.184,3.1665,3.1104,3.0585,3.0129,2.9718,2.9329,2.8886,2.8886,2.8886,2.8886,2.8886,2.8886,2.8886,2.8886,2.8886,0.0,0.0,0.0,0.0,0.0,5.0317,0.0,0.0,0.0,4.9912,0.0,0.0,0.0,0.0,0.0,0.0,0.0,0.0,0.0,0.0,0.0,0.0,0.0,0.0,0.0,5.3176,5.3144,5.3179,5.4045,5.446,5.4313,5.4841,5.5252,5.548,5.5392,5.512,5.4669,5.4637,5.4583,5.4579,5.5142,5.5329,5.5214,5.5806,5.5736,5.5099,5.5099,5.4671,5.3971,5.3868,5.3402,5.2744,5.2845,5.2613,5.2203,5.1787,5.1331,5.085,5.0524,5.0137,4.9795,4.9724,4.9214,4.857,4.8498,4.803,4.7391,4.6953,4.6587,4.622,4.574,4.5311,4.4945,4.4619,4.4188,4.3566,4.2618,4.2331,4.1907,4.0627,4.0137,3.9784,3.9391,3.86,3.7845,3.7485,3.7005,3.6546,3.6075,3.5615,3.5141,3.4691,3.3914,3.3159,3.2514,3.2051,3.1658,3.1295,3.0894,3.0454,3.0013,2.9601,2.9251,2.8886,2.8886,2.8886,2.8886,2.8886,2.8886,2.8886,2.8886,2.8886,0.0,0.0,0.0,0.0,5.0409,0.0,0.0,0.0,4.9912,4.9912,0.0,0.0,0.0,0.0,0.0,0.0,0.0,0.0,0.0,0.0,0.0,0.0,0.0,0.0,0.0,0.0,5.2768,5.2535,5.296,5.3322,5.3588,5.375,5.4337,5.5452,5.4968,5.4788,5.4937,5.4728,5.4731,5.4971,5.5263,5.5329,5.5214,5.5806,5.5736,5.5099,5.5099,5.4671,5.3945,5.3492,5.2851,5.2251,5.2694,5.2388,5.1632,5.123,5.0558,4.9733,4.939,4.9046,4.8725,4.8343,4.7749,4.7081,4.6727,4.6527,4.6314,4.5622,4.5406,4.5191,4.4431,4.3921,4.3604,4.3636,4.3069,4.2476,4.2404,4.212,4.1502,4.0216,3.9941,3.9784,3.9391,3.86,3.7845,3.7485,3.7005,3.6419,3.5657,3.5208,3.4675,3.3928,3.3166,3.2507,3.2013,3.1672,3.1288,3.091,3.0415,2.9989,2.9601,2.9173,2.8964,2.8886,2.8886,2.8886,2.8886,2.8886,2.8886,2.8886,2.8886,2.8886,0.0,0.0,0.0,0.0,0.0,0.0,0.0,0.0,4.9912,0.0,0.0,0.0,0.0,0.0,0.0,0.0,0.0,0.0,0.0,0.0,0.0,0.0,0.0,0.0,0.0,0.0,0.0,0.0,0.0,5.2821,5.3127,5.3242,5.3643,5.4366,5.4658,5.4709,5.4467,5.4562,5.4568,5.4485,5.475,5.479,5.4714,5.53,5.5386,5.5099,5.5099,5.4489,5.3518,5.3287,5.2572,5.1649,5.1613,5.1259,5.0746,5.0381,4.986,4.9256,4.8947,4.8569,4.8154,4.7551,4.7166,4.6827,4.6403,4.6156,4.5872,4.5337,4.5014,4.4727,4.4149,4.3677,4.3376,4.3178,4.2538,4.1892,4.1678,4.1151,4.0391,3.9413,3.9028,3.8641,3.7963,3.7538,3.7187,3.6751,3.6139,3.5496,3.4891,3.444,3.3911,3.3117,3.2563,3.2035,3.1633,3.1474,3.1241,3.0833,3.0159,2.9562,2.9173,2.9003,2.8886,2.8886,2.8886,2.8886,2.8886,2.8886,2.8886,2.8886,2.8886,2.8886,5.2806,0.0,0.0,0.0,0.0,0.0,0.0,0.0,0.0,0.0,0.0,0.0,0.0,0.0,0.0,0.0,0.0,0.0,0.0,0.0,0.0,0.0,0.0,0.0,0.0,0.0,0.0,5.0561,5.1359,5.2003,5.2372,5.2648,5.2976,5.3337,5.426,5.46,5.4222,5.4483,5.446,5.4251,5.443,5.4363,5.4102,5.4714,5.4831,5.4628,5.4529,5.3904,5.2928,5.2675,5.1997,5.0988,5.0373,4.999,4.9747,4.9557,4.9136,4.8618,4.8277,4.7832,4.7316,4.6692,4.6414,4.6239,4.5854,4.5467,4.5078,4.4746,4.4368,4.3975,4.3544,4.3148,4.2828,4.2591,4.1915,4.1292,4.1134,4.0389,3.9524,3.8842,3.8366,3.7793,3.6796,3.662,3.6503,3.611,3.5452,3.4815,3.4228,3.3797,3.3257,3.2508,3.2048,3.1665,3.1411,3.1395,3.1164,3.0624,2.9795,2.9212,2.8886,2.8886,2.8886,2.8886,2.8886,2.8886,2.8886,2.8886,2.8886,2.8886,2.8886,2.8886,0.0,0.0,0.0,5.1986,0.0,0.0,0.0,0.0,5.0773,0.0,0.0,0.0,0.0,0.0,0.0,0.0,0.0,0.0,0.0,0.0,0.0,0.0,0.0,0.0,0.0,0.0,0.0,4.9918,5.0265,5.0651,5.1056,5.1751,5.2287,5.2596,5.3634,5.4262,5.4569,5.4571,5.4607,5.4578,5.4521,5.4148,5.3574,5.4133,5.4075,5.342,5.3043,5.2684,5.2272,5.1416,5.0829,5.0295,4.9141,4.8682,4.8666,4.8874,4.8337,4.7479,4.7146,4.6577,4.5902,4.5586,4.5188,4.4811,4.449,4.4076,4.3694,4.3368,4.2961,4.2589,4.2166,4.1834,4.1569,4.1627,4.104,4.0556,4.0999,4.0164,3.9203,3.8766,3.8366,3.7716,3.6466,3.6234,3.6079,3.569,3.5279,3.4713,3.3913,3.3453,3.2918,3.208,3.168,3.1411,3.1395,3.1395,3.1033,3.0168,2.9353,2.8886,2.8886,2.8886,2.8886,2.8886,2.8886,2.8886,2.8886,2.8886,2.8886,2.8886,2.8886,2.8886,0.0,0.0,5.3829,5.2944,0.0,0.0,0.0,0.0,0.0,0.0,0.0,0.0,0.0,0.0,0.0,0.0,0.0,0.0,0.0,0.0,0.0,0.0,0.0,0.0,0.0,0.0,0.0,4.8805,4.9604,5.0236,5.0568,5.1508,5.2014,5.1997,5.3144,5.3864,5.4007,5.396,5.4163,5.4607,5.4112,5.377,5.3521,5.3707,5.3647,5.34,5.2958,5.2426,5.1741,5.1212,5.0421,4.9484,4.8846,4.8445,4.8182,4.8046,4.7632,4.7065,4.6496,4.5957,4.5517,4.5142,4.4903,4.4697,4.4078,4.3823,4.365,4.3267,4.2918,4.2511,4.2124,4.1756,4.1372,4.0874,4.0318,3.9923,3.9865,3.8913,3.7987,3.7875,3.7297,3.6547,3.5548,3.5397,3.5258,3.4886,3.4252,3.3609,3.3071,3.2632,3.2216,3.1664,3.1472,3.1395,3.1395,3.0879,3.04,3.0129,2.9353,2.8886,2.8886,2.8886,2.8886,2.8886,2.8886,2.8886,2.8886,2.8886,2.8886,2.8886,2.8886,2.8886,5.5715,5.5471,0.0,0.0,5.3797,0.0,5.2618,0.0,0.0,0.0,0.0,0.0,0.0,0.0,0.0,0.0,0.0,0.0,0.0,4.483,0.0,0.0,0.0,0.0,0.0,0.0,4.7563,4.8009,4.8745,4.9459,0.0,0.0,5.1399,5.1523,5.2621,5.332,5.35,5.3572,5.3832,5.4246,5.3812,5.3473,5.3174,5.3174,5.3038,5.2714,5.2239,5.1711,5.112,5.0669,4.9949,4.9072,4.8739,4.8346,4.796,4.763,4.7198,4.6697,4.6126,4.5686,4.5313,4.4937,4.4732,4.4491,4.387,4.3615,4.3441,4.3093,4.2686,4.23,4.1912,4.1558,4.1117,4.0453,3.9966,3.9606,3.9284,3.8265,3.7421,3.7421,3.6627,3.5791,3.5119,3.4894,3.4661,3.4277,3.3631,3.3044,3.2626,3.2261,3.184,3.1433,3.1395,3.1395,3.1395,3.0608,3.009,3.009,2.9353,2.8886,2.8886,2.8886,2.8886,2.8886,2.8886,2.8886,2.8886,2.8886,2.8886,2.8886,2.8886,2.8886]},{"header":{"parameterUnit":"m.s-1","parameterCategory":1,"la1":30.6,"la2":29.2853,"lo1":-89.7004,"lo2":-87.6739,"dy":0.0162,"dx":0.0183,"nx":112,"ny":82,"refTime":"2023-11-12T06:00:00:Z","depth":0,"parameterNumber":3,"parameterNumberName":"V-component_of_WINDS"},"data":[0.0,0.0,0.0,0.0,0.0,0.0,0.0,0.0,0.0,0.0,0.0,0.0,0.0,0.0,0.0,0.0,0.0,0.0,0.0,0.0,0.0,0.0,0.0,0.0,0.0,0.0,0.0,0.0,0.0,0.0,0.0,0.0,0.0,0.0,0.0,0.0,0.0,0.0,0.0,0.0,0.0,0.0,0.0,0.0,0.0,0.0,0.0,0.0,0.0,0.0,0.0,0.0,0.0,0.0,0.0,0.0,0.0,0.0,0.0,0.0,0.0,0.0,0.0,0.0,0.0,0.0,0.0,0.0,0.0,0.0,0.0,0.0,0.0,0.0,0.0,0.0,0.0,0.0,0.0,0.0,0.0,0.0,0.0,0.0,0.0,0.0,0.0,0.0,0.0,0.0,0.0,2.2944,2.4213,2.5301,2.5862,2.5779,2.5651,2.5521,0.0,0.0,0.0,0.0,0.0,0.0,0.0,0.0,0.0,0.0,0.0,0.0,0.0,0.0,0.0,0.0,0.0,0.0,0.0,0.0,0.0,0.0,0.0,0.0,0.0,0.0,0.0,0.0,0.0,0.0,0.0,0.0,0.0,0.0,0.0,0.0,0.0,0.0,0.0,0.0,0.0,0.0,0.0,0.0,0.0,0.0,0.0,0.0,0.0,0.0,0.0,0.0,0.0,0.0,0.0,0.0,0.0,0.0,0.0,0.0,0.0,0.0,0.0,0.0,0.0,0.0,0.0,0.0,0.0,0.0,0.0,0.0,0.0,0.0,0.0,0.0,0.0,0.0,0.0,0.0,0.0,0.0,0.0,0.0,0.0,0.0,0.0,0.0,0.0,0.0,0.0,0.0,0.0,0.0,0.0,0.0,0.0,0.0,0.0,0.0,0.0,0.0,0.0,0.0,2.352,2.4916,2.5774,2.6414,2.6843,2.6757,2.6624,2.6497,0.0,0.0,0.0,0.0,0.0,0.0,0.0,0.0,0.0,0.0,0.0,0.0,0.0,0.0,0.0,0.0,0.0,0.0,0.0,0.0,0.0,0.0,0.0,0.0,0.0,0.0,0.0,0.0,0.0,0.0,0.0,0.0,0.0,0.0,0.0,0.0,0.0,0.0,0.0,0.0,0.0,0.0,0.0,0.0,0.0,0.0,0.0,0.0,0.0,0.0,0.0,0.0,0.0,0.0,0.0,0.0,0.0,0.0,0.0,0.0,0.0,0.0,0.0,0.0,0.0,0.0,0.0,0.0,0.0,0.0,0.0,0.0,0.0,0.0,0.0,0.0,0.0,0.0,0.0,0.0,0.0,0.0,0.0,0.0,0.0,0.0,0.0,0.0,0.0,0.0,0.0,0.0,0.0,0.0,0.0,0.0,0.0,0.0,0.0,0.0,0.0,0.0,0.0,2.4119,2.5038,2.6691,2.7085,2.7522,2.8247,2.7801,2.7602,2.7884,2.6895,0.0,0.0,0.0,0.0,0.0,0.0,0.0,0.0,0.0,0.0,0.0,0.0,0.0,0.0,0.0,0.0,0.0,0.0,0.0,0.0,0.0,0.0,0.0,0.0,0.0,0.0,0.0,0.0,0.0,0.0,0.0,0.0,0.0,0.0,0.0,0.0,0.0,0.0,0.0,0.0,0.0,0.0,0.0,0.0,0.0,0.0,0.0,0.0,0.0,0.0,0.0,0.0,0.0,0.0,0.0,0.0,0.0,0.0,0.0,0.0,0.0,0.0,0.0,0.0,0.0,0.0,0.0,0.0,0.0,0.0,0.0,0.0,0.0,0.0,0.0,0.0,0.0,0.0,0.0,0.0,0.0,0.0,0.0,0.0,0.0,0.0,0.0,0.0,0.0,0.0,0.0,0.0,0.0,0.0,0.0,0.0,0.0,0.0,0.0,0.0,0.0,0.0,2.5897,2.6668,2.8163,2.8365,2.8726,2.9477,2.8997,2.8755,2.9094,2.8224,0.0,0.0,0.0,0.0,0.0,0.0,0.0,0.0,0.0,0.0,0.0,0.0,0.0,0.0,0.0,0.0,0.0,0.0,0.0,0.0,0.0,0.0,0.0,0.0,0.0,0.0,0.0,0.0,0.0,0.0,0.0,0.0,0.0,0.0,0.0,0.0,0.0,0.0,0.0,0.0,0.0,0.0,0.0,0.0,0.0,0.0,0.0,0.0,0.0,0.0,0.0,0.0,0.0,0.0,0.0,0.0,0.0,0.0,0.0,0.0,0.0,0.0,0.0,0.0,0.0,0.0,0.0,0.0,0.0,0.0,0.0,0.0,0.0,0.0,0.0,0.0,0.0,0.0,0.0,0.0,0.0,0.0,0.0,0.0,0.0,0.0,0.0,0.0,0.0,0.0,0.0,0.0,0.0,0.0,0.0,0.0,0.0,0.0,0.0,0.0,0.0,0.0,2.7387,2.8207,2.9207,2.9695,3.0052,3.0282,3.0381,3.0211,2.9754,2.92,0.0,0.0,0.0,0.0,0.0,0.0,0.0,0.0,0.0,0.0,0.0,0.0,0.0,0.0,0.0,0.0,0.0,0.0,0.0,0.0,0.0,0.0,0.0,0.0,0.0,0.0,0.0,0.0,0.0,0.0,0.0,0.0,0.0,0.0,0.0,0.0,0.0,0.0,0.0,0.0,0.0,0.0,0.0,0.0,0.0,0.0,0.0,0.0,0.0,0.0,0.0,0.0,0.0,0.0,0.0,0.0,0.0,0.0,0.0,0.0,0.0,0.0,0.0,0.0,0.0,0.0,0.0,0.0,0.0,0.0,0.0,0.0,0.0,0.0,0.0,0.0,0.0,0.0,0.0,0.0,0.0,0.0,0.0,0.0,0.0,0.0,0.0,0.0,0.0,0.0,0.0,0.0,0.0,0.0,0.0,0.0,0.0,0.0,0.0,0.0,0.0,0.0,2.8358,2.9251,0.0,3.032,3.0626,3.1447,3.1243,3.1039,3.0874,0.0,0.0,0.0,0.0,0.0,0.0,0.0,0.0,0.0,0.0,0.0,0.0,0.0,0.0,0.0,0.0,0.0,0.0,0.0,0.0,0.0,0.0,0.0,0.0,0.0,0.0,0.0,0.0,0.0,0.0,0.0,0.0,0.0,0.0,0.0,0.0,0.0,0.0,0.0,0.0,0.0,0.0,0.0,0.0,0.0,0.0,0.0,0.0,0.0,0.0,0.0,0.0,0.0,0.0,0.0,0.0,0.0,0.0,0.0,0.0,0.0,0.0,0.0,0.0,0.0,0.0,0.0,0.0,0.0,0.0,0.0,0.0,0.0,0.0,0.0,0.0,0.0,0.0,0.0,0.0,0.0,0.0,0.0,0.0,0.0,0.0,0.0,0.0,0.0,0.0,0.0,0.0,0.0,0.0,0.0,0.0,0.0,0.0,0.0,0.0,0.0,0.0,2.8759,2.9475,3.0265,0.0,3.1296,3.1582,3.2423,3.2175,3.2015,3.2175,0.0,0.0,0.0,0.0,0.0,0.0,0.0,0.0,0.0,0.0,0.0,0.0,0.0,0.0,0.0,0.0,0.0,0.0,0.0,0.0,0.0,0.0,0.0,0.0,0.0,0.0,0.0,0.0,0.0,0.0,0.0,0.0,0.0,0.0,0.0,0.0,0.0,0.0,0.0,0.0,0.0,0.0,0.0,0.0,0.0,0.0,0.0,0.0,0.0,0.0,0.0,0.0,0.0,0.0,0.0,0.0,0.0,0.0,0.0,0.0,0.0,0.0,0.0,0.0,0.0,0.0,0.0,0.0,0.0,0.0,0.0,0.0,0.0,0.0,0.0,0.0,0.0,0.0,0.0,0.0,0.0,0.0,0.0,0.0,0.0,0.0,0.0,0.0,0.0,0.0,0.0,0.0,0.0,0.0,0.0,0.0,0.0,0.0,0.0,0.0,0.0,0.0,3.0673,3.0901,3.1312,3.2307,3.2835,3.3115,3.3136,3.3202,3.3342,0.0,0.0,0.0,0.0,0.0,0.0,0.0,0.0,0.0,0.0,0.0,0.0,0.0,0.0,0.0,0.0,0.0,0.0,0.0,0.0,0.0,0.0,0.0,0.0,0.0,0.0,0.0,0.0,0.0,0.0,0.0,0.0,0.0,0.0,0.0,0.0,0.0,0.0,0.0,0.0,0.0,0.0,0.0,0.0,0.0,0.0,0.0,0.0,0.0,0.0,0.0,0.0,0.0,0.0,0.0,0.0,0.0,0.0,0.0,0.0,0.0,0.0,0.0,0.0,0.0,0.0,0.0,0.0,0.0,0.0,0.0,0.0,0.0,0.0,0.0,0.0,0.0,0.0,0.0,0.0,0.0,0.0,0.0,0.0,0.0,0.0,0.0,0.0,0.0,0.0,0.0,0.0,0.0,0.0,0.0,0.0,0.0,0.0,0.0,0.0,0.0,0.0,0.0,3.1336,3.2079,3.2916,3.3903,3.4154,3.442,3.4974,3.4804,3.4607,3.4462,0.0,0.0,0.0,0.0,0.0,0.0,0.0,0.0,0.0,0.0,0.0,0.0,0.0,0.0,0.0,0.0,0.0,0.0,0.0,0.0,0.0,0.0,0.0,0.0,0.0,0.0,0.0,0.0,0.0,0.0,0.0,0.0,0.0,0.0,0.0,0.0,0.0,0.0,0.0,0.0,0.0,0.0,0.0,0.0,0.0,0.0,0.0,0.0,0.0,0.0,0.0,0.0,0.0,0.0,0.0,0.0,0.0,0.0,0.0,0.0,0.0,0.0,0.0,0.0,0.0,0.0,0.0,0.0,0.0,0.0,0.0,0.0,0.0,0.0,0.0,0.0,0.0,0.0,0.0,0.0,0.0,0.0,0.0,0.0,0.0,0.0,0.0,0.0,0.0,0.0,0.0,0.0,0.0,0.0,0.0,0.0,0.0,0.0,0.0,0.0,0.0,0.0,3.2467,3.3296,3.41,3.492,3.5079,3.5347,3.5903,3.5857,3.569,3.5396,0.0,0.0,0.0,0.0,0.0,0.0,0.0,0.0,0.0,0.0,0.0,0.0,0.0,0.0,0.0,0.0,0.0,0.0,0.0,0.0,0.0,0.0,0.0,0.0,0.0,0.0,0.0,0.0,0.0,0.0,0.0,0.0,0.0,0.0,0.0,0.0,0.0,0.0,0.0,0.0,0.0,0.0,0.0,0.0,0.0,0.0,0.0,0.0,0.0,0.0,0.0,0.0,0.0,0.0,0.0,0.0,0.0,0.0,0.0,0.0,0.0,0.0,0.0,0.0,0.0,0.0,0.0,0.0,0.0,0.0,0.0,0.0,0.0,0.0,0.0,0.0,0.0,0.0,0.0,0.0,0.0,0.0,0.0,0.0,0.0,0.0,0.0,0.0,0.0,0.0,0.0,0.0,0.0,0.0,0.0,0.0,0.0,0.0,0.0,0.0,0.0,0.0,3.3862,3.4516,3.5094,3.5737,3.5908,3.6129,3.6472,3.6586,3.6598,3.6461,0.0,0.0,0.0,0.0,0.0,0.0,0.0,0.0,0.0,0.0,0.0,0.0,0.0,0.0,0.0,0.0,0.0,0.0,0.0,0.0,0.0,0.0,0.0,0.0,0.0,0.0,0.0,0.0,0.0,0.0,0.0,0.0,0.0,0.0,0.0,0.0,0.0,0.0,0.0,0.0,0.0,0.0,0.0,0.0,0.0,0.0,0.0,0.0,0.0,0.0,0.0,0.0,0.0,0.0,0.0,0.0,0.0,0.0,0.0,0.0,2.0772,0.0,0.0,0.0,0.0,0.0,0.0,0.0,0.0,0.0,0.0,0.0,0.0,0.0,0.0,0.0,0.0,0.0,0.0,0.0,0.0,0.0,0.0,0.0,0.0,0.0,0.0,0.0,0.0,0.0,0.0,0.0,0.0,0.0,0.0,0.0,0.0,0.0,0.0,0.0,0.0,0.0,3.515,3.5643,3.6485,3.7872,3.7674,3.7801,3.8709,3.8158,3.7745,3.772,0.0,0.0,0.0,0.0,0.0,0.0,0.0,0.0,0.0,0.0,0.0,0.0,0.0,0.0,0.0,0.0,0.0,0.0,0.0,0.0,0.0,0.0,0.0,0.0,0.0,0.0,0.0,0.0,0.0,0.0,0.0,0.0,0.0,0.0,0.0,0.0,0.0,0.0,0.0,0.0,0.0,0.0,0.0,0.0,0.0,0.0,0.0,0.0,0.0,0.0,0.0,0.0,0.0,0.0,0.0,0.0,0.0,0.0,0.0,0.0,0.0,2.1919,0.0,0.0,0.0,0.0,0.0,0.0,0.0,0.0,0.0,0.0,0.0,0.0,0.0,0.0,0.0,0.0,0.0,0.0,0.0,0.0,0.0,0.0,0.0,0.0,0.0,0.0,0.0,0.0,0.0,0.0,0.0,0.0,0.0,0.0,0.0,0.0,0.0,0.0,0.0,0.0,3.6598,3.739,3.8309,3.938,3.9289,3.9376,4.0017,3.9464,3.9045,3.8884,3.7903,0.0,0.0,0.0,0.0,0.0,0.0,0.0,0.0,0.0,0.0,0.0,0.0,0.0,0.0,0.0,0.0,0.0,0.0,0.0,0.0,0.0,0.0,0.0,0.0,0.0,0.0,0.0,0.0,0.0,0.0,0.0,0.0,0.0,0.0,0.0,0.0,0.0,0.0,0.0,0.0,0.0,0.0,0.0,0.0,0.0,0.0,0.0,0.0,0.0,0.0,0.0,0.0,0.0,0.0,2.4686,2.5205,2.5254,2.5303,2.5315,2.4651,2.4007,2.3434,0.0,0.0,0.0,0.0,0.0,0.0,0.0,0.0,0.0,0.0,0.0,0.0,0.0,0.0,0.0,0.0,0.0,0.0,0.0,0.0,0.0,0.0,0.0,0.0,0.0,2.996,2.9929,0.0,0.0,0.0,0.0,0.0,0.0,0.0,0.0,0.0,0.0,0.0,0.0,3.8138,3.9089,3.9957,4.0538,4.0552,4.067,4.0961,4.0703,4.0331,3.9936,3.9501,3.8553,0.0,0.0,0.0,0.0,0.0,0.0,0.0,0.0,0.0,0.0,0.0,0.0,0.0,0.0,0.0,0.0,0.0,0.0,0.0,0.0,0.0,0.0,0.0,0.0,0.0,0.0,0.0,0.0,0.0,0.0,0.0,0.0,1.7644,1.8386,0.0,0.0,0.0,0.0,0.0,0.0,0.0,0.0,0.0,0.0,0.0,0.0,0.0,0.0,2.4377,2.4482,2.4955,2.5875,2.59,2.5964,2.6053,2.6276,2.6512,2.6746,2.6876,0.0,2.4711,2.435,0.0,0.0,0.0,0.0,0.0,0.0,0.0,0.0,0.0,0.0,0.0,0.0,0.0,0.0,0.0,0.0,0.0,0.0,0.0,0.0,0.0,0.0,3.0859,3.1622,3.2299,3.276,0.0,3.2328,3.213,3.2421,0.0,0.0,0.0,0.0,0.0,0.0,0.0,0.0,3.9361,3.9897,4.0591,4.1361,4.1194,4.1296,4.2125,4.186,4.1414,4.078,4.0195,3.9554,3.878,3.7226,0.0,0.0,0.0,0.0,0.0,0.0,0.0,0.0,0.0,0.0,0.0,0.0,0.0,0.0,0.0,0.0,0.0,0.0,0.0,0.0,0.0,0.0,0.0,0.0,0.0,0.0,0.0,0.0,0.0,1.7947,1.852,1.9285,1.9567,1.9944,0.0,0.0,0.0,0.0,0.0,0.0,0.0,0.0,0.0,2.3927,2.4144,2.4823,2.5963,2.5963,2.6491,2.7481,2.7687,2.7982,2.8349,2.8645,2.8839,2.8973,2.908,2.8728,2.8003,2.6842,2.6443,2.6522,0.0,0.0,0.0,0.0,0.0,2.6215,2.6215,0.0,0.0,0.0,0.0,0.0,0.0,0.0,0.0,0.0,0.0,0.0,0.0,0.0,0.0,3.3908,3.4534,3.5065,3.584,3.5812,3.5391,0.0,3.5411,3.6341,3.6525,0.0,0.0,0.0,0.0,0.0,4.0718,4.1641,4.249,4.3003,4.305,4.3211,4.3581,4.2989,4.244,4.2162,4.1714,4.1022,4.0024,3.9236,3.8503,0.0,0.0,0.0,0.0,0.0,0.0,0.0,0.0,0.0,0.0,0.0,0.0,0.0,0.0,0.0,0.0,0.0,0.0,0.0,0.0,0.0,0.0,0.0,0.0,0.0,0.0,0.0,0.0,1.9084,1.9572,2.0272,2.072,2.1114,0.0,0.0,0.0,0.0,0.0,0.0,2.366,2.4336,2.4959,2.5474,2.5882,2.6528,2.7431,2.7558,2.8026,2.8889,2.9357,2.9822,3.0326,3.0678,3.0906,3.0969,3.1053,3.1048,3.0879,2.9149,2.8501,2.8609,2.8487,2.8319,2.8139,2.8139,2.8083,2.8014,2.8014,2.8261,2.8625,2.8625,0.0,2.9288,2.995,0.0,0.0,0.0,0.0,3.288,3.3661,0.0,3.4799,3.5939,3.6504,3.7097,3.819,3.8791,3.861,0.0,3.7382,3.8231,3.8374,0.0,0.0,0.0,0.0,4.2196,4.2463,4.3517,4.4308,4.4505,4.475,4.4948,4.4948,4.424,4.3706,4.3542,4.3178,4.2517,4.1416,4.1028,4.0456,3.9574,0.0,0.0,0.0,0.0,0.0,0.0,0.0,0.0,0.0,0.0,0.0,0.0,0.0,0.0,0.0,0.0,0.0,0.0,0.0,0.0,0.0,0.0,0.0,0.0,0.0,0.0,0.0,0.0,0.0,2.1555,2.1957,0.0,0.0,0.0,0.0,2.4454,2.5089,2.5629,2.6007,2.6494,2.693,2.7346,2.7744,2.8299,2.897,2.9305,2.9603,2.9913,3.0722,3.1111,3.1152,3.1603,3.1977,3.2244,3.2558,3.2565,3.2274,3.0527,3.0092,3.0518,3.0129,3.0281,3.07,3.07,3.0725,3.0704,3.0704,3.091,3.1119,3.1119,3.1502,3.2107,3.2655,3.298,0.0,0.0,3.4725,3.5293,3.6045,3.6493,3.687,3.7469,3.8191,3.8844,3.917,4.0693,4.1331,0.0,3.9108,3.952,3.952,0.0,4.2059,4.2328,4.3595,4.4629,4.4877,4.5206,4.5434,4.5434,4.5684,4.5835,4.5835,4.5681,4.5317,4.4746,4.4351,4.383,4.3195,4.2003,4.1346,4.1289,4.0033,0.0,0.0,0.0,0.0,0.0,0.0,0.0,0.0,0.0,0.0,0.0,0.0,0.0,0.0,0.0,0.0,0.0,0.0,0.0,0.0,0.0,0.0,0.0,0.0,0.0,0.0,0.0,0.0,2.291,2.3627,0.0,0.0,2.4963,2.5604,2.6064,2.6532,2.7002,2.7392,2.7836,2.8287,2.8845,2.928,2.9933,3.082,3.1261,3.1656,3.2073,3.2507,3.2734,3.2763,3.3367,3.3684,3.3801,3.4122,3.4241,3.4109,3.3505,3.2644,3.1713,3.1571,3.1614,3.1801,3.1987,3.2172,3.2358,3.2569,3.2831,3.3093,3.3228,3.3566,3.3928,3.4311,3.4595,3.4992,3.5997,3.6446,3.6921,3.8391,3.9028,3.9464,4.0179,4.0822,4.1363,4.1621,4.2396,4.2911,4.2429,4.2348,4.2423,4.2598,4.327,4.3864,4.4137,4.4765,4.5238,4.5338,4.6095,4.6591,4.6591,4.6989,4.7263,4.7263,4.6836,4.6334,4.5684,4.5492,4.4938,4.3932,4.3424,4.2796,4.2017,4.1159,4.0404,0.0,0.0,0.0,0.0,0.0,0.0,0.0,0.0,0.0,0.0,0.0,0.0,0.0,0.0,0.0,0.0,0.0,0.0,0.0,0.0,0.0,0.0,0.0,0.0,0.0,0.0,2.3548,2.4075,2.4871,2.5465,2.5616,2.6423,2.7146,2.7569,2.8172,2.8707,2.9133,2.9512,3.0021,3.0557,3.102,3.16,3.2279,3.2679,3.3101,3.3526,3.3918,3.4189,3.433,3.4945,3.5188,3.5218,3.5567,3.569,3.5658,3.5754,3.5028,3.3833,3.3612,3.3667,3.3888,3.4032,3.4224,3.4444,3.4875,3.5228,3.5476,3.5745,3.596,3.62,3.6573,3.6811,3.7146,3.8087,3.8524,3.896,4.0232,4.0856,4.1327,4.2028,4.2629,4.3205,4.3887,4.4465,4.5018,4.565,4.49,4.4259,4.4513,4.4953,4.5367,4.5644,4.6084,4.6395,4.6495,4.7231,4.7758,4.7758,4.8084,4.8305,4.8305,4.7806,4.731,4.6857,4.675,4.6194,4.5131,4.4873,4.4292,4.32,4.251,4.1837,4.1256,0.0,0.0,0.0,0.0,0.0,0.0,0.0,0.0,0.0,0.0,0.0,0.0,0.0,0.0,0.0,0.0,0.0,0.0,0.0,0.0,0.0,0.0,0.0,2.2625,2.4008,2.5034,2.5091,2.5793,2.6484,2.6955,2.7881,2.865,2.9047,3.0003,3.0749,3.124,3.1635,3.2058,3.253,3.2974,3.3246,3.3296,3.3566,3.3866,3.4214,3.4951,3.5432,3.5784,3.6252,3.6465,3.6496,3.6832,3.6906,3.6822,3.7155,3.7161,3.6946,3.6266,3.6389,3.6914,3.6914,3.6943,3.7057,3.7628,3.8024,3.8363,3.8643,3.8727,3.8839,3.945,3.9644,3.9754,4.0381,4.0977,4.146,4.1512,4.1914,4.247,4.2997,4.3599,4.4414,4.5874,4.6865,4.7701,4.8571,4.6634,4.4949,4.5226,4.5947,4.6613,4.686,4.764,0.0,4.8538,4.8817,4.8991,4.8991,4.8991,4.8991,4.8963,4.8612,4.8355,4.8326,4.8012,4.7544,4.6882,4.6295,4.5649,4.4981,4.4095,4.3351,4.2753,0.0,0.0,0.0,0.0,0.0,0.0,0.0,0.0,0.0,0.0,0.0,0.0,0.0,0.0,0.0,0.0,0.0,0.0,0.0,0.0,0.0,0.0,2.5047,2.4645,2.529,2.6173,2.712,2.791,2.8556,2.9039,2.9585,3.0226,3.0957,3.1308,3.1796,3.2611,3.2752,3.2962,3.3292,3.377,3.44,3.5219,3.5582,3.6133,3.6874,3.7064,3.7221,3.7315,3.7631,3.7924,3.8236,3.8569,3.8843,3.904,3.9109,3.9233,3.9183,3.7359,3.6742,3.6943,3.7372,3.7826,3.8222,3.8391,3.8503,3.8671,3.9201,3.9367,3.9478,4.0084,4.0384,4.0701,4.1507,4.229,4.3159,4.4174,4.4863,4.5477,4.6054,4.665,4.719,4.7595,4.819,4.881,4.9508,4.9059,4.8558,4.8636,4.8856,4.9176,4.9637,0.0,0.0,5.0175,5.0405,5.0558,5.0558,5.0738,5.0691,5.0254,5.0097,4.9702,4.8936,4.8798,4.8536,4.8129,4.7946,4.7306,4.6168,4.4987,4.432,0.0,0.0,0.0,0.0,0.0,0.0,0.0,0.0,0.0,0.0,0.0,0.0,0.0,0.0,0.0,0.0,0.0,0.0,0.0,0.0,0.0,0.0,2.553,2.6441,2.6926,2.7226,2.7682,2.8487,2.926,3.0011,3.0636,3.105,3.1613,3.2475,3.2819,3.3273,3.399,3.4182,3.4497,3.5052,3.5323,3.5913,3.68,3.7044,3.7456,3.8081,3.8081,3.8239,3.8523,3.8712,3.8963,0.0,3.9526,3.9775,4.0084,4.0084,4.0309,0.0,0.0,0.0,0.0,0.0,3.9785,4.0219,4.0392,4.0483,4.0684,4.1168,4.1424,4.1622,4.2124,4.246,4.2816,4.3617,4.4282,4.4978,4.5955,4.6604,4.7146,4.7671,4.8137,4.86,4.9117,4.9551,5.0063,5.0769,0.0,0.0,5.1279,5.0772,5.0429,5.0766,5.0895,5.0972,0.0,5.1279,5.1534,5.1534,5.1791,5.1792,5.1441,5.1412,0.0,0.0,0.0,4.9763,4.9014,4.8742,0.0,0.0,0.0,4.6329,4.6329,0.0,0.0,0.0,4.266,4.2262,0.0,0.0,0.0,0.0,0.0,0.0,0.0,0.0,0.0,0.0,0.0,0.0,0.0,0.0,0.0,0.0,2.6706,2.7416,2.9088,2.9458,2.9533,2.948,3.0254,3.1139,3.196,3.2399,3.2962,3.3774,3.4393,3.493,3.5374,0.0,0.0,0.0,0.0,3.7464,3.8039,3.8039,3.8219,3.858,3.858,3.8959,3.9587,3.9587,3.9797,4.0109,4.0109,4.0273,4.0591,4.0591,4.0961,4.1543,4.1099,4.1137,4.1441,4.1805,4.2106,0.0,0.0,0.0,0.0,4.3713,4.4006,4.4328,4.4673,4.4994,4.5371,4.5967,4.6415,4.6803,4.7141,4.764,4.8135,4.8518,4.8818,4.9334,5.0403,5.0892,5.1329,5.2163,5.2546,5.2841,5.3133,5.2,5.107,5.1121,5.1328,5.151,5.1562,5.1969,5.2272,5.2272,0.0,0.0,5.253,5.2501,5.2265,5.1694,5.16,5.1063,4.9858,4.9166,4.8781,4.8781,4.8716,4.8686,4.8686,4.8072,4.7783,4.7754,4.5908,4.5009,0.0,0.0,0.0,0.0,0.0,0.0,0.0,0.0,0.0,0.0,0.0,0.0,0.0,0.0,0.0,2.6703,2.8059,2.927,3.0063,3.1162,3.1678,3.1187,3.205,3.29,3.3434,3.4151,3.4741,3.526,3.5392,3.5843,3.667,3.6796,0.0,3.772,3.7741,3.8103,3.8852,3.8873,3.9367,4.0328,0.0,0.0,4.0928,4.0928,4.112,4.1416,4.1416,4.1765,4.2301,4.2301,4.2708,4.3205,4.2049,4.1805,4.216,4.249,4.2765,4.3093,4.3418,4.3566,4.3713,4.4324,4.4527,4.4702,4.525,4.5794,0.0,4.6389,4.7152,4.8086,4.8619,4.9165,4.9713,5.0271,5.0794,5.126,5.1508,5.197,5.2484,5.2839,5.2974,5.3186,5.3658,5.3114,5.2811,5.3253,5.3357,5.3461,5.3664,5.3792,5.3844,5.3844,5.3895,5.3743,5.3268,5.3183,5.3018,5.259,5.2221,5.1954,5.1685,5.0551,4.9872,4.9872,4.941,4.9164,4.9164,4.9022,4.8962,4.8932,4.7659,4.7037,0.0,0.0,0.0,0.0,0.0,0.0,0.0,0.0,0.0,0.0,0.0,2.4854,0.0,0.0,2.7142,2.8438,2.9399,3.0406,3.1496,3.2486,3.2994,3.2692,3.3289,3.403,3.4728,3.5172,3.5687,3.6338,3.6554,3.6967,3.7652,3.7852,3.8214,3.8742,3.8901,3.93,3.994,4.0123,4.0491,4.1035,4.1035,4.1229,4.155,4.155,4.1742,4.2061,4.222,4.2475,4.2822,4.3169,4.3584,4.4003,4.3501,4.3377,4.3584,4.3735,4.4008,4.4315,4.4824,4.5002,4.5092,4.5742,4.6064,4.6294,4.6759,4.7221,4.765,4.7963,4.8601,4.9267,4.9716,5.0269,5.0878,5.1627,5.2154,5.2651,5.31,5.354,5.3895,5.403,5.43,5.4594,5.4831,5.4778,5.4574,5.4163,5.4097,5.4149,5.4278,5.4462,5.4539,5.4539,5.4667,5.4624,5.4353,5.3971,5.3694,5.3491,5.2982,5.2695,5.2695,5.2186,5.1903,5.1903,5.1405,5.1143,5.1143,5.0811,5.0811,5.1143,5.0552,4.968,0.0,0.0,0.0,0.0,0.0,0.0,0.0,0.0,2.403,2.4292,2.5022,2.5927,2.7006,2.7318,2.8103,3.0165,3.0642,3.127,3.2797,3.3542,3.3983,3.4125,3.4468,3.4957,3.5725,3.602,3.6478,3.7257,3.7625,3.8071,3.8631,3.8906,3.9314,3.9892,4.017,4.0529,4.0906,4.1276,4.1482,4.1547,4.1636,4.1875,4.2175,4.2294,4.2454,4.271,4.3125,4.3315,4.3347,4.4017,4.4455,4.4736,4.5101,4.528,4.5293,4.5067,4.5208,4.5574,4.618,4.6421,4.6601,4.7176,4.756,4.7906,4.839,4.8822,4.9254,4.985,5.0277,5.0618,5.0928,5.1432,5.2044,5.2798,5.3271,5.3772,5.4506,5.4924,5.5172,5.5172,5.5609,5.5984,5.6067,5.6225,5.6031,5.4912,5.4765,5.479,5.4842,5.4989,5.5058,5.5058,5.5142,5.5204,5.5255,5.4775,5.45,5.455,5.3914,5.3554,5.3554,5.3628,5.3664,5.3664,5.3364,5.3186,5.3186,5.2639,5.267,5.3186,5.3186,5.2213,2.2553,2.2433,2.2312,2.2413,2.2513,2.2795,0.0,0.0,2.4512,2.5717,2.6534,2.7309,2.8097,2.8851,2.9707,3.0695,3.1482,3.2307,3.3234,3.4101,3.4927,3.5671,3.5894,3.6032,3.614,3.7167,3.7863,3.7972,3.8416,3.9032,3.9831,3.9939,4.0319,4.1075,4.1161,4.1184,4.1229,4.1741,4.2161,4.2444,4.2874,4.3253,4.3582,4.3942,4.4138,4.4193,4.4842,4.51,4.5165,4.5837,4.6124,4.6187,4.6599,4.6945,4.7072,4.6043,4.5908,4.624,4.6626,4.69,4.7205,4.788,4.8114,4.8364,4.9475,5.0191,5.079,5.1363,5.2017,5.2536,5.2849,5.319,5.3529,5.3866,5.4367,5.4839,5.4924,5.5418,5.5798,5.5798,5.6038,5.6332,5.6571,5.6651,5.6618,5.6469,5.644,5.6519,5.678,5.6354,5.6051,5.6051,5.5538,5.528,5.5531,5.5496,5.5535,5.5783,5.5177,5.4783,5.4783,5.4261,5.3982,5.3982,5.3914,5.3908,5.3908,5.3817,5.3817,5.3908,5.3908,5.3763,2.3285,2.3309,2.3412,2.3637,2.3903,2.4292,2.4907,2.5456,2.6071,2.69,2.763,2.8371,2.9232,2.9935,3.0738,0.0,3.2486,3.3277,3.4289,3.5041,3.5816,3.6619,3.6985,3.729,3.7574,3.8069,3.8706,3.9499,3.9721,4.0139,4.0756,4.081,4.0931,4.1293,4.1778,4.2066,4.2066,4.2736,4.315,4.3281,4.3486,4.3775,4.4136,4.4323,4.4617,4.5007,4.529,4.5613,4.5998,4.6262,4.6643,4.7055,4.7212,4.762,4.7976,4.7338,4.7286,4.7648,4.814,4.8507,4.8867,4.934,4.9607,4.9929,5.0786,5.1217,5.1562,5.2185,5.27,5.3101,5.3414,5.3726,5.4148,5.4994,5.5416,5.578,5.6489,5.6825,5.7073,5.7208,5.751,5.7754,5.7832,5.7967,5.8101,5.8101,5.7444,5.6963,5.7094,5.6881,5.6783,5.6994,5.6393,5.6103,5.638,5.6042,5.588,5.6003,5.573,5.5578,5.5578,5.5451,5.5402,5.5402,5.5119,5.4976,5.4976,5.4585,5.4585,5.4976,5.5142,5.5428,2.4175,2.4305,2.4576,2.4993,2.5347,2.5744,2.6184,2.6802,2.7425,2.7889,2.8558,2.9341,3.0073,3.0722,3.1536,3.262,3.3188,3.392,3.5052,3.5735,3.6362,3.7111,3.7821,3.8459,3.9009,3.897,3.9419,4.0518,4.072,4.0976,4.1421,4.1421,4.1553,4.1808,4.2428,4.2808,4.2945,4.3752,4.4147,4.4147,4.4384,4.4652,4.4972,4.5071,4.5432,4.5977,4.6075,4.6399,4.6883,4.7051,4.7435,4.7943,4.8133,4.8504,4.8943,4.888,4.8802,4.88,4.9355,4.975,5.0108,5.0555,5.0886,5.1269,5.1991,5.2309,5.2599,5.3343,5.3745,5.4061,5.4374,5.4658,5.511,5.6046,5.6386,5.6753,5.7609,5.792,5.8114,5.8307,5.8582,5.88,5.88,5.8964,5.9099,5.9099,5.8261,5.7663,5.7663,5.7562,5.7569,5.7699,5.7272,5.7102,5.738,5.6924,5.6608,5.6499,5.6499,5.6408,5.6225,5.6421,5.6519,5.6519,5.6166,5.6039,5.608,5.5594,5.5672,5.6199,5.6418,5.6738,2.5721,2.5827,2.5976,2.651,2.6637,2.6765,2.7168,2.7659,2.8173,2.8593,2.9398,3.0133,3.0432,3.1262,3.2117,3.2957,3.3486,3.4119,3.5081,3.5907,3.6595,3.7141,3.829,3.9376,0.0,3.9947,3.9985,4.0563,4.1002,4.1454,4.1774,4.1774,4.2161,4.3018,4.3074,4.3303,4.3752,4.4645,4.5066,4.5066,4.5923,4.6325,4.6358,4.675,4.7117,4.7449,4.778,4.7944,4.801,4.873,4.9023,4.912,4.9765,5.0021,5.0142,5.0753,5.0312,4.9416,4.9776,5.0108,5.0495,5.1151,5.1537,5.1941,5.289,5.3554,5.4218,5.5154,5.5644,5.5963,5.6251,5.6566,5.6822,5.6879,5.7331,5.7751,5.7809,5.8252,5.8694,5.8694,5.8882,5.9072,5.9072,5.9072,5.9099,5.9099,5.9069,5.9039,5.9039,5.8771,5.8398,5.8043,5.7977,5.808,5.8329,5.8329,5.8149,5.7777,5.7746,5.7438,5.6816,5.6785,5.6785,5.6785,5.6755,5.6844,5.7053,5.7053,5.7172,5.7464,5.7464,5.7464,2.613,2.63,2.6531,2.6978,2.7084,2.7297,2.8062,2.8502,2.8964,2.9759,3.0292,3.0853,3.1606,3.2263,3.2904,3.3464,3.4207,3.5034,3.5863,3.6537,3.7258,3.814,3.8965,0.0,0.0,0.0,0.0,4.1661,4.1865,4.202,4.2148,4.2477,4.2816,4.3096,4.3969,4.4483,4.4645,4.5545,4.5946,4.597,4.6536,4.6798,4.6798,4.7165,4.7497,4.7828,4.796,4.8289,4.8747,4.9007,4.9364,4.9783,5.0033,5.0359,5.0804,5.1277,5.133,5.1206,5.1325,5.1724,5.2272,5.2695,5.3084,5.3469,5.4193,5.469,5.5156,5.5673,5.6048,5.6336,5.6652,5.6823,5.6993,5.7417,5.7641,5.792,5.8307,5.8584,5.8746,5.8909,5.9018,5.9099,5.9099,5.9099,5.9153,5.9342,5.9369,5.9369,5.9369,5.9485,5.9565,5.9605,5.9204,5.9032,5.9287,5.8913,5.8595,5.8479,5.8448,5.8356,5.814,5.814,5.8215,5.8412,5.8412,5.8503,5.874,5.874,5.882,5.8916,5.9085,5.9157,2.6866,2.7037,2.7269,2.7722,2.7959,2.8236,2.886,2.9389,2.9897,3.0528,3.0914,3.1411,3.2267,3.2792,3.3251,3.3704,3.4684,3.5615,3.6294,3.7043,3.7857,3.8684,3.9515,4.0213,0.0,0.0,0.0,4.2252,4.2307,4.2339,4.2466,4.2991,4.3424,4.3739,4.477,4.5382,4.5545,4.6264,4.6664,4.6798,4.7065,4.7165,4.7165,4.7398,4.7696,4.8026,4.8125,4.8551,4.9105,4.9234,4.959,5.0129,5.0232,5.0614,5.1151,5.1622,5.197,5.2306,5.243,5.2799,5.3319,5.3652,5.4074,5.4522,5.5026,5.5408,5.5758,5.6193,5.6451,5.6623,5.6965,5.7135,5.7332,5.7697,5.7948,5.8225,5.8639,5.8776,5.8882,5.9072,5.9099,5.9099,5.9099,5.918,5.9288,5.9476,5.969,5.9823,5.9823,6.0012,6.025,6.0508,6.0135,5.9967,6.0147,5.9747,5.9434,5.9187,5.9157,5.9089,5.8943,5.8943,5.9092,5.9333,5.9333,5.9456,5.975,5.975,5.9798,5.984,6.004,6.0161,2.7871,2.8023,2.8177,2.8704,2.9163,2.9512,2.9578,3.0253,3.0908,3.093,3.1302,3.1756,0.0,0.0,3.3251,3.3748,3.4895,3.5916,3.6352,3.7414,3.829,0.0,0.0,0.0,0.0,0.0,0.0,4.2339,0.0,4.2466,4.2869,4.3389,4.4062,4.4892,4.5475,4.5969,4.6439,4.6831,4.7165,4.7497,4.7497,4.7497,4.7497,4.7497,4.7696,4.8059,4.8445,4.8804,4.9137,4.9493,4.9815,5.0136,5.0487,5.0836,5.1246,5.1872,5.2337,5.2677,5.3014,5.3349,5.3682,5.4014,5.4522,5.5056,5.5408,5.5758,5.6135,5.6737,5.6908,5.6993,5.7247,5.7585,5.7809,5.7836,5.828,5.8721,5.8721,5.8909,5.9099,5.9099,5.9099,5.9099,5.9126,5.9342,5.9503,5.9556,6.0035,6.0403,6.0403,6.0403,6.0508,6.0768,6.0794,6.0794,6.0794,6.0794,6.0517,5.987,5.9865,5.9714,5.9315,5.9309,5.9458,5.9721,5.9721,5.9844,6.0118,6.0118,6.0207,6.0392,6.0416,6.0567,2.7958,2.8309,2.8704,2.9206,2.9425,2.9687,3.0384,3.0712,3.0996,3.1342,3.1516,3.1866,0.0,0.0,0.0,3.4207,3.5401,0.0,3.6719,3.783,0.0,3.9137,0.0,4.0793,4.0793,4.1711,0.0,0.0,4.2665,4.2985,4.3708,4.4279,4.485,4.5465,4.6281,4.6746,4.6831,4.7198,4.7398,4.7497,4.7497,4.7497,4.7497,4.7762,4.8083,4.8477,4.8837,4.917,4.9493,4.9815,5.0168,5.0518,5.0836,5.134,5.1903,5.2337,5.2677,5.3044,5.3652,5.3894,5.4014,5.4371,5.4728,5.5114,5.57,5.6077,5.6394,5.6794,5.705,5.7275,5.7613,5.7753,5.792,5.8362,5.8582,5.8746,5.8936,5.9045,5.9099,5.9099,5.9099,5.9153,5.9369,5.9449,5.9663,6.0114,6.0298,6.0403,6.0403,6.056,6.0716,6.0794,6.0794,6.0794,6.0794,6.0794,6.0732,6.0547,6.0728,6.0788,6.0685,6.0882,6.1108,6.1383,6.1383,6.1507,6.181,6.181,6.1803,6.1852,6.2073,6.2194,2.8353,2.8572,2.8924,2.9381,2.9642,2.9991,3.0734,3.1061,3.1302,3.1538,3.1604,3.1913,3.2923,3.3098,0.0,0.0,0.0,0.0,3.6863,3.7937,3.885,0.0,4.0203,0.0,4.0793,4.1836,4.2665,0.0,4.2886,4.3222,4.4278,4.4821,4.5429,4.6114,4.6836,4.7198,4.7198,4.7398,4.7497,4.7497,4.7663,4.7729,4.7729,4.8116,4.8477,4.8837,0.0,4.9364,4.9815,5.0008,5.0391,5.0842,5.1214,5.1654,5.2152,5.2646,5.3014,5.3379,5.3924,5.4284,5.4522,5.4728,5.5083,5.5525,5.6019,5.6394,5.668,5.6964,5.7275,5.7585,5.7753,5.8003,5.828,5.8639,5.8803,5.8909,5.9072,5.9099,5.9099,5.9099,5.9207,5.9315,5.9476,5.9716,6.0008,6.0351,6.0508,6.0586,6.0586,6.069,6.0794,6.0794,6.0794,6.0794,6.0794,6.0794,6.0845,6.0949,6.1103,6.1308,6.1537,6.1714,6.1916,6.2166,6.2166,6.2241,6.2421,6.2513,6.2562,6.2562,6.2856,6.3027,2.8792,2.8792,2.8946,2.9469,2.9904,3.0341,3.0865,3.1323,3.1604,3.1604,3.1604,3.1913,3.2923,3.3098,3.3404,3.4332,0.0,3.6376,3.6818,3.7884,3.8757,3.9239,4.0203,4.0793,4.0793,4.2,4.2949,4.3263,4.3145,4.356,4.469,4.5293,4.5947,4.6767,4.7257,4.7497,4.7497,4.7497,4.753,4.7563,4.7861,4.8026,4.8092,4.8477,4.8837,4.9105,0.0,0.0,5.0097,5.0136,5.0518,5.1151,5.1502,5.1846,5.2245,5.2922,5.3379,5.3713,5.4104,5.4582,5.5056,5.5056,5.5496,5.6077,5.6394,5.668,5.6965,5.7275,5.7585,5.7809,5.7892,5.8307,5.8721,5.8719,5.8909,5.9099,5.9099,5.9099,5.9099,5.9099,5.9405,5.965,5.9677,6.0248,6.0678,6.0731,6.0914,6.1071,6.1071,6.0917,6.0794,6.0794,6.0794,6.0794,6.0794,6.082,6.0949,6.1211,6.1257,6.1512,6.1991,6.2041,6.2166,6.2421,6.2421,6.2414,6.2439,6.2685,6.2832,6.2856,6.3156,6.3397,2.8792,2.8792,2.9011,2.986,3.0144,3.0403,3.1276,3.1538,0.0,0.0,3.1604,3.1913,3.2923,3.3098,3.3404,3.4332,3.5462,3.6376,3.6818,3.7884,3.8757,0.0,4.0203,4.0793,0.0,0.0,0.0,0.0,0.0,0.0,4.5614,4.6198,4.6758,4.7353,4.7449,4.7497,4.7497,4.7497,4.763,4.7894,4.796,4.8158,4.851,4.8869,4.904,4.9105,0.0,0.0,5.0129,5.0391,5.0772,5.1151,5.1778,5.2245,5.2588,5.3258,5.3713,5.4104,5.4641,5.5085,5.5408,5.5408,5.5671,5.6105,5.6652,5.6851,5.7022,5.7557,5.7753,5.792,5.839,5.8639,5.8776,5.8964,5.9072,5.9099,5.9099,5.9099,5.9099,5.9099,5.9822,6.0482,6.0694,6.1473,6.2108,6.2349,6.2403,6.2429,6.2429,6.1502,6.0794,6.0794,6.0794,6.0794,6.0794,6.1,6.1129,6.118,6.1613,6.1916,6.1991,6.2216,6.234,6.2421,6.2421,6.2488,6.2734,6.2783,6.2905,6.3156,6.3421,6.3564,2.8792,2.8792,2.9033,2.9969,3.0185,3.0472,3.1385,0.0,0.0,3.1604,3.1604,3.1822,3.2595,3.2923,3.3338,3.4032,3.4946,3.5887,3.6773,3.7513,3.8314,3.9187,4.0203,4.0885,0.0,0.0,0.0,0.0,0.0,0.0,4.5878,4.6647,4.7233,4.7497,4.7497,4.7497,4.7497,4.7663,4.7828,4.7993,4.8387,4.8682,4.8869,4.9202,4.9364,4.9364,4.9719,0.0,5.0391,5.0741,5.1183,5.1685,5.2183,5.2584,5.2953,5.3622,5.4074,5.4431,5.4849,5.532,5.5787,5.5932,5.6193,5.6509,5.6794,5.7107,5.7445,5.7725,5.8031,5.8335,5.8609,5.88,5.8936,5.9072,5.9368,5.9727,6.0086,6.0146,6.0174,6.0309,6.0883,6.1395,6.169,6.2234,6.2664,6.2798,6.2798,6.2798,6.2798,6.224,6.1717,6.1379,6.1009,6.0845,6.1,6.1129,6.1308,6.1588,6.1866,6.2066,6.2191,6.2315,6.2464,6.2612,6.2612,6.2734,6.3002,6.3148,6.3268,6.3421,6.3684,6.3873,2.8792,2.8792,2.8988,2.9838,3.0144,3.0403,3.1254,3.1516,0.0,3.1604,3.1604,3.1756,3.2285,3.2792,3.3251,0.0,3.4483,3.5424,3.6722,3.7194,3.7873,0.0,4.0203,0.0,4.1259,0.0,0.0,0.0,0.0,0.0,4.6214,4.704,4.7497,4.7497,4.7497,4.7497,4.7497,4.7828,4.8026,4.8125,4.878,4.9137,4.9234,4.9461,4.9622,4.9719,5.0001,0.0,0.0,5.1088,5.156,5.2152,5.2553,5.2922,5.3315,5.4118,5.4623,5.495,5.5448,5.5977,5.6561,5.6823,5.691,5.6908,5.6965,5.7448,5.8013,5.8069,5.8604,5.9137,5.9192,5.9384,5.9548,5.9548,5.9937,6.0446,6.1014,6.1132,6.1271,6.1463,6.1943,6.2394,6.2581,6.2975,6.3256,6.3256,6.3256,6.3256,6.3256,6.3106,6.2825,6.2382,6.173,6.1407,6.1614,6.1774,6.1999,6.2431,6.2506,6.2569,6.2642,6.2692,6.2745,6.2808,6.2856,6.3002,6.3301,6.3517,6.3636,6.3707,6.3944,6.4156,2.8792,2.8792,2.8924,2.9447,2.9882,3.0341,3.0843,0.0,3.1604,3.1604,3.1604,3.1756,3.2285,3.2792,3.3251,3.3704,3.4483,3.5424,3.6722,3.7194,3.7873,3.9164,0.0,0.0,4.1259,0.0,0.0,0.0,0.0,0.0,0.0,4.7449,4.7497,4.7497,4.7497,4.7497,4.7497,4.7828,4.8182,4.8543,4.891,4.9267,4.9558,4.959,4.9751,5.0065,0.0,0.0,0.0,5.1408,5.1752,5.2152,5.2799,5.3258,5.3703,5.4916,5.5559,5.6033,5.7135,5.7781,5.8137,5.8462,5.7801,5.6965,5.7191,5.7937,5.8772,5.9025,5.9719,6.0502,6.0813,6.0896,6.0924,6.0924,6.0956,6.1044,6.1076,6.1269,6.1461,6.1519,6.2472,6.3284,6.3281,6.408,6.4703,6.4703,6.4703,6.4703,6.4703,6.4122,6.3799,6.4034,6.3442,6.3065,6.3092,6.3563,6.3849,6.39,6.4132,6.4032,6.3426,6.3619,6.3483,6.2808,6.3027,6.3301,6.3556,6.3612,6.3731,6.3976,6.417,6.4286,2.8704,2.8792,2.8924,2.9381,2.9838,3.0316,3.0799,0.0,3.1604,3.1604,3.1604,3.1669,3.1891,3.2573,3.3163,3.336,3.412,3.5228,3.6694,3.7,3.7785,3.9577,4.0387,0.0,0.0,0.0,0.0,0.0,0.0,0.0,0.0,4.7497,4.7497,4.7497,4.7497,4.7597,4.7795,4.8182,4.8543,4.8902,4.9234,4.9461,4.959,4.959,4.9783,5.0129,0.0,0.0,0.0,5.1685,5.2121,5.2492,5.3136,5.3809,5.4558,5.5469,5.6226,5.6923,5.7597,5.816,5.8633,5.8752,5.8697,5.8608,5.8722,5.9183,5.9703,5.9985,6.0445,6.0936,6.1048,6.1076,6.1224,6.1613,6.1702,6.1822,6.2211,6.2498,6.2753,6.2978,6.3523,6.4098,6.4264,6.462,6.4888,6.4888,6.4888,6.4888,6.4888,6.4641,6.4566,6.4867,6.3929,6.341,6.3751,6.3985,6.4166,6.4321,6.4423,6.4456,6.4374,6.4443,6.4516,6.4542,6.4255,6.4232,6.444,6.4153,6.4076,6.417,6.4426,6.4633,2.8567,2.8698,2.8763,2.9088,2.9522,3.0025,0.0,0.0,3.1429,3.156,3.1604,3.1604,3.1604,3.2416,3.3098,3.3098,3.3988,3.5241,3.6687,3.702,3.7837,3.9852,0.0,0.0,0.0,0.0,0.0,0.0,0.0,0.0,0.0,4.7497,4.7497,4.7497,4.7597,4.7762,4.7993,4.851,4.8869,4.9105,4.9429,4.959,4.959,4.9687,4.9912,5.0264,0.0,0.0,0.0,5.2027,5.2461,5.283,5.369,5.4473,5.5249,5.6182,5.7085,5.7902,5.8343,5.8881,5.9387,5.9476,5.9858,6.0296,6.0384,6.0526,6.0665,6.0865,6.1269,6.1702,6.1702,6.1702,6.1822,6.2271,6.2391,6.2539,6.3074,6.3453,6.3736,6.4047,6.4356,6.4607,6.486,6.4888,6.4888,6.4888,6.4888,6.4888,6.4888,6.497,6.5136,6.5406,6.4644,6.4296,6.469,6.4795,6.4925,6.5106,6.5209,6.5243,6.5224,6.5376,6.5525,6.5697,6.5319,6.5207,6.5447,6.489,6.4682,6.4742,6.48,6.4976,2.8335,2.8395,2.8395,2.8395,2.8761,2.9284,3.0049,3.0581,3.104,3.1495,3.1604,3.1604,3.1604,3.2416,3.3098,3.3098,3.43,3.5593,3.6761,3.7311,3.822,0.0,0.0,0.0,0.0,0.0,0.0,0.0,0.0,0.0,0.0,4.7497,4.7497,4.7497,4.7828,4.7993,4.7993,4.8747,4.9105,4.9105,4.9429,4.959,4.9622,4.9937,5.0264,0.0,0.0,0.0,0.0,5.2434,5.2799,5.3217,5.4487,5.5194,5.5693,5.7246,5.8216,5.8941,5.9874,6.0379,6.0742,6.1074,6.1345,6.1643,6.1969,6.1848,6.1575,6.1575,6.2311,6.3078,6.3078,6.3078,6.3078,6.3108,6.3108,6.3135,6.3453,6.3766,6.4047,6.4326,6.4663,6.4888,6.4888,6.4888,6.4888,6.4888,6.4888,6.4888,6.4888,6.5105,6.5406,6.5673,6.5974,6.6192,6.6192,6.6401,6.6586,6.6586,6.6849,6.6687,6.6039,6.649,6.6445,6.5697,6.5974,6.6217,6.6483,6.5766,6.5526,6.5774,6.5315,6.5347,2.754,2.7882,2.8115,2.8115,2.8478,2.9021,2.9761,3.0287,3.0813,3.1469,3.1604,3.1691,3.2088,3.2682,3.3207,3.3535,3.4491,3.5593,0.0,0.0,0.0,4.0349,0.0,0.0,0.0,0.0,0.0,0.0,0.0,0.0,0.0,4.7497,4.7497,4.7497,4.7828,4.8125,4.8412,4.8877,4.9234,4.9429,4.9558,4.9719,4.9944,5.0065,0.0,0.0,0.0,0.0,0.0,5.2707,5.3378,5.4124,5.5014,5.6049,5.7194,5.8135,5.9019,5.9845,6.0381,6.0742,6.1103,6.1404,6.1673,6.1998,6.2322,6.2379,6.2317,6.2548,6.2842,6.3108,6.3108,6.3108,6.3108,6.3108,6.3108,6.3165,6.3453,6.3766,6.4075,6.4326,6.4663,6.4888,6.4888,6.4888,6.4888,6.4888,6.4888,6.497,6.5163,6.5242,6.5487,6.6005,6.6139,6.6272,6.6459,6.6565,6.6665,6.6849,6.6953,6.7092,6.7221,6.7399,6.7479,6.7397,6.7215,6.7159,6.7256,6.6873,6.6555,6.6291,6.5812,6.5647,2.6966,2.7497,2.7857,2.7857,2.8089,0.0,2.9572,3.0033,3.0496,3.14,3.1604,3.1756,3.2285,3.2792,3.3251,3.3704,3.4837,0.0,0.0,0.0,0.0,4.0571,0.0,0.0,0.0,0.0,0.0,0.0,0.0,0.0,0.0,0.0,4.7563,4.7696,4.8026,4.8412,4.8772,4.9105,4.9396,4.959,4.9719,4.9879,5.0129,5.0359,0.0,0.0,0.0,0.0,0.0,5.3209,5.4082,5.5087,5.5884,5.6839,5.7933,5.8805,5.9605,6.0255,6.059,6.0922,6.1253,6.1494,6.191,6.2351,6.2702,6.2789,6.2818,6.305,6.3108,6.3108,6.3108,6.3108,6.3108,6.3108,6.3194,6.3338,6.3624,6.3906,6.4244,6.4524,6.4777,6.4888,6.4888,6.4888,6.4888,6.4888,6.4998,6.5136,6.5269,6.5487,6.579,6.6139,6.6272,6.6459,6.6717,6.6744,6.6822,6.6979,6.7187,6.7439,6.7772,6.8,6.8176,6.8351,6.8201,6.8201,6.8298,6.8102,6.7512,6.6654,6.6435,6.6222,0.0,2.7219,2.7552,2.7573,2.7594,2.7968,2.9434,2.9771,0.0,3.1356,3.1626,3.1826,3.235,3.2835,3.3316,3.3814,3.5313,0.0,0.0,3.8121,0.0,0.0,0.0,0.0,0.0,0.0,0.0,0.0,0.0,0.0,0.0,0.0,4.7696,4.8026,4.8412,4.8804,4.9105,4.9429,4.959,4.959,4.9937,5.0129,5.0161,5.0856,0.0,0.0,0.0,0.0,0.0,5.398,5.489,5.608,5.7,5.7564,5.8079,5.9287,5.9948,6.0285,6.0621,6.0952,6.1253,6.1524,6.2087,6.2702,6.3021,6.3108,6.3108,6.3108,6.3108,6.3108,6.3108,6.3108,6.3108,6.3108,6.3309,6.3595,6.3936,6.4216,6.4524,6.4832,6.4888,6.4888,6.4888,6.4888,6.4888,6.4915,6.5163,6.5324,6.5351,6.587,6.6224,6.6219,6.6459,6.6717,6.6979,6.7005,6.7005,6.7057,6.7516,6.7823,6.7848,6.8326,6.86,6.8625,6.8896,6.9164,6.9454,6.9234,6.8367,6.7001,6.7179,6.6963,2.5986,0.0,2.69,2.7298,2.7381,2.7774,0.0,2.9571,2.9974,3.1331,3.1935,3.235,3.2857,3.3316,3.3901,3.4731,0.0,0.0,3.7343,0.0,0.0,0.0,0.0,0.0,0.0,0.0,0.0,0.0,0.0,0.0,0.0,0.0,4.8059,4.8445,4.8804,4.9007,4.9105,4.9429,4.959,4.959,4.9937,5.0232,5.0518,5.1369,0.0,0.0,0.0,0.0,5.4602,5.5224,5.6045,5.7,5.7508,5.8339,5.9318,5.9891,6.0285,6.0621,6.0982,6.1133,6.1283,6.1821,6.2439,6.2992,6.3079,6.3108,6.3108,6.3108,6.3108,6.3108,6.3108,6.3108,6.3108,6.3108,6.3309,6.3595,6.3936,6.4216,6.4524,6.4832,6.4888,6.4888,6.4888,6.4888,6.497,6.5191,6.5269,6.546,6.5924,6.6112,6.6272,6.6485,6.6744,6.6927,6.7005,6.7005,6.7187,6.7568,6.7721,6.7975,6.8401,6.8526,6.8699,6.8896,6.9164,6.9559,7.0011,6.9397,6.8702,6.7982,6.7656,6.7137,2.5709,2.6229,2.6705,2.7161,2.7431,2.7928,2.92,2.9618,3.0131,3.1349,3.2022,3.2551,3.301,3.3491,3.4153,0.0,3.6115,0.0,0.0,0.0,0.0,0.0,0.0,0.0,0.0,0.0,0.0,0.0,0.0,0.0,0.0,0.0,4.8256,4.8804,4.9256,4.9419,4.9332,4.9744,5.0064,5.0226,5.0828,5.1286,5.164,5.233,0.0,0.0,0.0,0.0,5.5379,5.6037,5.6863,5.776,5.8077,5.8831,5.9761,6.0071,6.0408,6.0742,6.1073,6.1373,6.1672,6.1998,6.2556,6.3108,6.3108,6.3108,6.3108,6.3108,6.3108,6.3108,6.3108,6.3108,6.3137,6.3252,6.351,6.3793,6.4104,6.4412,6.4663,6.486,6.4888,6.4888,6.4888,6.4998,6.5105,6.5269,6.5515,6.5843,6.6139,6.6299,6.6485,6.6744,6.6901,6.7109,6.7368,6.7465,6.767,6.7975,6.8101,6.8351,6.8773,6.8896,6.914,6.9559,6.9703,6.9964,7.034,7.0055,6.9623,6.8965,6.8503,6.7892,2.567,2.6188,2.6623,2.7141,2.7593,2.8171,2.9264,2.981,3.0401,3.1501,3.2132,3.266,3.312,3.3693,0.0,0.0,0.0,0.0,0.0,0.0,0.0,0.0,0.0,0.0,0.0,0.0,0.0,0.0,0.0,0.0,0.0,0.0,0.0,4.9072,4.966,4.9898,4.9715,5.0301,5.0774,5.1133,5.1976,5.2535,5.2802,5.3355,5.3795,0.0,0.0,0.0,5.6158,5.6763,5.7508,5.8293,5.8641,5.9174,5.9823,6.0102,6.0438,6.0802,6.1163,6.1613,6.2116,6.2175,6.2585,6.3108,6.3108,6.3108,6.3108,6.3108,6.3108,6.3108,6.3108,6.3108,6.3165,6.3453,6.3766,6.4047,6.4326,6.4663,6.4888,6.4888,6.4888,6.4915,6.4943,6.5163,6.5324,6.5406,6.587,6.6219,6.6299,6.6538,6.6744,6.7031,6.7109,6.7343,6.7823,6.8101,6.8301,6.8376,6.855,6.8797,6.9091,6.9358,6.9751,7.0223,7.0246,7.0363,7.0561,7.0802,7.0546,6.9839,6.9352,6.8716,2.567,2.596,2.6208,2.7078,2.7593,2.8171,2.9264,2.981,3.0512,3.1984,3.266,3.3141,3.3595,3.4626,3.5587,0.0,0.0,0.0,0.0,0.0,0.0,0.0,0.0,0.0,0.0,0.0,0.0,0.0,0.0,0.0,0.0,0.0,0.0,4.9105,4.9889,5.0303,5.0293,5.1142,5.1618,5.1684,5.2385,5.2737,5.2828,5.3974,5.4705,0.0,0.0,5.6731,5.7455,5.7838,5.8242,5.8641,5.8986,5.9547,6.0132,6.0194,6.059,6.1163,6.1434,6.1791,6.2145,6.2439,6.2789,6.3108,6.3108,6.3108,6.3108,6.3108,6.3108,6.3108,6.3108,6.3108,6.3165,6.3453,6.3766,6.4047,6.4326,6.4663,6.4888,6.4888,6.4888,6.497,6.5187,6.5269,6.546,6.5978,6.6139,6.6352,6.6822,6.6901,6.7031,6.7317,6.7542,6.7797,6.8126,6.8376,6.8724,6.9188,6.9042,6.9164,6.9679,6.9941,7.02,7.0446,7.0446,7.0561,7.0848,7.087,7.0636,7.0117,6.9591,6.8952,2.5625,2.5897,2.6188,2.7324,2.8042,2.8659,2.9356,3.0341,3.1314,3.2206,3.2988,3.3699,3.4323,0.0,3.6163,3.7536,0.0,0.0,0.0,0.0,0.0,0.0,0.0,0.0,0.0,0.0,0.0,0.0,0.0,0.0,0.0,0.0,0.0,0.0,5.0528,5.1121,5.1564,5.2521,5.2815,5.2568,5.3347,5.3933,5.4354,5.4912,5.5503,5.6084,0.0,5.7077,5.772,5.8071,5.8388,5.8735,5.9267,5.9763,6.0255,6.0621,6.0952,6.1253,6.1494,6.1821,6.2175,6.2498,6.2818,6.3108,6.3108,6.3108,6.3108,6.3108,6.3108,6.3108,6.3108,6.3223,6.3395,6.3709,6.3991,6.43,6.4607,6.4805,6.4888,6.4888,6.5026,6.5163,6.5269,6.5569,6.5897,6.6139,6.6459,6.6717,6.6979,6.7135,6.7343,6.7568,6.7848,6.8126,6.8401,6.8797,6.914,6.9382,6.9559,6.9774,7.0011,7.0246,7.0479,7.0699,7.0733,7.0882,7.1266,7.1266,7.1231,7.1168,7.0063,6.9391,2.5623,2.598,2.6397,2.7686,2.8502,2.9101,2.9547,3.0803,3.2031,3.245,3.3256,3.4159,0.0,3.5791,0.0,3.8878,0.0,0.0,0.0,0.0,0.0,0.0,0.0,0.0,0.0,0.0,0.0,0.0,0.0,0.0,0.0,0.0,0.0,0.0,5.107,5.1791,5.259,5.3588,5.3901,5.3523,5.427,5.498,5.5604,5.567,5.6066,5.6714,5.6877,5.727,5.7848,5.8166,5.8515,5.8861,5.9482,5.9948,6.0408,6.0982,6.1193,6.1253,6.1583,6.188,6.2175,6.2585,6.2905,6.3108,6.3108,6.3108,6.3108,6.3108,6.3108,6.3108,6.3108,6.3309,6.3595,6.3936,6.4216,6.4496,6.4832,6.4888,6.4915,6.497,6.516,6.5351,6.5487,6.5897,6.6219,6.6352,6.6717,6.7057,6.7187,6.7394,6.7619,6.7949,6.8176,6.8451,6.8847,6.931,6.9631,6.9646,7.0059,7.0293,7.0363,7.0526,7.0722,7.1075,7.1075,7.1266,7.1688,7.1688,7.181,7.1951,7.049,6.9793,2.5706,2.6208,2.6838,2.8058,2.8673,2.9185,2.9901,3.1013,3.2117,3.2891,0.0,0.0,0.0,3.6885,3.8371,0.0,0.0,0.0,0.0,0.0,0.0,0.0,0.0,0.0,0.0,0.0,0.0,0.0,0.0,0.0,0.0,0.0,0.0,0.0,0.0,5.2057,5.259,5.3857,5.4451,5.44,5.4872,5.5265,5.5604,5.5934,5.6295,5.6747,5.7367,5.7816,5.8198,5.8515,5.8861,5.9174,5.9575,6.0071,6.0712,6.1073,6.1193,6.1283,6.185,6.2087,6.2204,6.2846,6.3079,6.3108,6.3108,6.3108,6.3108,6.3108,6.3108,6.3108,6.3108,6.3309,6.3595,6.3936,6.4216,6.4496,6.4832,6.4888,6.497,6.5214,6.5297,6.546,6.6032,6.6166,6.6352,6.6875,6.6979,6.7187,6.767,6.7746,6.7975,6.8501,6.855,6.8871,6.9655,6.9988,7.0223,7.0399,7.0446,7.0584,7.0848,7.087,7.1098,7.1534,7.1556,7.1666,7.1963,7.1963,7.1963,7.1951,7.0694,7.0058,2.5661,2.6457,2.7315,2.8478,2.9214,2.9901,3.067,3.1771,3.2811,3.342,3.4389,0.0,0.0,0.0,0.0,0.0,0.0,0.0,0.0,0.0,0.0,0.0,0.0,0.0,0.0,0.0,0.0,0.0,0.0,0.0,0.0,0.0,0.0,0.0,0.0,5.2442,5.3772,5.4247,5.4746,5.5206,5.5339,5.5571,5.5934,5.6295,5.6655,5.7012,5.7496,5.788,5.823,5.8546,5.8892,5.9236,5.9794,6.0408,6.1043,6.1163,6.1193,6.1283,6.188,6.2116,6.2204,6.2905,6.3108,6.3108,6.3108,6.3108,6.3108,6.3108,6.3108,6.3137,6.3309,6.3595,6.3908,6.4188,6.4496,6.4749,6.486,6.5026,6.516,6.5269,6.5596,6.5924,6.6139,6.6485,6.677,6.6979,6.7259,6.7619,6.8,6.8201,6.8451,6.8797,6.914,6.9559,7.0011,7.041,7.0664,7.0756,7.0756,7.087,7.1143,7.1266,7.1489,7.1854,7.1854,7.1963,7.218,7.218,7.2026,7.166,7.0712,7.003,2.5679,2.6685,2.7752,2.8891,2.9744,3.0611,3.162,3.2507,3.3299,3.4016,3.5384,3.6857,3.8235,0.0,0.0,0.0,0.0,0.0,0.0,0.0,0.0,0.0,0.0,0.0,0.0,0.0,0.0,0.0,0.0,0.0,0.0,0.0,0.0,0.0,0.0,5.2785,5.4485,5.4611,5.5006,5.5604,5.5703,5.5934,5.6295,5.6557,5.6942,5.7367,5.772,5.8039,5.8388,5.8704,5.9111,5.9578,6.0132,6.0681,6.1193,6.1193,6.1193,6.1283,6.188,6.2116,6.2204,6.2905,6.3108,6.3108,6.3108,6.3108,6.3108,6.3108,6.3165,6.3309,6.3595,6.3823,6.4078,6.4356,6.4663,6.4915,6.4998,6.516,6.5351,6.5542,6.5924,6.6246,6.6432,6.6744,6.7057,6.7239,6.7644,6.8025,6.8301,6.855,6.8871,6.9213,6.9679,7.0059,7.0386,7.0802,7.1052,7.112,7.121,7.13,7.1412,7.16,7.182,7.2094,7.2094,7.2202,7.2437,7.2437,7.2109,7.1463,7.0821,7.0102,2.5762,2.6889,2.8171,2.9218,3.0222,3.1296,3.2773,3.3098,3.349,3.4759,3.6673,3.8332,3.9157,0.0,0.0,0.0,0.0,0.0,0.0,0.0,0.0,0.0,0.0,0.0,0.0,0.0,0.0,0.0,0.0,0.0,0.0,0.0,0.0,0.0,0.0,0.0,5.4485,5.4905,5.5265,5.5604,5.5967,5.6328,5.6714,5.6714,5.7044,5.772,5.8039,5.8388,5.8735,5.9049,5.9609,6.0255,6.056,6.0922,6.1193,6.1193,6.1193,6.1283,6.188,6.2116,6.2204,6.2905,6.3108,6.3108,6.3108,6.3108,6.3108,6.3108,6.3309,6.3595,6.3936,6.4021,6.4047,6.4326,6.4663,6.497,6.5242,6.5297,6.546,6.6085,6.6192,6.6379,6.6901,6.7005,6.7187,6.7721,6.8025,6.8301,6.8575,6.8847,6.9213,6.9751,7.0035,7.0386,7.087,7.1165,7.1412,7.16,7.1854,7.1898,7.1622,7.1876,7.2094,7.2309,7.2309,7.2437,7.2692,7.2692,7.2278,7.1484,7.0929,7.0322,2.5762,2.7117,2.8566,2.9303,3.0432,3.1629,3.2838,3.3785,3.4947,0.0,3.7976,3.8914,3.9714,0.0,0.0,0.0,0.0,0.0,0.0,0.0,0.0,0.0,0.0,0.0,0.0,0.0,0.0,0.0,0.0,0.0,0.0,0.0,0.0,0.0,0.0,0.0,5.428,5.5062,5.5604,5.5967,5.6328,5.6584,5.6714,5.6942,5.727,5.772,5.8039,5.8388,5.8735,5.9298,5.9794,6.0255,6.056,6.0922,6.1193,6.1193,6.1193,6.1283,6.188,6.2116,6.2204,6.2905,6.3108,6.3108,6.3108,6.3108,6.3137,6.3338,6.3453,6.3622,6.416,6.43,6.4356,6.4694,6.4832,6.497,6.5242,6.546,6.5673,6.6112,6.6512,6.6796,6.6979,6.7285,6.767,6.8025,6.8301,6.8649,6.9091,6.9583,6.9917,7.0059,7.0456,7.0825,7.1165,7.1378,7.16,7.1876,7.2094,7.218,7.2081,7.218,7.2331,7.2586,7.2734,7.2838,7.2922,7.2547,7.1914,7.1116,7.0466,6.9721,2.5989,2.744,2.8923,2.9607,3.0893,3.2437,3.4213,0.0,0.0,0.0,3.8937,3.9694,4.0707,0.0,0.0,0.0,0.0,0.0,0.0,0.0,0.0,0.0,0.0,0.0,0.0,0.0,0.0,0.0,0.0,0.0,0.0,0.0,0.0,0.0,0.0,0.0,5.4039,5.4813,5.5491,5.5981,5.645,5.6844,5.7077,5.7303,5.756,5.7912,5.8388,5.8704,5.8955,5.9609,6.001,6.0255,6.0712,6.1013,6.1193,6.1193,6.1283,6.1434,6.1939,6.2204,6.238,6.2934,6.3108,6.3108,6.3108,6.3108,6.3165,6.3424,6.3624,6.3793,6.427,6.4524,6.4635,6.486,6.497,6.5105,6.5406,6.5704,6.6027,6.6459,6.677,6.7083,6.7291,6.767,6.805,6.8326,6.8773,6.9237,6.9679,7.0082,7.0363,7.0456,7.0825,7.1165,7.1378,7.1688,7.1929,7.2115,7.2416,7.2586,7.2586,7.2586,7.2671,7.2818,7.3026,7.3129,7.3129,7.2508,7.1802,7.1002,7.0314,6.9605,2.6403,2.7809,2.921,3.004,3.1589,3.3574,3.6289,3.6908,3.736,3.8728,0.0,4.0562,0.0,0.0,0.0,0.0,0.0,0.0,0.0,0.0,0.0,0.0,0.0,0.0,0.0,0.0,0.0,0.0,0.0,0.0,0.0,0.0,0.0,0.0,0.0,0.0,5.3725,5.437,5.507,0.0,5.6397,5.7049,5.7688,5.7688,5.7912,5.8293,5.8924,5.9205,5.9298,5.9948,6.0224,6.0316,6.0952,6.1193,6.1193,6.1193,6.1374,6.1673,6.1969,6.2322,6.2644,6.2992,6.3108,6.3108,6.3108,6.3108,6.3194,6.3481,6.3795,6.4075,6.4384,6.4691,6.4943,6.4943,6.5136,6.5378,6.5673,6.6,6.6379,6.6901,6.7031,6.7239,6.7746,6.805,6.8351,6.8674,6.9334,6.9941,7.0176,7.0433,7.0631,7.0916,7.1188,7.1434,7.1644,7.2038,7.2331,7.2373,7.2776,7.3026,7.3026,7.3026,7.3026,7.3026,7.3232,7.3319,7.3229,7.2504,7.1758,7.0957,7.0383,6.978,2.6795,2.806,2.927,3.0444,3.2426,3.4596,3.6474,3.7177,3.7907,3.9496,4.0265,0.0,0.0,0.0,0.0,0.0,0.0,0.0,0.0,0.0,0.0,0.0,0.0,0.0,0.0,0.0,0.0,0.0,0.0,0.0,0.0,0.0,0.0,5.1301,5.1996,5.2632,5.3176,5.4044,5.4896,0.0,5.6217,5.6867,5.7688,5.7688,5.8039,5.8609,5.9017,5.9329,5.9637,6.004,6.0377,6.0621,6.1043,6.1193,6.1193,6.1193,6.1374,6.1673,6.1969,6.2322,6.2644,6.2992,6.3108,6.3108,6.3108,6.3252,6.3481,6.3795,6.4104,6.4384,6.4721,6.4995,6.5214,6.5214,6.5269,6.5433,6.5978,6.6326,6.6617,6.6927,6.7343,6.7721,6.805,6.8326,6.8748,6.943,6.9869,7.02,7.0399,7.0664,7.0916,7.1188,7.14,7.1688,7.2103,7.2266,7.248,7.2838,7.2943,7.3088,7.3232,7.3252,7.3252,7.3252,7.3476,7.3317,7.2649,7.2092,7.1383,7.0613,6.9898,6.9495,2.7143,2.8408,2.9667,3.149,3.3514,3.5376,3.662,3.7405,3.8338,4.0067,4.0762,0.0,0.0,0.0,0.0,0.0,0.0,0.0,0.0,0.0,0.0,0.0,0.0,0.0,0.0,0.0,0.0,0.0,0.0,0.0,0.0,5.0836,5.1183,5.134,5.1973,5.2475,5.2819,5.3748,5.4678,5.5645,5.6233,5.7113,5.8166,5.8166,5.8451,5.8955,5.9111,5.9389,5.973,6.0071,6.0408,6.0712,6.1073,6.1193,6.1223,6.1344,6.1583,6.188,6.2204,6.2556,6.2876,6.305,6.3108,6.3137,6.3252,6.3395,6.3624,6.4047,6.43,6.4496,6.4805,6.5108,6.5324,6.5487,6.5623,6.5817,6.6112,6.6512,6.6875,6.7135,6.7619,6.8075,6.8351,6.8822,6.9358,6.9917,7.0293,7.0572,7.0687,7.0996,7.1289,7.1423,7.1732,7.2016,7.2288,7.2523,7.2755,7.2984,7.3211,7.3375,7.3476,7.3577,7.3577,7.3496,7.3697,7.3466,7.2641,7.2117,7.1422,7.063,6.9931,6.9633,2.7531,2.8989,3.0499,3.2598,3.4477,3.6023,3.6738,3.7566,3.8696,4.0434,0.0,0.0,0.0,0.0,0.0,0.0,0.0,0.0,0.0,0.0,0.0,0.0,0.0,0.0,0.0,0.0,0.0,0.0,0.0,0.0,5.0677,5.0994,5.1309,5.1596,5.1934,5.2276,5.2588,5.3435,5.4363,5.541,5.6526,5.7634,5.8704,5.8767,5.8924,5.9174,5.9236,5.9482,5.9823,6.0163,6.0469,6.0802,6.1103,6.1193,6.1223,6.1494,6.1821,6.2145,6.2498,6.2818,6.3108,6.3108,6.3137,6.3223,6.3453,6.3565,6.3764,6.4242,6.4437,6.4579,6.4888,6.516,6.546,6.57,6.6054,6.6326,6.6326,6.6717,6.7161,6.7414,6.7949,6.8451,6.8748,6.9382,6.9964,7.027,7.0641,7.0939,7.103,7.1356,7.1622,7.171,7.2059,7.2352,7.2416,7.2797,7.3046,7.3108,7.3476,7.3732,7.3752,7.3951,7.392,7.3602,7.376,7.3491,7.2721,7.2117,7.1416,7.0622,7.0132,6.9885,2.8054,3.0165,3.2126,3.2899,3.4719,3.6416,3.6806,0.0,3.9105,0.0,0.0,0.0,0.0,0.0,0.0,0.0,0.0,0.0,0.0,0.0,0.0,0.0,0.0,0.0,0.0,0.0,0.0,0.0,0.0,0.0,5.1025,5.1346,5.1534,5.1596,5.1934,5.2276,5.2588,5.3002,5.3959,5.5437,5.7157,5.8242,5.8704,5.8986,5.9142,5.9205,5.9513,5.9825,6.0163,6.0499,6.0802,6.1133,6.1163,6.1193,6.1223,6.1494,6.1821,6.2145,6.2498,6.2818,6.3108,6.3108,6.328,6.3453,6.351,6.3878,6.4298,6.4382,6.4607,6.4888,6.516,6.546,6.5727,6.6059,6.6506,6.6901,6.6901,6.7135,6.7446,6.7695,6.8376,6.9042,6.9526,6.9917,7.0293,7.0733,7.0848,7.1052,7.1445,7.1556,7.1754,7.2146,7.2253,7.2446,7.288,7.2963,7.317,7.3557,7.3672,7.3792,7.397,7.4151,7.3931,7.3169,7.3207,7.295,7.236,7.16,7.0786,7.0026,6.9938,6.9885,2.8575,3.0677,3.2421,3.2964,3.4902,3.6713,3.6857,3.8028,3.9405,0.0,0.0,0.0,0.0,0.0,0.0,0.0,0.0,0.0,0.0,0.0,0.0,0.0,0.0,0.0,0.0,0.0,0.0,0.0,0.0,5.0747,5.1088,5.1408,5.169,5.1846,5.2214,5.2553,5.2891,5.3197,5.425,5.5974,5.7681,5.8641,5.8986,5.9111,5.9174,5.9205,5.9575,5.9887,6.0255,6.056,6.0922,6.1193,6.1193,6.1284,6.1464,6.1762,6.2087,6.2439,6.276,6.2992,6.3137,6.328,6.3424,6.3537,6.3906,6.4186,6.4437,6.4635,6.4884,6.5132,6.5269,6.565,6.6085,6.6352,6.6717,6.7083,6.7362,6.7542,6.7797,6.8351,6.8871,6.9382,6.9941,7.0223,7.0502,7.0848,7.1109,7.1356,7.1578,7.182,7.2059,7.2288,7.2544,7.2776,7.2984,7.3232,7.3476,7.3692,7.3896,7.4073,7.4151,7.3921,7.3685,7.3444,7.3331,7.2712,7.1619,7.1391,7.0842,7.0079,7.0184,7.0237,2.9151,3.0995,3.2502,3.2991,3.4925,3.6757,3.6892,0.0,3.94,0.0,0.0,0.0,0.0,0.0,0.0,0.0,0.0,0.0,0.0,0.0,0.0,0.0,0.0,0.0,0.0,0.0,0.0,0.0,0.0,5.0778,5.1214,5.144,5.1752,5.209,5.243,5.2769,5.3102,5.3826,5.4916,5.6437,5.7963,5.8861,5.9174,5.9174,5.9236,5.9329,5.9671,6.001,6.0347,6.0681,6.0982,6.1193,6.1283,6.1434,6.1673,6.2087,6.238,6.2644,6.2992,6.3137,6.3252,6.3453,6.3594,6.3821,6.4242,6.4437,6.4607,6.4915,6.5163,6.5324,6.5487,6.587,6.6272,6.6644,6.6901,6.7265,6.7772,6.7949,6.8226,6.8969,6.931,6.9679,7.0176,7.0479,7.0699,7.1052,7.1378,7.1644,7.1754,7.2081,7.2352,7.248,7.2797,7.3046,7.317,7.3496,7.3752,7.3872,7.4132,7.422,7.4082,7.3706,7.3378,7.3098,7.3007,7.2385,7.1268,7.1179,7.0859,7.0272,7.0497,7.0582,2.9833,3.1334,3.2749,3.3044,3.4681,3.6353,0.0,0.0,0.0,0.0,0.0,0.0,0.0,0.0,0.0,0.0,0.0,0.0,0.0,0.0,0.0,0.0,0.0,0.0,0.0,0.0,0.0,0.0,0.0,5.0873,5.1534,5.1596,5.1752,5.209,5.243,5.2769,5.3102,5.4886,5.5981,5.6437,5.7963,5.8861,5.9174,5.9174,5.9361,5.9699,6.004,6.0377,6.0681,6.1043,6.1163,6.1223,6.1464,6.1613,6.1702,6.2322,6.2585,6.2644,6.2992,6.328,6.3481,6.351,6.3906,6.4354,6.4382,6.4607,6.4943,6.5187,6.5297,6.5433,6.6005,6.6197,6.6326,6.6849,6.7187,6.7516,6.8075,6.8376,6.8724,6.9261,6.9607,6.9941,7.0399,7.071,7.1019,7.1489,7.1578,7.1754,7.2223,7.2288,7.248,7.2922,7.2984,7.317,7.3632,7.3692,7.3837,7.4248,7.4287,7.4065,7.3475,7.3592,7.2992,7.1535,7.1712,7.1746,7.1674,7.0925,7.0533,7.0497,7.0684,7.0769,2.9897,3.1355,3.2749,3.3044,3.4659,3.6331,3.6802,3.7781,3.8901,0.0,0.0,0.0,0.0,0.0,0.0,0.0,0.0,0.0,0.0,0.0,0.0,0.0,0.0,0.0,0.0,0.0,0.0,0.0,0.0,0.0,5.1565,5.1596,5.1846,5.2404,5.2527,5.2861,5.341,5.5279,5.6255,5.6437,5.8181,5.908,5.9205,5.942,5.9702,6.004,6.0377,6.059,6.0712,6.1073,6.1284,6.1464,6.1554,6.185,6.2263,6.2527,6.2731,6.2963,6.328,6.3424,6.3537,6.3963,6.4214,6.4437,6.4663,6.4912,6.516,6.5269,6.5569,6.5924,6.6139,6.6459,6.6849,6.7394,6.7848,6.8276,6.8625,6.8797,6.9018,6.9526,6.9869,7.02,7.0687,7.0984,7.1278,7.1556,7.1864,7.2103,7.2288,7.2565,7.2818,7.2984,7.3273,7.3496,7.3692,7.3916,7.4151,7.4287,7.4041,7.382,7.3592,7.2833,7.221,7.1708,7.133,7.1114,7.1114,7.0827,7.0752,7.0833,7.09,7.0933,3.0282,3.1512,3.2661,3.3027,3.4415,3.5854,3.6533,0.0,3.8579,0.0,0.0,0.0,0.0,0.0,0.0,0.0,0.0,0.0,0.0,0.0,0.0,0.0,0.0,0.0,0.0,0.0,0.0,0.0,0.0,0.0,5.1565,5.1596,5.1908,5.2558,5.2803,5.3197,5.3743,5.5496,5.644,5.659,5.8367,5.9174,5.9205,5.9575,5.9887,6.0224,6.056,6.0742,6.0892,6.1103,6.1344,6.1613,6.1732,6.2116,6.2615,6.2731,6.2905,6.3137,6.3424,6.3595,6.3766,6.4214,6.4496,6.4607,6.4832,6.5108,6.5324,6.5406,6.5785,6.6219,6.6299,6.6717,6.7265,6.7695,6.8201,6.8674,6.8945,6.9067,6.9285,6.9846,7.0129,7.0433,7.0825,7.1188,7.1467,7.1688,7.2072,7.2373,7.2523,7.2818,7.3067,7.3211,7.3496,7.3737,7.3876,7.4151,7.4258,7.4109,7.3857,7.349,7.3065,7.2227,7.1705,7.1521,7.1087,7.0902,7.0969,7.0902,7.09,7.0996,7.1061,7.111,0.0,0.0,0.0,3.2988,3.3901,3.4979,3.5994,0.0,3.793,0.0,0.0,0.0,0.0,0.0,0.0,0.0,0.0,0.0,0.0,0.0,0.0,0.0,0.0,0.0,0.0,0.0,0.0,0.0,0.0,5.122,5.1565,5.1627,5.1939,5.2558,5.3258,5.3743,5.4104,5.5618,5.659,5.6921,5.846,5.9205,5.9205,5.9575,5.9887,6.0255,6.056,6.0922,6.1193,6.1193,6.1374,6.1673,6.1969,6.2322,6.2644,6.2992,6.3108,6.3165,6.3424,6.3738,6.4078,6.4328,6.4635,6.4888,6.4888,6.5108,6.5378,6.5646,6.5947,6.6272,6.6565,6.7005,6.7465,6.7746,6.8226,6.8699,6.8945,6.9213,6.9583,7.0106,7.0386,7.0584,7.087,7.1289,7.1688,7.1963,7.218,7.2501,7.2943,7.3026,7.3191,7.3672,7.3712,7.3891,7.4267,7.4271,7.4125,7.372,7.365,7.3065,7.1763,7.1793,7.1538,7.0838,7.0949,7.113,7.1292,7.1114,7.0996,7.1012,7.1211,7.1388,3.1038,0.0,0.0,0.0,0.0,0.0,3.6033,3.673,3.7466,0.0,0.0,0.0,0.0,0.0,0.0,0.0,0.0,0.0,0.0,0.0,0.0,0.0,0.0,0.0,0.0,0.0,0.0,0.0,5.0343,5.0836,5.157,5.2063,5.2404,5.2588,5.3258,5.3743,5.4104,5.5618,5.659,5.6921,5.846,5.9329,5.9575,5.9917,6.0255,6.059,6.0922,6.1103,6.1223,6.1404,6.1673,6.1969,6.2322,6.2673,6.2963,6.3079,6.3223,6.3453,6.3766,6.4047,6.4356,6.4635,6.4832,6.4943,6.5105,6.5378,6.5646,6.5947,6.6272,6.6617,6.7057,6.7414,6.7797,6.8276,6.8649,6.8969,6.9237,6.9655,7.0059,7.0363,7.0641,7.0939,7.1334,7.1666,7.1963,7.218,7.2565,7.2859,7.2984,7.3293,7.3571,7.3692,7.3955,7.417,7.4287,7.4024,7.3805,7.3703,7.278,7.212,7.1846,7.136,7.1118,7.1166,7.1195,7.1292,7.1415,7.1292,7.1276,7.1352,7.1399,7.1447,0.0,0.0,0.0,0.0,0.0,0.0,3.5764,3.6453,3.7168,0.0,0.0,0.0,0.0,0.0,0.0,0.0,0.0,0.0,0.0,0.0,0.0,0.0,0.0,0.0,0.0,0.0,0.0,4.9384,4.9749,5.0317,5.123,5.2086,5.2588,5.2588,5.3258,5.3803,5.4311,5.5458,5.6371,5.7106,5.827,5.9135,5.973,6.004,6.0377,6.0712,6.1043,6.1283,6.1404,6.1673,6.191,6.2145,6.2468,6.2818,6.3108,6.3223,6.3367,6.3537,6.3991,6.4272,6.4437,6.4805,6.497,6.5108,6.5242,6.5596,6.5947,6.6139,6.6485,6.6901,6.7446,6.767,6.7924,6.8476,6.8797,6.9091,6.9478,6.9988,7.0363,7.0469,7.0825,7.1188,7.1534,7.1864,7.2202,7.2437,7.2776,7.3067,7.3273,7.3516,7.3732,7.3832,7.4112,7.4184,7.3943,7.3785,7.3473,7.2905,7.2139,7.1636,7.1449,7.1068,7.0999,7.1276,7.1356,7.1436,7.1494,7.1436,7.1436,7.1494,7.1494,7.1494,0.0,0.0,0.0,0.0,0.0,0.0,3.5283,3.618,3.6938,3.6984,0.0,0.0,0.0,0.0,0.0,0.0,0.0,0.0,0.0,0.0,0.0,0.0,0.0,0.0,0.0,4.7682,4.835,4.8789,4.9208,4.9858,5.076,5.1905,5.2535,5.2588,5.3258,5.3921,5.4607,5.5187,5.6129,5.7407,5.7997,5.88,5.9792,6.0071,6.0408,6.0772,6.1073,6.1344,6.1643,6.1939,6.2116,6.2204,6.2527,6.2847,6.3137,6.3424,6.3538,6.3622,6.4186,6.441,6.4524,6.486,6.5108,6.5324,6.5378,6.579,6.6192,6.6272,6.6638,6.7161,6.767,6.7848,6.8025,6.8526,6.8847,6.9188,6.9727,7.0166,7.0515,7.0584,7.0973,7.1412,7.16,7.1994,7.2416,7.2692,7.2901,7.3191,7.3652,7.3732,7.3812,7.403,7.4139,7.3979,7.3496,7.3452,7.2976,7.1763,7.1655,7.1384,7.0838,7.0966,7.111,7.1308,7.1452,7.1494,7.1494,7.1494,7.1494,7.1494,7.1494,7.1494,0.0,0.0,0.0,0.0,0.0,0.0,3.5373,3.5958,3.653,0.0,0.0,0.0,0.0,0.0,0.0,0.0,0.0,0.0,0.0,0.0,0.0,0.0,0.0,0.0,0.0,4.5959,4.6686,4.8149,4.9244,5.0098,5.076,5.1534,5.2135,5.2588,5.3258,5.3921,5.4607,5.5187,5.6129,5.7407,5.7997,5.8923,6.0102,6.0194,6.0529,6.1103,6.1163,6.1344,6.1643,6.1939,6.2263,6.2556,6.2876,6.305,6.3137,6.3424,6.3681,6.3965,6.427,6.4579,6.486,6.5132,6.5269,6.5378,6.5897,6.6112,6.6272,6.6717,6.7083,6.742,6.7721,6.8126,6.8526,6.8847,6.9116,6.9487,7.0011,7.034,7.0631,7.1075,7.1356,7.1622,7.1876,7.2137,7.2459,7.288,7.3129,7.3354,7.3672,7.3852,7.403,7.4209,7.3837,7.3567,7.3629,7.2709,7.1978,7.1727,7.1223,7.0962,7.0966,7.1146,7.1308,7.1447,7.1479,7.1494,7.1494,7.1494,7.1494,7.1494,7.1494,7.1494,0.0,0.0,0.0,3.401,0.0,0.0,0.0,3.595,3.6373,3.6599,3.6824,0.0,0.0,0.0,0.0,0.0,0.0,0.0,0.0,0.0,0.0,0.0,0.0,0.0,0.0,4.4982,4.5662,4.7121,4.8476,4.9459,4.9923,5.1111,5.1926,5.2189,5.3096,5.3921,5.4607,5.4911,5.5684,5.6901,5.7547,5.8532,5.9767,6.0053,6.056,6.1193,6.1193,6.1434,6.185,6.2057,6.238,6.2876,6.3021,6.3194,6.3338,6.3652,6.3934,6.4244,6.4524,6.4829,6.5136,6.5242,6.5487,6.5817,6.6112,6.6379,6.6665,6.7083,6.7388,6.7644,6.7924,6.8301,6.8674,6.8945,6.9188,6.9574,7.0223,7.0423,7.0699,7.1311,7.1656,7.1876,7.2115,7.2437,7.2776,7.3108,7.3354,7.3577,7.3832,7.4049,7.403,7.3723,7.36,7.3273,7.2601,7.205,7.1513,7.1121,7.0899,7.0869,7.0979,7.1195,7.1356,7.1494,7.1494,7.1494,7.1494,7.1494,7.1494,7.1494,7.1494,7.1494,0.0,0.0,0.0,0.0,0.0,3.5808,0.0,0.0,0.0,3.6305,0.0,0.0,0.0,0.0,0.0,0.0,0.0,0.0,0.0,0.0,0.0,0.0,0.0,0.0,0.0,4.4373,4.5139,4.6177,4.7501,4.8447,4.8904,5.0529,5.158,5.1793,5.2853,5.3754,5.449,5.4578,5.5182,5.6334,5.7039,5.8051,5.934,5.991,6.056,6.1193,6.1193,6.1523,6.2087,6.1969,6.2319,6.2928,6.3048,6.319,6.3327,6.3668,6.3886,6.407,6.4377,6.4679,6.4894,6.4948,6.5384,6.5864,6.5917,6.6259,6.667,6.6978,6.7233,6.7487,6.7813,6.8053,6.8389,6.8789,6.9112,6.9552,7.032,7.0538,7.0791,7.1534,7.1854,7.205,7.2266,7.2692,7.3088,7.3273,7.3516,7.3702,7.376,7.394,7.3777,7.3039,7.3145,7.2761,7.1553,7.1462,7.1209,7.0601,7.0735,7.0883,7.1029,7.1243,7.1388,7.1494,7.1494,7.1494,7.1494,7.1494,7.1494,7.1494,7.1494,7.1494,0.0,0.0,0.0,0.0,3.5543,0.0,0.0,0.0,3.6305,3.6305,0.0,0.0,0.0,0.0,0.0,0.0,0.0,0.0,0.0,0.0,0.0,0.0,0.0,0.0,0.0,0.0,4.5218,4.5668,4.6547,4.7435,4.825,4.9523,5.067,5.1766,5.2449,5.3256,5.4164,5.4431,5.5091,5.6061,5.6977,5.8051,5.934,5.991,6.056,6.1193,6.1193,6.1523,6.2057,6.1468,6.1608,6.2271,6.2868,6.292,6.2634,6.2912,6.2853,6.2663,6.2933,6.3202,6.3499,6.379,6.4236,6.4727,6.4983,6.5078,6.523,6.5764,6.5913,6.6061,6.6574,6.6911,6.7305,6.8167,6.8757,6.94,7.0312,7.071,7.1075,7.181,7.1963,7.205,7.2266,7.2692,7.3088,7.3273,7.3516,7.3547,7.3007,7.3095,7.3004,7.2449,7.1942,7.1641,7.1693,7.1032,7.069,7.0771,7.09,7.1081,7.1243,7.142,7.1463,7.1494,7.1494,7.1494,7.1494,7.1494,7.1494,7.1494,7.1494,7.1494,0.0,0.0,0.0,0.0,0.0,0.0,0.0,0.0,3.6305,0.0,0.0,0.0,0.0,0.0,0.0,0.0,0.0,0.0,0.0,0.0,0.0,0.0,0.0,0.0,0.0,0.0,0.0,0.0,0.0,4.6527,4.7418,4.8574,4.9696,5.0697,5.1868,5.2832,5.3583,5.4265,5.4867,5.5444,5.6386,5.7485,5.8738,5.9367,6.0245,6.1193,6.1193,6.1319,6.1497,6.1232,6.1282,6.1553,6.199,6.2182,6.2249,6.2494,6.2612,6.2691,6.2932,6.3225,6.3541,6.4042,6.4326,6.4526,6.4831,6.5007,6.5208,6.5581,6.5803,6.5999,6.6387,6.6698,6.7034,6.7532,6.8076,6.8613,6.9108,6.9514,6.9958,7.0558,7.0772,7.0984,7.1305,7.2014,7.2592,7.2813,7.2683,7.2477,7.2337,7.251,7.2414,7.1835,7.1659,7.1426,7.1049,7.0693,7.0582,7.0804,7.1051,7.126,7.142,7.1447,7.1494,7.1494,7.1494,7.1494,7.1494,7.1494,7.1494,7.1494,7.1494,7.1494,3.7363,0.0,0.0,0.0,0.0,0.0,0.0,0.0,0.0,0.0,0.0,0.0,0.0,0.0,0.0,0.0,0.0,0.0,0.0,0.0,0.0,0.0,0.0,0.0,0.0,0.0,0.0,4.3231,4.44,4.5505,4.6386,4.7717,4.8864,4.9738,5.1266,5.2382,5.3052,5.4068,5.4699,5.4906,5.5935,5.6975,5.8081,5.8738,5.9641,6.0671,6.076,6.0794,6.0819,6.0729,6.0746,6.0832,6.1039,6.1253,6.15,6.1954,6.2189,6.2298,6.2562,6.2903,6.3292,6.3753,6.3956,6.4083,6.4359,6.4633,6.4905,6.5182,6.5392,6.5658,6.5944,6.6204,6.6504,6.6934,6.7405,6.788,6.8205,6.8739,6.924,6.9625,6.9932,7.0244,7.0684,7.139,7.1932,7.213,7.189,7.168,7.1659,7.1863,7.1728,7.1126,7.1249,7.1121,7.055,7.0514,7.0616,7.0852,7.1162,7.1404,7.1494,7.1494,7.1494,7.1494,7.1494,7.1494,7.1494,7.1494,7.1494,7.1494,7.1494,7.1494,0.0,0.0,0.0,3.777,0.0,0.0,0.0,0.0,3.6847,0.0,0.0,0.0,0.0,0.0,0.0,0.0,0.0,0.0,0.0,0.0,0.0,0.0,0.0,0.0,0.0,0.0,0.0,4.254,4.3455,4.4322,4.5221,4.6904,4.8228,4.91,5.062,5.1831,5.2696,5.3979,5.4607,5.4637,5.5846,5.6749,5.7451,5.8051,5.8691,5.9394,5.9626,5.9943,6.0199,5.9803,5.9842,6.0139,6.0079,6.005,6.0164,6.11,6.1177,6.0907,6.1165,6.16,6.2104,6.2385,6.2626,6.2896,6.3171,6.3461,6.3724,6.3994,6.422,6.4421,6.4699,6.496,6.5408,6.6295,6.689,6.7413,6.8149,6.887,6.9467,6.9667,6.9932,7.0285,7.0898,7.1017,7.1096,7.1292,7.1539,7.1469,7.09,7.1032,7.0894,7.0291,7.0429,7.055,7.0514,7.0514,7.0632,7.0963,7.1304,7.1494,7.1494,7.1494,7.1494,7.1494,7.1494,7.1494,7.1494,7.1494,7.1494,7.1494,7.1494,7.1494,0.0,0.0,3.9154,3.851,0.0,0.0,0.0,0.0,0.0,0.0,0.0,0.0,0.0,0.0,0.0,0.0,0.0,0.0,0.0,0.0,0.0,0.0,0.0,0.0,0.0,0.0,0.0,4.1134,4.2366,4.3429,4.4298,4.5771,4.7195,4.8541,4.983,5.1003,5.2097,5.3375,5.4223,5.4607,5.5426,5.6353,5.7394,5.7594,5.8289,5.9306,5.9596,5.9649,5.9522,5.9566,5.9625,5.9696,5.9917,6.0092,6.0302,6.081,6.1035,6.1129,6.1563,6.1966,6.229,6.2562,6.2734,6.2881,6.3317,6.354,6.366,6.392,6.4156,6.4379,6.4633,6.4918,6.5255,6.5891,6.6278,6.6608,6.7007,6.7654,6.8178,6.8241,6.8514,6.8917,6.9393,6.9471,6.976,7.0645,7.052,7.0266,7.0219,7.0381,7.0487,7.0394,7.048,7.0514,7.0514,7.0699,7.0864,7.0979,7.1304,7.1494,7.1494,7.1494,7.1494,7.1494,7.1494,7.1494,7.1494,7.1494,7.1494,7.1494,7.1494,7.1494,4.0479,4.0349,0.0,0.0,3.9131,0.0,3.8229,0.0,0.0,0.0,0.0,0.0,0.0,0.0,0.0,0.0,0.0,0.0,0.0,3.4555,0.0,0.0,0.0,0.0,0.0,0.0,3.9208,4.0017,4.1266,4.2476,0.0,0.0,4.6128,4.7731,4.9016,5.0213,5.1327,5.2933,5.3891,5.4305,5.5119,5.6042,5.7023,5.7023,5.7628,5.8609,5.8981,5.903,5.8872,5.926,5.9461,5.9529,5.9853,6.0171,6.0429,6.069,6.1026,6.141,6.1841,6.2166,6.2439,6.271,6.2856,6.3027,6.346,6.3684,6.3802,6.4038,6.4263,6.4518,6.4771,6.4998,6.5324,6.5692,6.5943,6.616,6.6443,6.7035,6.751,6.751,6.7899,6.8299,6.8647,6.8762,6.9142,6.9987,6.9822,6.967,6.9867,7.0079,7.0272,7.0497,7.0514,7.0514,7.0514,7.0817,7.0996,7.0996,7.1304,7.1494,7.1494,7.1494,7.1494,7.1494,7.1494,7.1494,7.1494,7.1494,7.1494,7.1494,7.1494,7.1494]}]]